[[{"header":{"parameterUnit":"m.s-1","parameterCategory":1,"la1":30.6,"la2":28.766,"lo1":-90.7593,"lo2":-88.6598,"dy":0.0162,"dx":0.0183,"nx":116,"ny":114,"refTime":"2024-07-02T12:00:00:Z","depth":0,"parameterNumber":2,"parameterNumberName":"U-component_of_WINDS"},"data":[0.0,0.0,0.0,0.0,0.0,0.0,0.0,0.0,0.0,0.0,0.0,0.0,0.0,0.0,0.0,0.0,0.0,0.0,0.0,0.0,0.0,0.0,0.0,0.0,0.0,0.0,0.0,0.0,0.0,0.0,0.0,0.0,0.0,0.0,0.0,0.0,0.0,0.0,0.0,0.0,0.0,0.0,0.0,0.0,0.0,0.0,0.0,0.0,0.0,0.0,0.0,0.0,0.0,0.0,0.0,0.0,0.0,0.0,0.0,0.0,0.0,0.0,0.0,0.0,0.0,0.0,0.0,0.0,0.0,0.0,0.0,0.0,0.0,0.0,0.0,0.0,0.0,0.0,0.0,0.0,0.0,0.0,0.0,0.0,0.0,0.0,0.0,0.0,0.0,0.0,0.0,0.0,0.0,0.0,0.0,0.0,0.0,0.0,0.0,0.0,0.0,0.0,0.0,0.0,0.0,0.0,0.0,0.0,0.0,0.0,0.0,0.0,0.0,0.0,0.0,0.0,0.0,0.0,0.0,0.0,0.0,0.0,0.0,0.0,0.0,0.0,0.0,0.0,0.0,0.0,0.0,0.0,0.0,0.0,0.0,0.0,0.0,0.0,0.0,0.0,0.0,0.0,0.0,0.0,0.0,0.0,0.0,0.0,0.0,0.0,0.0,0.0,0.0,0.0,0.0,0.0,0.0,0.0,0.0,0.0,0.0,0.0,0.0,0.0,0.0,0.0,0.0,0.0,0.0,0.0,0.0,0.0,0.0,0.0,0.0,0.0,0.0,0.0,0.0,0.0,0.0,0.0,0.0,0.0,0.0,0.0,0.0,0.0,0.0,0.0,0.0,0.0,0.0,0.0,0.0,0.0,0.0,0.0,0.0,0.0,0.0,0.0,0.0,0.0,0.0,0.0,0.0,0.0,0.0,0.0,0.0,0.0,0.0,0.0,0.0,0.0,0.0,0.0,0.0,0.0,0.0,0.0,0.0,0.0,0.0,0.0,0.0,0.0,0.0,0.0,0.0,0.0,0.0,0.0,0.0,0.0,0.0,0.0,0.0,0.0,0.0,0.0,0.0,0.0,0.0,0.0,0.0,0.0,0.0,0.0,0.0,0.0,0.0,0.0,0.0,0.0,0.0,0.0,0.0,0.0,0.0,0.0,0.0,0.0,0.0,0.0,0.0,0.0,0.0,0.0,0.0,0.0,0.0,0.0,0.0,0.0,0.0,0.0,0.0,0.0,0.0,0.0,0.0,0.0,0.0,0.0,0.0,0.0,0.0,0.0,0.0,0.0,0.0,0.0,0.0,0.0,0.0,0.0,0.0,0.0,0.0,0.0,0.0,0.0,0.0,0.0,0.0,0.0,0.0,0.0,0.0,0.0,0.0,0.0,0.0,0.0,0.0,0.0,0.0,0.0,0.0,0.0,0.0,0.0,0.0,0.0,0.0,0.0,0.0,0.0,0.0,0.0,0.0,0.0,0.0,0.0,0.0,0.0,0.0,0.0,0.0,0.0,0.0,0.0,0.0,0.0,0.0,0.0,0.0,0.0,0.0,0.0,0.0,0.0,0.0,0.0,0.0,0.0,0.0,0.0,0.0,0.0,0.0,0.0,0.0,0.0,0.0,0.0,0.0,0.0,0.0,0.0,0.0,0.0,0.0,0.0,0.0,0.0,0.0,0.0,0.0,0.0,0.0,0.0,0.0,0.0,0.0,0.0,0.0,0.0,0.0,0.0,0.0,0.0,0.0,0.0,0.0,0.0,0.0,0.0,0.0,0.0,0.0,0.0,0.0,0.0,0.0,0.0,0.0,0.0,0.0,0.0,0.0,0.0,0.0,0.0,0.0,0.0,0.0,0.0,0.0,0.0,0.0,0.0,0.0,0.0,0.0,0.0,0.0,0.0,0.0,0.0,0.0,0.0,0.0,0.0,0.0,0.0,0.0,0.0,0.0,0.0,0.0,0.0,0.0,0.0,0.0,0.0,0.0,0.0,0.0,0.0,0.0,0.0,0.0,0.0,0.0,0.0,0.0,0.0,0.0,0.0,0.0,0.0,0.0,0.0,0.0,0.0,0.0,0.0,0.0,0.0,0.0,0.0,0.0,0.0,0.0,0.0,0.0,0.0,0.0,0.0,0.0,0.0,0.0,0.0,0.0,0.0,0.0,0.0,0.0,0.0,0.0,0.0,0.0,0.0,0.0,0.0,0.0,0.0,0.0,0.0,0.0,0.0,0.0,0.0,0.0,0.0,0.0,0.0,0.0,0.0,0.0,0.0,0.0,0.0,0.0,0.0,0.0,0.0,0.0,0.0,0.0,0.0,0.0,0.0,0.0,0.0,0.0,0.0,0.0,0.0,0.0,0.0,0.0,0.0,0.0,0.0,0.0,0.0,0.0,0.0,0.0,0.0,0.0,0.0,0.0,0.0,0.0,0.0,0.0,0.0,0.0,0.0,0.0,0.0,0.0,0.0,0.0,0.0,0.0,0.0,0.0,0.0,0.0,0.0,0.0,0.0,0.0,0.0,0.0,0.0,0.0,0.0,0.0,0.0,0.0,0.0,0.0,0.0,0.0,0.0,0.0,0.0,0.0,0.0,0.0,0.0,0.0,0.0,0.0,0.0,0.0,0.0,0.0,0.0,0.0,0.0,0.0,0.0,0.0,0.0,0.0,0.0,0.0,0.0,0.0,0.0,0.0,0.0,0.0,0.0,0.0,0.0,0.0,0.0,0.0,0.0,0.0,0.0,0.0,0.0,0.0,0.0,0.0,0.0,0.0,0.0,0.0,0.0,0.0,0.0,0.0,0.0,0.0,0.0,0.0,0.0,0.0,0.0,0.0,0.0,0.0,0.0,0.0,0.0,0.0,0.0,0.0,0.0,0.0,0.0,0.0,0.0,0.0,0.0,0.0,0.0,0.0,0.0,0.0,0.0,0.0,0.0,0.0,0.0,0.0,0.0,0.0,0.0,0.0,0.0,0.0,0.0,0.0,0.0,0.0,0.0,0.0,0.0,0.0,0.0,0.0,0.0,0.0,0.0,0.0,0.0,0.0,0.0,0.0,0.0,0.0,0.0,0.0,0.0,0.0,0.0,0.0,0.0,0.0,0.0,0.0,0.0,0.0,0.0,0.0,0.0,0.0,0.0,0.0,0.0,0.0,0.0,0.0,0.0,0.0,0.0,0.0,0.0,0.0,0.0,0.0,0.0,0.0,0.0,0.0,0.0,0.0,0.0,0.0,0.0,0.0,0.0,0.0,0.0,0.0,0.0,0.0,0.0,0.0,0.0,0.0,0.0,0.0,0.0,0.0,0.0,0.0,0.0,0.0,0.0,0.0,0.0,0.0,0.0,0.0,0.0,0.0,0.0,0.0,0.0,0.0,0.0,0.0,0.0,0.0,0.0,0.0,0.0,0.0,0.0,0.0,0.0,0.0,0.0,0.0,0.0,0.0,0.0,0.0,0.0,0.0,0.0,0.0,0.0,0.0,0.0,0.0,0.0,0.0,0.0,0.0,0.0,0.0,0.0,0.0,0.0,0.0,0.0,0.0,0.0,0.0,0.0,0.0,0.0,0.0,0.0,0.0,0.0,0.0,0.0,0.0,0.0,0.0,0.0,0.0,0.0,0.0,0.0,0.0,0.0,0.0,0.0,0.0,0.0,0.0,0.0,0.0,0.0,0.0,0.0,0.0,0.0,0.0,0.0,0.0,0.0,0.0,0.0,0.0,0.0,0.0,0.0,0.0,0.0,0.0,0.0,0.0,0.0,0.0,0.0,0.0,0.0,0.0,0.0,0.0,0.0,0.0,0.0,0.0,0.0,0.0,0.0,0.0,0.0,0.0,0.0,0.0,0.0,0.0,0.0,0.0,0.0,0.0,0.0,0.0,0.0,0.0,0.0,0.0,0.0,0.0,0.0,0.0,0.0,0.0,0.0,0.0,0.0,0.0,0.0,0.0,0.0,0.0,0.0,0.0,0.0,0.0,0.0,0.0,0.0,0.0,0.0,0.0,0.0,0.0,0.0,0.0,0.0,0.0,0.0,0.0,0.0,0.0,0.0,0.0,0.0,0.0,0.0,0.0,0.0,0.0,0.0,0.0,0.0,0.0,0.0,0.0,0.0,0.0,0.0,0.0,0.0,0.0,0.0,0.0,0.0,0.0,0.0,0.0,0.0,0.0,0.0,0.0,0.0,0.0,0.0,0.0,0.0,0.0,0.0,0.0,0.0,0.0,0.0,0.0,0.0,0.0,0.0,0.0,0.0,0.0,0.0,0.0,0.0,0.0,0.0,0.0,0.0,0.0,0.0,0.0,0.0,0.0,0.0,0.0,0.0,0.0,0.0,0.0,0.0,0.0,0.0,0.0,0.0,0.0,0.0,0.0,0.0,0.0,0.0,0.0,0.0,0.0,0.0,0.0,0.0,0.0,0.0,0.0,0.0,0.0,0.0,0.0,0.0,0.0,0.0,0.0,0.0,0.0,0.0,0.0,0.0,0.0,0.0,0.0,0.0,0.0,0.0,0.0,0.0,0.0,0.0,0.0,0.0,0.0,0.0,0.0,0.0,0.0,0.0,0.0,0.0,0.0,0.0,0.0,0.0,0.0,0.0,0.0,0.0,0.0,0.0,0.0,0.0,0.0,0.0,0.0,0.0,0.0,0.0,0.0,0.0,0.0,0.0,0.0,0.0,0.0,0.0,0.0,0.0,0.0,0.0,0.0,0.0,0.0,0.0,0.0,0.0,0.0,0.0,0.0,0.0,0.0,0.0,0.0,0.0,0.0,0.0,0.0,0.0,0.0,0.0,0.0,0.0,0.0,0.0,0.0,0.0,0.0,0.0,0.0,0.0,0.0,0.0,0.0,0.0,0.0,0.0,0.0,0.0,0.0,0.0,0.0,0.0,0.0,0.0,0.0,0.0,0.0,0.0,0.0,0.0,0.0,0.0,0.0,0.0,0.0,0.0,0.0,0.0,0.0,0.0,0.0,0.0,0.0,0.0,0.0,0.0,0.0,0.0,0.0,0.0,0.0,0.0,0.0,0.0,0.0,0.0,0.0,0.0,0.0,0.0,0.0,0.0,0.0,0.0,0.0,0.0,0.0,0.0,0.0,0.0,0.0,0.0,0.0,0.0,0.0,0.0,0.0,0.0,0.0,0.0,0.0,0.0,0.0,0.0,0.0,0.0,0.0,0.0,0.0,0.0,0.0,0.0,0.0,0.0,0.0,0.0,0.0,0.0,0.0,0.0,0.0,0.0,0.0,0.0,0.0,0.0,0.0,0.0,0.0,0.0,0.0,0.0,0.0,0.0,0.0,0.0,0.0,0.0,0.0,0.0,0.0,0.0,0.0,0.0,0.0,0.0,0.0,0.0,0.0,0.0,0.0,0.0,0.0,0.0,0.0,0.0,0.0,0.0,0.0,0.0,0.0,0.0,0.0,0.0,0.0,0.0,0.0,0.0,0.0,0.0,0.0,0.0,0.0,0.0,0.0,0.0,0.0,0.0,0.0,0.0,0.0,0.0,0.0,0.0,0.0,0.0,0.0,0.0,0.0,0.0,0.0,0.0,0.0,0.0,0.0,0.0,0.0,0.0,0.0,0.0,0.0,0.0,0.0,0.0,0.0,0.0,0.0,0.0,0.0,0.0,0.0,0.0,0.0,0.0,0.0,0.0,0.0,0.0,0.0,0.0,0.0,0.0,0.0,0.0,0.0,0.0,0.0,0.0,0.0,0.0,0.0,0.0,0.0,0.0,0.0,0.0,0.0,0.0,0.0,0.0,0.0,0.0,0.0,0.0,0.0,0.0,0.0,0.0,0.0,0.0,0.0,0.0,0.0,0.0,0.0,0.0,0.0,0.0,0.0,0.0,0.0,0.0,0.0,0.0,0.0,0.0,0.0,0.0,0.0,0.0,0.0,0.0,0.0,0.0,0.0,0.0,0.0,0.0,0.0,0.0,0.0,0.0,0.0,0.0,0.0,0.0,0.0,0.0,0.0,0.0,0.0,0.0,0.0,0.0,0.0,0.0,0.0,0.0,0.0,0.0,0.0,0.0,0.0,0.0,0.0,0.0,0.0,0.0,0.0,0.0,0.0,0.0,0.0,0.0,0.0,0.0,-3.0979,0.0,0.0,0.0,0.0,0.0,0.0,0.0,0.0,0.0,0.0,0.0,0.0,0.0,0.0,0.0,0.0,0.0,0.0,0.0,0.0,0.0,0.0,0.0,0.0,-2.2765,-2.3344,-2.4237,-2.4717,-2.4976,-2.4976,0.0,0.0,0.0,0.0,0.0,-2.3005,-2.3033,-2.3241,-2.3663,-2.3664,-2.4315,-2.5536,-2.5128,-2.4265,-2.306,0.0,0.0,0.0,0.0,0.0,0.0,0.0,0.0,0.0,0.0,0.0,0.0,0.0,0.0,0.0,0.0,0.0,0.0,0.0,0.0,0.0,0.0,0.0,0.0,0.0,0.0,0.0,0.0,0.0,0.0,0.0,0.0,0.0,0.0,0.0,0.0,0.0,0.0,0.0,0.0,0.0,0.0,0.0,0.0,0.0,0.0,0.0,0.0,0.0,0.0,0.0,0.0,0.0,0.0,0.0,0.0,0.0,0.0,0.0,0.0,0.0,0.0,0.0,0.0,0.0,0.0,0.0,0.0,0.0,0.0,0.0,-3.2946,0.0,0.0,0.0,0.0,0.0,0.0,0.0,0.0,0.0,0.0,0.0,0.0,0.0,0.0,0.0,0.0,0.0,0.0,0.0,0.0,0.0,-2.2072,-2.2974,-2.3806,-2.4719,-2.5746,-2.569,-2.5679,-2.5823,-2.5707,0.0,0.0,0.0,-2.4201,-2.3498,-2.3526,-2.3979,-2.4859,-2.5154,-2.6483,-2.8749,-2.8749,-2.7205,-2.4429,-2.3975,0.0,0.0,0.0,0.0,0.0,0.0,0.0,0.0,0.0,0.0,0.0,0.0,0.0,0.0,0.0,0.0,0.0,0.0,0.0,0.0,0.0,0.0,0.0,0.0,0.0,0.0,0.0,0.0,0.0,0.0,0.0,0.0,0.0,0.0,0.0,0.0,0.0,0.0,0.0,0.0,0.0,0.0,0.0,0.0,0.0,0.0,0.0,0.0,0.0,0.0,0.0,0.0,0.0,0.0,0.0,0.0,0.0,0.0,0.0,0.0,0.0,0.0,0.0,0.0,-3.8966,-3.8808,-3.9075,-3.9542,-4.0067,-3.7912,-3.7021,-3.6904,0.0,0.0,0.0,0.0,0.0,0.0,0.0,0.0,0.0,0.0,0.0,0.0,0.0,0.0,0.0,0.0,0.0,0.0,0.0,0.0,-2.21,-2.2916,-2.3784,-2.4961,-2.6595,-2.6089,-2.6015,-2.6778,-2.6118,0.0,0.0,-2.5521,-2.5463,-2.5347,-2.5348,-2.578,-2.666,-2.8177,-2.9482,-3.0558,-3.0507,-3.0234,-2.9687,-2.7479,-2.6861,-2.7372,0.0,0.0,0.0,0.0,0.0,0.0,0.0,0.0,0.0,0.0,0.0,0.0,0.0,0.0,0.0,0.0,0.0,0.0,0.0,0.0,0.0,0.0,0.0,0.0,0.0,0.0,0.0,0.0,0.0,0.0,0.0,0.0,0.0,0.0,0.0,0.0,0.0,0.0,0.0,0.0,0.0,-2.8953,-2.9918,0.0,0.0,0.0,0.0,0.0,0.0,0.0,0.0,0.0,0.0,0.0,0.0,0.0,0.0,-4.1304,-4.3506,-4.4583,-4.4564,-4.5509,-4.5976,-4.5918,-4.4818,-4.4364,-4.4413,-4.3355,0.0,-3.8637,-3.6798,0.0,0.0,0.0,0.0,0.0,0.0,0.0,0.0,0.0,0.0,0.0,0.0,0.0,0.0,0.0,0.0,0.0,0.0,0.0,0.0,0.0,-2.5703,-2.6795,-2.7554,-2.817,-2.8062,-2.7002,-2.7043,-2.6684,-2.5749,-2.5691,-2.5697,-2.5703,-2.6172,-2.7343,-2.9194,-3.0903,-3.2175,-3.3025,-3.2499,-3.2519,-3.2927,-3.1304,-2.9986,-2.8785,-2.6697,0.0,0.0,0.0,0.0,0.0,0.0,0.0,0.0,0.0,0.0,0.0,0.0,0.0,0.0,0.0,0.0,0.0,0.0,0.0,0.0,0.0,0.0,0.0,0.0,0.0,0.0,0.0,0.0,0.0,0.0,0.0,0.0,0.0,0.0,0.0,0.0,0.0,0.0,0.0,-2.9001,-3.1673,-3.1505,-3.2343,-3.2377,0.0,0.0,0.0,0.0,0.0,0.0,0.0,0.0,0.0,-4.2747,-4.319,-4.3989,-4.5336,-4.6451,-4.6932,-4.6779,-4.7132,-4.7214,-4.7046,-4.6314,-4.5969,-4.5955,-4.5565,-4.4321,-4.2389,-3.9825,-3.8061,-3.6798,0.0,0.0,0.0,0.0,0.0,-3.5832,0.0,0.0,0.0,0.0,0.0,0.0,0.0,0.0,0.0,0.0,0.0,0.0,-2.5522,-2.7191,-2.8373,-2.8831,-2.98,-2.9683,0.0,0.0,-2.7314,-2.6095,-2.5823,-2.5793,-2.6035,-2.7304,-2.9136,-3.155,-3.3014,-3.4173,-3.5019,-3.4355,-3.4391,-3.4987,-3.4338,-3.2844,-3.068,-2.8739,-2.7418,0.0,0.0,0.0,0.0,0.0,0.0,0.0,0.0,0.0,0.0,0.0,0.0,0.0,0.0,0.0,0.0,0.0,0.0,0.0,0.0,0.0,0.0,0.0,0.0,0.0,0.0,0.0,0.0,0.0,0.0,0.0,0.0,0.0,0.0,0.0,0.0,0.0,0.0,-3.1813,-3.4134,-3.3462,-3.5072,-3.5448,0.0,0.0,0.0,0.0,0.0,0.0,-4.167,-4.2016,-4.3498,-4.6479,-4.6787,-4.749,-4.8759,-4.8971,-4.8837,-4.8336,-4.8062,-4.7791,-4.7517,-4.7023,-4.681,-4.6791,-4.6587,-4.603,-4.5082,-4.2407,-4.081,-3.99,-3.8488,-3.7949,-3.8037,-3.8618,-3.8971,-3.9273,0.0,0.0,0.0,0.0,0.0,0.0,0.0,0.0,0.0,0.0,0.0,-2.4618,-2.56,0.0,-2.887,-3.0526,-2.9997,-2.9854,0.0,0.0,-2.6958,-2.6947,-2.6148,-2.609,-2.6929,-2.9355,-3.1479,-3.326,-3.4193,-3.5077,-3.5936,-3.5827,-3.5807,-3.5845,-3.5795,-3.5237,-3.4172,-3.1661,-3.0061,-2.8985,0.0,0.0,0.0,0.0,0.0,0.0,0.0,0.0,0.0,0.0,0.0,0.0,0.0,0.0,0.0,0.0,0.0,0.0,0.0,0.0,0.0,0.0,0.0,0.0,0.0,0.0,0.0,0.0,0.0,0.0,0.0,0.0,0.0,0.0,0.0,0.0,0.0,0.0,0.0,-3.6877,-3.9018,0.0,0.0,0.0,0.0,-4.0054,-4.1027,-4.2662,-4.521,-4.6124,-4.7394,-4.9144,-5.0019,-5.0481,-5.0577,-5.1337,-5.1167,-5.0065,-4.9794,-4.9533,-4.923,-4.8145,-4.7644,-4.7608,-4.6828,-4.603,-4.5212,-4.4228,-4.3336,-4.2519,-4.1683,-4.1349,-4.1349,-4.1386,-4.1887,-4.2429,0.0,0.0,0.0,-1.9343,-2.0013,-2.0585,-2.0505,-2.1241,-2.2009,-2.2567,-2.4099,-2.5902,0.0,-2.9609,-3.1063,-3.2305,-3.261,-3.2143,-3.0825,0.0,-2.8573,-2.8611,-2.7774,-2.8239,-3.0249,-3.2263,-3.3891,-3.5075,-3.5951,-3.6797,-3.7596,-3.701,-3.7041,-3.7566,-3.757,-3.7392,-3.6908,-3.3782,-3.2272,-3.1704,-2.8578,-2.6595,0.0,0.0,0.0,0.0,0.0,0.0,0.0,0.0,0.0,0.0,0.0,0.0,0.0,0.0,0.0,0.0,0.0,0.0,0.0,0.0,0.0,0.0,0.0,0.0,0.0,0.0,0.0,0.0,0.0,0.0,0.0,0.0,0.0,0.0,0.0,0.0,0.0,-4.0337,-4.2155,0.0,-4.11,-4.2167,-4.3181,-4.3737,-4.5066,-4.674,-4.8769,-4.9183,-5.0106,-5.1798,-5.2145,-5.2318,-5.2318,-5.2587,-5.2258,-5.1291,-5.0849,-5.0304,-4.9622,-4.8824,-4.8463,-4.8463,-4.8166,-4.759,-4.6828,-4.6513,-4.5268,-4.354,-4.3262,-4.3132,-4.3132,-4.3132,-4.3305,-4.3447,-1.7456,-1.8448,0.0,-1.8913,-1.9839,-2.0586,-2.0505,-2.1491,-2.245,-2.3014,-2.4821,-2.6914,-2.9226,-3.0944,-3.2419,-3.3634,-3.3964,-3.3381,-3.1724,0.0,-2.9506,-2.9496,-2.9238,-3.0307,-3.2929,-3.4409,-3.5707,-3.6872,-3.7161,-3.7558,-3.8041,-3.7163,-3.7074,-3.7642,-3.7935,-3.8227,-3.8344,-3.6084,-3.4606,-3.3573,-3.0998,-2.9264,-2.8035,0.0,0.0,0.0,0.0,0.0,0.0,0.0,0.0,0.0,0.0,0.0,0.0,0.0,0.0,0.0,0.0,0.0,0.0,0.0,0.0,0.0,0.0,0.0,0.0,0.0,0.0,0.0,0.0,0.0,0.0,0.0,0.0,0.0,0.0,0.0,-4.2095,-4.2572,-4.463,-4.5595,-4.458,-4.5982,-4.7163,-4.7691,-4.8759,-5.001,-5.1471,-5.1529,-5.2049,-5.3164,-5.3491,-5.351,-5.3203,-5.3491,-5.3161,-5.2184,-5.1459,-5.0742,-5.0048,-4.9253,-4.8909,-4.8909,-4.8909,-4.8444,-4.7701,-4.7701,-4.6568,-4.4822,-4.4544,-4.4265,-4.4005,-4.4005,-4.3974,-4.3913,-1.6577,-1.7986,-1.8915,-1.8171,-1.9469,-2.0586,-2.0505,-2.1978,-2.3093,-2.3092,-2.5349,-2.757,-2.9216,-3.0956,-3.2691,-3.4403,-3.3758,-3.3287,-3.3356,-3.0937,-2.953,-2.9574,-3.0492,-3.2181,-3.4724,-3.5661,-3.6946,-3.863,-3.7786,-3.7344,-3.7261,-3.6384,-3.6005,-3.6067,-3.6905,-3.7759,-3.8578,-3.8578,-3.7097,-3.4683,-3.3826,-3.244,-3.0684,0.0,0.0,0.0,0.0,0.0,0.0,0.0,0.0,0.0,0.0,0.0,0.0,0.0,0.0,0.0,0.0,0.0,0.0,0.0,0.0,0.0,0.0,0.0,0.0,0.0,0.0,0.0,0.0,0.0,0.0,0.0,0.0,0.0,-3.8753,-4.1542,-4.362,-4.3677,-4.6453,-4.8052,-4.7229,-4.8591,-5.0183,-5.1827,-5.1942,-5.2308,-5.3203,-5.3241,-5.326,-5.328,-5.4107,-5.4126,-5.3299,-5.4126,-5.3972,-5.2841,-5.1718,-5.0998,-5.0626,-4.9486,-4.8945,-4.8945,-4.8927,-4.8463,-4.7738,-4.7738,-4.7256,-4.6457,-4.5621,-4.4785,-4.4042,-4.4005,-4.4005,-4.3974,-1.6466,-1.75,-1.8405,-1.8853,-1.9859,-2.0586,-2.0505,-2.1978,-2.3093,-2.3092,-2.5834,-2.8193,-2.9343,-3.0944,-3.24,-3.3553,-3.2856,-3.2373,-3.2385,-3.0567,-3.0068,-3.1329,-3.4038,-3.5859,-3.6579,-3.8017,-3.8986,-3.9468,-3.9231,-3.91,-3.9062,-3.8198,-3.8121,-3.8738,-3.8972,-3.956,-4.039,-4.039,-3.961,-3.8188,-3.6064,-3.4194,-3.2557,0.0,0.0,0.0,0.0,0.0,0.0,0.0,0.0,0.0,0.0,0.0,0.0,0.0,0.0,0.0,0.0,0.0,0.0,0.0,0.0,0.0,0.0,0.0,0.0,0.0,0.0,0.0,0.0,0.0,0.0,0.0,0.0,-4.2258,-4.2161,-4.4023,-4.602,-4.7708,-4.9207,-5.0234,-5.0519,-5.151,-5.2356,-5.2818,-5.2837,-5.3222,-5.4107,-5.4145,-5.4414,-5.4991,-5.5241,-5.5261,-5.5011,-5.5241,-5.4932,-5.404,-5.3465,-5.2844,-5.215,-5.0753,-5.0129,-5.0094,-4.9252,-4.8779,-4.8574,-4.8574,-4.8091,-4.7237,-4.5844,-4.5138,-4.4859,-4.4228,-4.3945,-4.3835,-1.6505,-1.7564,-1.8586,-1.9183,-2.0015,-2.0586,-2.0505,-2.1983,-2.3103,-2.3093,-2.6045,-2.8488,-2.9357,-3.0617,-3.1766,-3.2678,-3.1974,-3.1337,-3.0987,-3.0382,-3.1141,-3.3627,-3.5664,-3.7262,-3.8312,-3.9298,-3.9976,-4.0346,-3.9987,-3.9799,-3.9764,-3.8555,-3.8452,-3.9256,-3.9263,-3.9735,-4.0571,-4.0941,-4.0604,-3.9669,-3.8149,-3.6512,-3.4856,-3.3624,-3.2613,-3.178,-3.0903,-3.0353,-2.9976,-2.9467,0.0,0.0,0.0,0.0,0.0,0.0,0.0,0.0,0.0,0.0,0.0,0.0,0.0,0.0,0.0,0.0,0.0,0.0,0.0,0.0,0.0,0.0,0.0,0.0,-4.3576,-4.5454,-4.6056,-4.7008,-4.8149,-4.9443,-5.0574,-5.1567,-5.2356,-5.3241,-5.3876,-5.4222,-5.4241,-5.4472,-5.4972,-5.4991,-5.5222,-5.5684,-5.5703,-5.5703,-5.5703,-5.5703,-5.5472,-5.4991,-5.4307,-5.3759,-5.3256,-5.18,-5.0948,0.0,-4.975,-4.9206,-4.8909,-4.8909,-4.863,0.0,0.0,0.0,0.0,0.0,-4.3913,-4.3788,-1.6879,-1.8088,-1.9167,-1.9393,-2.0072,-2.0586,-2.0526,-2.199,-2.3097,-2.3104,0.0,-2.8327,-2.9055,-2.9883,-3.0755,-3.1634,-3.1076,-3.0412,0.0,-3.0785,-3.2766,-3.5878,-3.6286,-3.7492,-3.9741,-3.9897,-4.0327,-4.1109,-4.0327,-3.9907,-3.9762,-3.8278,-3.7968,-3.865,-3.8655,-3.9132,-4.0005,-4.0766,-4.0649,-3.9947,-3.9844,-3.8753,-3.7038,-3.548,-3.4386,-3.356,-3.2694,-3.1951,-3.1359,-3.1251,0.0,0.0,0.0,0.0,0.0,0.0,0.0,0.0,0.0,0.0,0.0,0.0,0.0,0.0,0.0,0.0,0.0,0.0,0.0,0.0,0.0,0.0,0.0,0.0,-4.627,-4.8358,-4.985,-5.0143,-5.0112,-4.9896,-5.1143,-5.2385,-5.326,-5.4126,-5.4934,-5.5645,-5.5703,-5.5742,-5.5838,0.0,0.0,0.0,0.0,-5.5799,-5.5703,-5.5703,-5.5703,-5.5684,-5.4668,-5.4178,-5.4146,-5.2778,-5.1701,-5.0905,-5.0379,-4.9724,-4.9039,-4.8946,-4.8909,-4.8816,-4.7906,-4.6643,-4.5194,-4.4321,-4.3913,0.0,-1.8598,-1.8882,-1.9354,-2.0131,-2.0449,-2.0599,-2.0585,-2.2012,-2.3105,-2.3098,-2.5464,-2.7234,-2.7438,-2.8143,-2.8971,-2.9893,-2.9842,-3.0275,0.0,0.0,-3.5308,-3.5975,-3.7963,-3.9295,-3.98,-4.0483,-4.0934,-4.1109,-4.0934,-4.0486,-3.9786,-3.9474,-3.9406,-3.955,-3.9551,-4.0037,-4.0868,-4.1039,-4.1005,-4.0788,-4.0073,-3.8753,-3.7155,-3.6824,-3.6162,-3.5302,-3.4425,-3.4464,-3.4815,-3.4094,-3.3431,-3.2837,-3.2502,0.0,0.0,0.0,0.0,0.0,0.0,0.0,0.0,0.0,0.0,0.0,0.0,0.0,0.0,0.0,0.0,0.0,0.0,0.0,0.0,-4.7213,-4.9274,-5.0739,-5.1543,-5.2253,-5.239,-5.1539,-5.2338,-5.3299,-5.4164,-5.4991,-5.553,-5.5684,-5.5703,-5.6011,-5.6714,-5.6753,0.0,-5.6753,-5.6753,-5.6406,-5.5703,-5.5703,-5.5703,-5.5703,0.0,0.0,-5.533,-5.4148,-5.3365,-5.2937,-5.124,-5.026,-4.9819,-4.9169,-4.8909,-4.876,-4.7293,-4.6141,-4.5194,-4.4321,-4.3961,-4.3883,-1.9615,-1.9724,-1.9912,-2.0416,-2.0561,-2.0597,-2.0604,-2.2029,-2.3104,-2.3103,-2.5326,-2.6929,-2.6983,-2.7303,-2.7699,-2.8169,-2.86,0.0,0.0,-3.4147,-3.5917,-3.7207,-3.8896,-3.9995,-4.0444,-4.0875,-4.1109,-4.1109,-4.1109,-4.0875,-4.0444,-3.9995,-4.002,-4.0421,-3.9997,-4.0273,-4.1093,-4.1102,-4.1094,-4.1054,-4.0633,-3.9415,-3.7792,-3.7369,-3.6651,-3.583,-3.5419,-3.5538,-3.583,-3.5402,-3.4988,-3.4579,-3.4177,-3.2845,-3.1289,0.0,0.0,0.0,0.0,0.0,0.0,0.0,0.0,0.0,0.0,0.0,0.0,0.0,0.0,-4.0649,-4.3614,0.0,-4.7392,-4.9513,-5.1225,-5.2414,-5.2713,-5.3065,-5.3099,-5.2616,-5.3318,-5.401,-5.4453,-5.5222,-5.5703,-5.5703,-5.6088,-5.6541,-5.6983,-5.7415,-5.7646,-5.7646,-5.7646,-5.7223,-5.6368,-5.6349,-5.6126,-5.5703,-5.5703,-5.5703,-5.5684,-5.4966,-5.428,-5.3537,-5.2369,-5.1187,-5.0042,-4.9243,-4.8909,-4.8742,-4.7125,-4.6252,-4.5751,-4.4469,-4.3961,-4.3899,-2.0158,-2.0346,-2.0411,-2.0464,-2.0535,-2.0573,-2.0602,-2.2024,-2.3098,-2.3105,-2.5166,-2.6679,-2.6737,-2.6695,-2.6722,0.0,0.0,0.0,0.0,-3.4193,-3.6348,-3.8416,-3.9498,-4.0385,-4.109,-4.1109,-4.1109,-4.1109,-4.1109,-4.1109,-4.109,-4.0385,-4.0424,-4.107,-4.0363,-4.0446,-4.111,-4.1093,-4.1091,-4.1091,-4.1108,-4.0052,-3.8429,-3.7728,-3.6818,-3.5908,-3.5908,-3.5802,-3.5697,-3.5853,-3.5795,-3.5581,-3.5091,-3.4355,-3.3377,-3.1978,-3.1191,0.0,0.0,0.0,0.0,0.0,0.0,0.0,0.0,0.0,-3.8344,-4.1489,-4.2813,-4.4096,-4.6252,-4.8454,-5.024,-5.1076,-5.2562,-5.3627,-5.3612,-5.3649,-5.3626,-5.3472,-5.4068,-5.4549,-5.4722,-5.5318,-5.5761,-5.5934,-5.6599,-5.7137,-5.7464,-5.8146,-5.8531,-5.8531,-5.8531,-5.8127,-5.7272,-5.708,-5.6656,-5.5953,-5.578,-5.5703,-5.5684,-5.5473,-5.4815,-5.3787,-5.3064,-5.1737,-5.0042,-4.9243,-4.8909,-4.8742,-4.7125,-4.6494,-4.629,-4.4618,-4.4069,-4.4103,-2.0279,-2.0355,-2.0402,-2.0407,-2.0462,-2.0533,-2.0593,-2.2019,-2.3093,-2.3095,-2.4647,-2.5768,-2.5835,-2.5795,-2.6065,-2.6827,0.0,0.0,-3.2083,-3.5858,-3.8202,-3.8494,-4.0084,-4.0992,-4.1109,-4.1109,-4.1109,-4.1109,-4.1109,-4.1109,-4.1109,-4.0992,-4.1012,-4.1109,-4.0995,-4.1015,-4.1094,-4.1109,-4.1093,-4.1093,-4.1091,-4.0052,-3.8489,-3.8397,-3.7336,-3.5908,-3.5908,-3.5442,-3.495,-3.5655,-3.542,-3.4954,-3.5644,-3.5253,-3.4529,-3.4321,-3.2617,-3.1093,-3.2459,-3.3593,-3.4998,-3.74,-3.7518,-3.8404,0.0,0.0,-4.3381,-4.5978,-4.7195,-4.8128,-4.9171,-5.0181,-5.1108,-5.1854,-5.3382,-5.4434,-5.4399,-5.4993,-5.5164,-5.4434,-5.4434,-5.478,-5.5491,-5.5645,-5.6011,-5.681,-5.6945,-5.7657,-5.9146,-5.9319,-5.9377,-5.9377,-5.9377,-5.8973,-5.8165,-5.7376,-5.6945,-5.6849,-5.6069,-5.5703,-5.5703,-5.5662,-5.5287,-5.4534,-5.2495,-5.1007,-5.0042,-4.9243,-4.8909,-4.8742,-4.7125,-4.6494,-4.629,-4.4618,-4.4406,-4.4844,-2.0292,-2.0321,-2.0358,-2.0395,-2.0494,-2.074,-2.1274,-2.235,-2.3287,-2.3793,-2.4901,-2.5662,-2.57,-2.5668,-2.5806,-2.6165,-2.8886,-3.0794,-3.1304,-3.4921,-3.7479,-3.8455,-3.9674,-4.0581,-4.109,-4.1109,-4.1109,-4.1109,-4.1109,-4.1109,-4.1109,-4.1109,-4.1109,-4.1109,-4.1109,-4.1109,-4.1109,-4.1098,-4.1101,-4.1102,-4.1108,-4.0075,-3.8552,-3.8514,-3.7129,-3.5193,-3.5195,-3.4981,0.0,0.0,-3.4218,-3.4004,-3.4375,-3.3883,-3.329,-3.379,-3.3534,-3.3651,-3.6384,-3.7399,-3.816,-4.0288,-4.1303,-4.2405,-4.4806,-4.4786,-4.4939,-4.7346,-4.814,-4.8771,-5.0082,-5.1391,-5.2389,0.0,-5.415,-5.5229,-5.5194,-5.5068,-5.4876,-5.453,-5.4491,-5.4626,-5.4972,-5.5434,-5.6049,-5.6926,-5.7473,-5.8261,-5.9435,-5.9973,-6.0262,-6.0262,-6.0262,-5.9858,-5.9011,-5.8646,-5.7973,-5.7003,-5.6637,-5.6195,-5.5703,-5.5703,-5.5382,-5.4682,-5.2604,-5.137,-5.0748,-4.9447,-4.8909,-4.8797,-4.7646,-4.72,-4.694,-4.4785,-4.4165,-4.4344,-2.0327,-2.0328,-2.0352,-2.0411,-2.0529,-2.0886,-2.1763,-2.2584,-2.3404,-2.428,-2.5151,-2.5703,-2.57,-2.5703,-2.5704,-2.5704,-2.8046,-2.9794,-3.0401,-3.3926,-3.6538,-3.7768,-3.9085,-4.0093,-4.0738,-4.0973,-4.1109,-4.1109,-4.1109,-4.1109,-4.1109,-4.1109,-4.1109,-4.1109,-4.1109,-4.1109,-4.1109,-4.1109,-4.0953,-4.0738,-4.0738,-3.9743,-3.8201,-3.7927,-3.6519,-3.4707,-3.4707,-3.4394,0.0,0.0,-3.3045,-3.3044,-3.3044,-3.2765,-3.2714,-3.4081,-3.5428,-3.6891,-3.8921,-3.9976,-4.0873,-4.2376,-4.3851,-4.498,-4.5087,-4.5261,-4.5885,-4.7576,-4.8102,-4.866,-5.0077,-5.1529,-5.2664,-5.3126,-5.4414,-5.5453,-5.5665,-5.5011,-5.4491,-5.4491,-5.4491,-5.4491,-5.4491,-5.5222,-5.6049,-5.6926,-5.7819,-5.8646,-5.9454,-6.0319,-6.08,-6.08,-6.08,-6.0492,-5.9858,-5.9627,-5.8781,-5.7368,-5.7118,-5.6541,-5.5703,-5.5618,-5.5307,-5.4682,-5.273,-5.1711,-5.1268,-4.9596,-4.8909,-4.8816,-4.8017,-4.7553,-4.7125,-4.5101,-4.4294,-4.4163,-2.0372,-2.0407,-2.0413,-2.0492,-2.054,-2.0886,-2.1763,-2.2584,-2.3404,-2.428,-2.5151,-2.5703,-2.57,-2.57,-2.5699,-2.5699,-2.8086,-2.9588,-2.9549,-3.3581,-3.6013,-3.6072,-3.8473,-3.9819,-3.9839,-4.0678,-4.1109,-4.1109,-4.1109,-4.1109,-4.1109,-4.1109,-4.1109,-4.1109,-4.1109,-4.1109,-4.1109,-4.1109,-4.06,-3.9839,-3.9839,-3.8843,-3.7243,-3.6402,-3.5503,-3.4703,-3.4709,0.0,0.0,0.0,-3.2131,-3.213,-3.213,-3.2695,0.0,-3.6423,-3.8941,-4.0563,-3.906,-4.0444,-4.2533,-4.343,-4.4236,-4.4986,-4.5697,-4.6429,-4.6935,-4.6938,-4.7548,-4.8375,-4.926,-5.0164,-5.1298,-5.2933,-5.3953,-5.4799,-5.5588,-5.5011,-5.4491,-5.4491,-5.4491,-5.4491,0.0,-5.5222,-5.6049,-5.6926,-5.7819,-5.8646,-5.9454,-6.0319,-6.08,-6.08,-6.08,-6.0781,-6.0762,-5.9915,-5.9088,-5.8261,-5.7396,-5.6541,-5.5703,-5.5425,-5.5124,-5.4682,-5.273,-5.1711,-5.1268,-4.9596,-4.8909,-4.8816,-4.8017,-4.7218,-4.642,-4.5565,-4.5152,-4.4857,-2.1071,-2.1191,-2.1399,-2.2058,-2.2187,-2.2504,-2.3419,-2.3305,-2.3618,-2.5062,-2.5522,0.0,0.0,0.0,0.0,0.0,-2.7031,-2.8103,-2.867,-3.1163,-3.3108,-3.4236,-3.6191,-3.7559,-3.8121,-3.9001,-3.943,-3.943,-3.943,-3.9704,-4.0249,-4.0249,-4.0542,-4.1109,-4.1109,-4.0777,-4.0249,-4.0249,-4.0405,-4.0561,-3.945,-3.898,-3.8804,-3.7399,-3.5602,-3.3764,0.0,0.0,0.0,-2.9943,-2.9962,-3.0432,-3.0432,0.0,0.0,-3.5504,-3.7867,-3.9684,-4.0815,-4.2162,-4.3469,-4.4348,-4.5111,-4.5706,-4.5867,-4.6054,-4.6336,-4.6795,-4.7115,-4.7567,-4.8375,-4.9721,-5.1048,-5.2154,-5.3549,-5.478,-5.5588,-5.5472,-5.5107,-5.4549,-5.4972,0.0,0.0,0.0,0.0,-5.6926,-5.7819,-5.8646,-5.9454,-6.0319,-6.08,-6.08,-6.08,-6.08,-6.08,-6.0512,-5.9665,-5.828,-5.6819,-5.5972,-5.5703,-5.5607,-5.5413,-5.5015,-5.3025,-5.2011,-5.158,-4.9682,-4.8909,-4.8872,-4.8612,-4.7683,-4.6475,-4.6197,-4.5333,-4.4237,-2.1427,-2.162,-2.1925,-2.2836,-2.3028,0.0,0.0,0.0,0.0,0.0,0.0,0.0,0.0,0.0,0.0,0.0,0.0,-2.7241,-2.7808,-2.9463,-3.104,-3.2401,-3.3831,-3.5002,-3.5896,-3.6755,-3.7361,-3.7672,-3.7986,-3.8552,-3.937,-3.937,-3.9663,-4.0211,-4.0211,-3.9899,-3.937,-3.937,-3.9507,-3.9626,-3.8238,-3.7789,-3.7789,-3.609,-3.441,0.0,0.0,0.0,0.0,-2.8771,-2.9064,-3.0021,-3.0021,-3.166,0.0,-3.6617,-3.9039,-4.1303,-4.3255,-4.4192,-4.4836,-4.5714,-4.5975,-4.6,-4.592,-4.5809,-4.5862,-4.6343,-4.6432,-4.6682,-4.7528,-4.8586,-4.9923,-5.1683,-5.2916,-5.4246,-5.599,-5.573,-5.5469,-5.5829,-5.5761,-5.5742,0.0,-5.6338,0.0,-5.6541,-5.7896,-5.8838,-5.9069,-6.0165,-6.08,-6.08,-6.08,-6.08,-6.08,-6.08,-5.9954,-5.828,-5.653,-5.5703,-5.5703,-5.5703,-5.5562,-5.5193,-5.3301,-5.2262,-5.1743,-4.9849,-4.901,-4.8909,-4.8909,-4.7924,-4.6494,-4.6494,-4.5389,-4.3851,-2.1506,-2.1753,-2.2108,0.0,0.0,0.0,0.0,0.0,0.0,0.0,0.0,0.0,0.0,0.0,0.0,0.0,0.0,0.0,-2.6938,-2.8519,0.0,-3.0566,-3.1524,-3.2422,-3.324,-3.4159,-3.5037,-3.5875,-3.6696,-3.7555,-3.8396,-3.8396,-3.8415,-3.8474,-3.8474,-3.8435,-3.8396,-3.8396,-3.7947,-3.7145,-3.6246,-3.5426,-3.4588,-3.2826,0.0,0.0,0.0,0.0,0.0,-2.8713,-2.959,-3.1074,-3.1171,0.0,0.0,-3.9741,-4.2337,-4.5148,-4.6105,-4.6378,-4.6573,-4.7391,-4.678,-4.5944,-4.5899,-4.5735,-4.5594,-4.5537,-4.5537,-4.5768,-4.6518,-4.6778,-4.8004,-5.1354,-5.2055,-5.3343,-5.6729,-5.5868,-5.5719,0.0,0.0,0.0,0.0,0.0,0.0,-5.5953,0.0,-5.9165,-5.8396,-5.9915,-6.08,-6.08,-6.08,-6.08,-6.08,-6.0704,-5.9877,-5.828,-5.653,-5.5703,-5.5703,-5.5703,-5.5562,-5.5231,-5.3536,-5.2477,-5.1823,-5.0122,-4.9222,-4.8926,-4.8926,-4.7923,-4.6494,-4.6494,-4.5375,-4.3804,0.0,0.0,0.0,0.0,0.0,0.0,0.0,0.0,0.0,0.0,0.0,0.0,0.0,0.0,0.0,0.0,0.0,0.0,-2.6039,-2.7058,0.0,0.0,0.0,-3.1294,-3.1464,-3.2947,-3.3845,0.0,0.0,-3.4842,-3.5683,-3.5683,-3.6033,-3.6657,-3.6657,-3.6306,-3.5683,-3.5683,-3.5935,-3.6207,0.0,-3.4704,-3.5485,0.0,0.0,0.0,0.0,0.0,0.0,-3.0234,-3.2167,-3.4899,0.0,-3.7946,-3.9917,-4.2064,-4.3333,-4.4504,-4.669,-4.7276,-4.7313,-4.7547,-4.7228,-4.6701,-4.606,-4.5735,-4.5421,-4.4759,-4.4624,-4.4331,-4.3354,-4.5211,0.0,-4.9006,-5.1313,0.0,-5.6654,-5.7231,0.0,-5.8223,0.0,-5.8473,-5.8319,-5.8838,0.0,0.0,-5.88,-5.9415,-5.9204,-6.0204,-6.08,-6.08,-6.08,-6.08,-6.08,-5.955,-5.8723,-5.828,-5.653,-5.5703,-5.5703,-5.5703,-5.5651,-5.55,-5.3621,-5.2717,-5.241,-5.0491,-4.9525,-4.9255,-4.9255,-4.8138,-4.6494,-4.6494,-4.5389,-4.3867,0.0,0.0,0.0,0.0,0.0,0.0,0.0,0.0,0.0,0.0,0.0,0.0,0.0,0.0,0.0,0.0,0.0,0.0,0.0,-2.6159,0.0,0.0,0.0,-2.8775,-2.9123,-3.0841,-3.1738,0.0,0.0,0.0,0.0,-3.4139,-3.4392,-3.486,-3.486,-3.4587,-3.4139,-3.4139,0.0,0.0,0.0,0.0,0.0,0.0,0.0,0.0,0.0,0.0,0.0,-3.3964,-3.5525,-3.7516,-3.9605,-4.0581,-4.1381,-4.3626,0.0,-4.5812,-4.7627,-4.8406,-4.8601,-4.8213,-4.7657,-4.6886,-4.5686,-4.5221,-4.4705,-4.3576,-4.3284,-4.2871,-4.1634,-4.354,-4.5831,0.0,0.0,0.0,-5.6637,-5.7505,-5.8216,0.0,-5.9454,0.0,-5.9396,-5.98,-5.9877,0.0,-5.9819,-5.9896,-5.9511,-6.0319,-6.08,-6.08,-6.08,-6.0608,-6.0223,-5.8954,-5.8107,-5.7703,-5.6338,-5.5703,-5.5703,-5.5703,-5.5703,-5.5607,0.0,-5.2905,-5.2645,-5.0767,-4.9817,-4.9554,-4.9442,-4.8294,-4.6647,-4.6541,-4.5372,-4.3851,0.0,0.0,0.0,0.0,0.0,0.0,0.0,0.0,0.0,-2.6022,-2.5848,-2.5692,-2.5708,-2.5692,0.0,0.0,0.0,0.0,0.0,0.0,0.0,0.0,-2.6215,-2.6235,-2.6977,-2.8597,-2.9475,0.0,0.0,0.0,0.0,0.0,0.0,0.0,0.0,0.0,0.0,0.0,0.0,0.0,0.0,0.0,0.0,0.0,0.0,0.0,0.0,0.0,-3.5992,-3.8181,-3.9099,-3.9684,-4.2006,-4.2825,-4.3235,-4.4873,-4.6415,-4.7801,-4.872,-4.952,-4.9889,-4.9013,-4.8096,-4.6941,-4.5204,-4.4482,-4.374,-4.2239,-4.1734,-4.1311,-4.0476,-4.1817,-4.3892,-4.6449,0.0,-5.2182,-5.6422,-5.7108,-5.8027,-6.0342,-6.0069,-5.9973,-6.0723,-6.08,-6.08,-6.08,-6.08,-6.0473,-5.9704,-6.0396,-6.08,-6.08,-6.0685,-6.0262,-5.9511,-5.8588,-5.7742,-5.6983,-5.6107,-5.5703,-5.5703,-5.5703,-5.5703,-5.5607,0.0,0.0,-5.2724,-5.0979,-5.0099,-4.983,-4.9602,-4.8495,-4.702,-4.6688,-4.5444,-4.3952,0.0,0.0,0.0,0.0,0.0,0.0,0.0,0.0,0.0,0.0,0.0,0.0,0.0,0.0,0.0,0.0,0.0,0.0,0.0,0.0,0.0,-2.5922,-2.6469,-2.684,-2.6996,-2.7991,0.0,0.0,0.0,0.0,0.0,0.0,0.0,0.0,0.0,0.0,0.0,0.0,0.0,0.0,0.0,0.0,0.0,0.0,0.0,0.0,0.0,-3.3338,-3.4548,-3.9138,-4.1617,-4.3021,-4.4172,-4.5031,-4.5812,-4.6845,-4.7352,-4.7938,-4.946,-4.9987,-4.9889,-4.9013,-4.8619,-4.7802,-4.5351,-4.4151,0.0,-4.1383,-4.0437,-3.9474,-3.8007,-4.0228,-4.2897,-4.4741,-4.7694,-5.1211,-5.5382,-5.6575,-5.769,0.0,-6.0223,-6.0627,-6.0781,-6.08,0.0,0.0,0.0,0.0,-6.0569,-6.0723,-6.08,-6.08,-6.0108,-5.9646,-5.9492,-5.7992,-5.7157,-5.6983,-5.6107,-5.5703,-5.5703,-5.5703,-5.5703,-5.5607,0.0,0.0,-5.2997,-5.1306,-5.0421,-5.0135,-5.0087,-4.9165,-4.7819,-4.7084,-4.5969,-4.4709,0.0,0.0,0.0,0.0,0.0,0.0,0.0,0.0,0.0,0.0,-2.863,0.0,0.0,0.0,0.0,0.0,0.0,0.0,0.0,0.0,0.0,0.0,0.0,-2.6524,-2.6932,0.0,0.0,0.0,0.0,0.0,0.0,0.0,0.0,0.0,0.0,0.0,0.0,0.0,0.0,0.0,0.0,0.0,0.0,0.0,0.0,0.0,0.0,-3.3319,-3.451,-3.7462,-4.0174,-4.2749,-4.4972,-4.5968,-4.6475,-4.7332,-4.7899,-4.8505,-4.9753,-5.0436,-5.0457,-4.913,-4.8744,-4.7807,-4.4345,0.0,0.0,-3.9393,-3.8238,-3.7368,-3.6655,-3.8901,-4.14,-4.3084,-4.5737,-4.9196,-5.385,-5.5249,-5.6724,-5.9215,-6.0335,-6.0877,-6.0812,-6.08,0.0,0.0,0.0,0.0,-6.08,-6.08,-6.08,-6.08,-5.9954,-5.93,-5.8877,-5.7627,-5.6772,-5.6329,-5.5895,-5.5703,-5.5703,-5.5703,-5.5703,-5.5607,0.0,0.0,-5.3068,-5.1395,-5.0604,-5.0442,-5.0272,-4.9529,-4.8452,-4.7459,-4.6307,-4.5095,0.0,0.0,0.0,0.0,0.0,0.0,0.0,-2.789,-2.8964,-3.0019,-3.0742,-3.0976,-3.0467,-2.8691,0.0,0.0,0.0,0.0,0.0,0.0,0.0,0.0,0.0,0.0,0.0,0.0,0.0,0.0,0.0,0.0,0.0,0.0,0.0,0.0,0.0,0.0,0.0,0.0,0.0,0.0,0.0,0.0,0.0,0.0,0.0,0.0,0.0,0.0,-3.4122,-3.5747,-3.7933,-4.0605,-4.4099,-4.5561,-4.6163,-4.6845,-4.7764,-4.874,-4.9597,-5.0457,-5.075,-4.9189,-4.8752,-4.7618,-4.3365,-4.1457,-3.9963,-3.776,-3.637,-3.5642,-3.5946,-3.7747,-3.9848,-4.1863,-4.3943,-4.714,-5.2415,-5.4076,-5.5894,0.0,-6.0345,0.0,-6.0864,-6.0842,0.0,0.0,0.0,0.0,-6.08,-6.08,-6.0704,-6.0531,-5.9685,-5.8858,-5.803,-5.7146,-5.6387,-5.5703,-5.5703,-5.5703,-5.5703,-5.5703,-5.5703,-5.5607,0.0,0.0,0.0,-5.1395,-5.0712,-5.0673,-5.041,-4.9881,-4.9106,-4.7857,-4.6722,-4.5629,0.0,0.0,0.0,0.0,0.0,0.0,0.0,-2.8418,-3.0078,-3.1738,-3.2031,-3.2324,-3.2988,-3.084,0.0,0.0,0.0,0.0,0.0,0.0,0.0,0.0,0.0,0.0,0.0,0.0,0.0,0.0,0.0,0.0,0.0,0.0,0.0,0.0,0.0,0.0,0.0,0.0,0.0,0.0,0.0,0.0,0.0,0.0,0.0,0.0,0.0,0.0,-3.1863,-3.5846,-3.6864,-3.7062,-4.0499,-4.3205,-4.5146,-4.5224,0.0,0.0,-4.8701,-4.956,-4.9987,-4.9032,-4.8796,-4.7662,-4.337,0.0,-3.9391,-3.7661,-3.5969,-3.5056,-3.5857,-3.6833,-3.8542,-4.1686,-4.3049,-4.5741,-5.1569,-5.3831,-5.5851,-5.8464,0.0,0.0,-6.0993,0.0,0.0,0.0,0.0,0.0,0.0,-6.08,-6.0435,-5.9646,-5.8838,-5.7992,-5.7137,-5.6272,-5.578,-5.5703,-5.5703,-5.5703,-5.5703,-5.5703,-5.5703,-5.5607,0.0,0.0,0.0,-5.1395,-5.0712,-5.0712,-5.0663,-5.0415,-4.9901,-4.8254,-4.7395,-4.6763,0.0,0.0,0.0,0.0,0.0,0.0,0.0,-2.8027,-2.9434,-3.1191,-3.1875,-3.2324,-3.2637,-3.1777,0.0,0.0,0.0,0.0,0.0,0.0,0.0,0.0,0.0,0.0,0.0,0.0,0.0,0.0,0.0,0.0,0.0,0.0,0.0,0.0,0.0,0.0,0.0,0.0,0.0,0.0,0.0,0.0,0.0,0.0,0.0,0.0,0.0,0.0,0.0,0.0,0.0,0.0,-3.6206,-3.8624,-4.1664,0.0,-4.5854,-4.712,-4.8447,-4.9052,-4.913,-4.8291,-4.7689,-4.6306,-4.248,-4.0299,-3.8584,-3.6867,-3.5543,-3.4979,-3.5838,-3.6718,-3.8064,-4.0436,-4.1035,-4.312,-4.8576,-4.9958,-5.2052,-5.6602,-5.8258,0.0,0.0,0.0,0.0,0.0,0.0,0.0,0.0,-6.08,-6.0396,-5.9531,-5.8723,-5.7877,-5.7003,-5.6137,-5.5703,-5.5703,-5.5703,-5.5703,-5.5703,-5.5703,-5.5434,-5.4914,0.0,0.0,0.0,-5.1164,-5.0712,-5.0712,-5.0712,-5.0614,-5.037,-4.9161,-4.8176,-4.7225,0.0,0.0,0.0,0.0,0.0,0.0,-2.6875,-2.7734,-2.8926,-3.0664,-3.1426,-3.1914,-3.2168,-3.1973,-3.1328,-3.0098,0.0,0.0,0.0,0.0,0.0,0.0,0.0,0.0,0.0,0.0,0.0,-3.1797,0.0,0.0,0.0,0.0,0.0,0.0,0.0,0.0,0.0,0.0,0.0,0.0,0.0,0.0,0.0,0.0,0.0,0.0,0.0,0.0,0.0,0.0,0.0,-3.3883,-3.3514,-3.5251,-3.8235,-4.2289,-4.4432,-4.5893,-4.7609,-4.8252,-4.831,-4.7746,-4.6931,-4.5393,-4.1881,-3.9797,-3.8101,-3.6363,-3.5311,-3.496,-3.5839,-3.6504,-3.7578,-3.9569,-4.0028,-4.1823,-4.6777,-4.8106,-5.0306,0.0,0.0,0.0,0.0,0.0,0.0,0.0,0.0,0.0,0.0,-6.0416,-6.0031,-5.9165,-5.8357,-5.7492,-5.6618,-5.6011,-5.5818,-5.6069,-5.5818,-5.5838,-5.6069,-5.5818,-5.5261,0.0,0.0,0.0,0.0,-5.1029,-5.0712,-5.0712,-5.0712,-5.0712,-5.0596,-4.9721,-4.87,-4.7559,0.0,0.0,0.0,0.0,0.0,0.0,0.0,-2.7734,-2.8926,-3.0664,-3.0918,-3.123,-3.2109,-3.1426,-3.0918,-3.0898,0.0,0.0,0.0,0.0,0.0,0.0,0.0,0.0,0.0,0.0,0.0,-3.1797,-3.1797,-3.2202,0.0,0.0,0.0,0.0,0.0,0.0,0.0,0.0,0.0,0.0,0.0,0.0,0.0,0.0,0.0,0.0,0.0,0.0,0.0,0.0,0.0,0.0,0.0,-3.4023,-3.5407,-3.8855,-4.1684,-4.4103,-4.5853,-4.6963,-4.7609,-4.7598,-4.6936,-4.5394,-4.1887,-3.9801,-3.8104,-3.6366,-3.5312,-3.4961,-3.584,-3.6016,-3.6875,-3.9473,-4.0566,-4.2615,-4.6989,-4.9774,-5.2012,0.0,0.0,0.0,0.0,0.0,0.0,0.0,0.0,0.0,0.0,0.0,-5.9146,-5.8338,-5.7473,-5.6599,-5.5722,-5.5703,-5.6126,-5.6983,-5.6107,-5.6145,-5.6964,-5.6088,0.0,0.0,0.0,0.0,0.0,-5.1029,-5.0712,-5.0712,-5.0712,-5.0712,-5.0596,-4.9721,-4.8846,-4.7864,0.0,0.0,0.0,0.0,0.0,0.0,0.0,0.0,-2.6933,-2.8086,-2.875,-2.9453,-3.0332,-3.0703,-3.0898,-3.0898,0.0,0.0,0.0,0.0,0.0,0.0,0.0,0.0,0.0,0.0,-3.1933,-3.3575,-3.4174,-3.4569,-3.4764,-3.4555,0.0,0.0,0.0,0.0,0.0,0.0,0.0,0.0,0.0,0.0,0.0,0.0,0.0,0.0,0.0,0.0,0.0,0.0,0.0,0.0,0.0,0.0,0.0,-3.4957,-3.8118,-4.1337,-4.2449,-4.3385,-4.3894,-4.3309,-4.2941,-4.2163,-3.9899,-3.8983,-3.8105,-3.6367,-3.5781,-3.5664,-3.5957,-3.5996,-3.7051,-4.0273,-4.0996,-4.2675,-4.6987,0.0,0.0,-5.4465,0.0,0.0,0.0,0.0,0.0,0.0,0.0,0.0,0.0,0.0,-5.7665,-5.7415,-5.7137,-5.6579,-5.5703,-5.5703,-5.5838,-5.6107,-5.5818,-5.5838,-5.6069,-5.5261,0.0,0.0,0.0,0.0,0.0,-5.0808,-5.0712,-5.0712,-5.0712,-5.0712,-5.0664,-5.0336,-4.9672,-4.8718,0.0,0.0,0.0,0.0,0.0,0.0,0.0,0.0,-2.6015,-2.6894,-2.7461,-2.8262,-2.9473,-3.0078,-3.0547,-3.0879,0.0,0.0,0.0,0.0,0.0,0.0,0.0,0.0,0.0,-3.1232,-3.2454,-3.4394,-3.4935,-3.5505,-3.6087,-3.581,-3.4505,-3.2349,0.0,0.0,0.0,0.0,0.0,0.0,0.0,0.0,-3.365,0.0,0.0,0.0,0.0,0.0,0.0,0.0,0.0,0.0,0.0,0.0,0.0,0.0,-3.5076,-3.7848,-3.9661,-4.1008,-4.179,-4.1244,-4.0875,-4.0291,-3.8905,-3.8359,-3.7715,-3.6289,-3.5996,-3.5996,-3.5996,-3.5996,-3.6934,-3.9766,-4.0762,-4.246,0.0,0.0,0.0,-5.4834,0.0,0.0,0.0,0.0,0.0,0.0,0.0,0.0,0.0,0.0,-5.6895,-5.6522,-5.6522,-5.6406,-5.6195,-5.6195,-5.6357,-5.6684,-5.6338,-5.6011,-5.5665,0.0,0.0,0.0,0.0,0.0,0.0,-5.0712,-5.0712,-5.0712,-5.0712,-5.0712,-5.0683,-5.0623,-5.0026,-4.9092,0.0,0.0,0.0,0.0,0.0,0.0,0.0,0.0,0.0,0.0,0.0,-2.7637,-2.9316,-2.9551,0.0,0.0,0.0,0.0,0.0,0.0,0.0,0.0,0.0,0.0,0.0,-3.0828,-3.2072,-3.4497,-3.4622,-3.5512,-3.7085,-3.6336,-3.5071,-3.3353,-3.2625,0.0,0.0,0.0,0.0,0.0,-3.123,-3.1426,0.0,0.0,0.0,0.0,0.0,0.0,0.0,0.0,0.0,0.0,0.0,0.0,0.0,0.0,0.0,0.0,0.0,-3.9368,-4.0639,-4.0564,-4.0037,-3.9296,-3.8437,-3.7656,0.0,-3.6074,-3.5918,-3.5957,-3.6152,-3.6133,-3.6738,-3.873,-4.0351,0.0,0.0,-4.8354,0.0,0.0,0.0,0.0,0.0,0.0,0.0,0.0,0.0,0.0,0.0,0.0,0.0,-5.5754,-5.5771,-5.6156,-5.6907,-5.6964,-5.7376,-5.8107,-5.7242,-5.6406,-5.5588,0.0,0.0,0.0,0.0,0.0,0.0,-5.0712,-5.0712,-5.0712,-5.0712,-5.0712,-5.0683,-5.0623,-5.0054,-4.9137,0.0,0.0,0.0,0.0,0.0,0.0,0.0,0.0,0.0,0.0,0.0,-2.7402,-2.8496,-2.9199,0.0,0.0,0.0,0.0,0.0,0.0,0.0,0.0,0.0,0.0,0.0,-3.2026,-3.361,-3.5477,-3.6763,-3.7953,-3.9041,-3.8892,-3.7201,-3.4282,-3.4153,0.0,0.0,0.0,0.0,0.0,-3.123,-3.1426,0.0,0.0,0.0,0.0,-3.1133,-3.1074,0.0,0.0,0.0,0.0,0.0,0.0,0.0,0.0,-3.1816,-3.2656,-3.3476,0.0,-3.6035,-3.5371,-3.5566,-3.5683,0.0,-3.498,-3.5254,-3.5059,-3.5019,-3.5625,-3.7617,-3.7441,-3.8418,-4.2793,0.0,0.0,-4.8354,0.0,0.0,0.0,0.0,0.0,0.0,0.0,0.0,0.0,0.0,0.0,0.0,0.0,0.0,-5.5883,-5.6394,-5.6483,-5.6011,-5.6676,-5.6772,-5.6299,-5.5472,-5.4972,-5.4722,0.0,0.0,0.0,0.0,0.0,-5.0712,-5.0712,-5.0712,-5.0712,-5.0712,-5.0712,-5.0683,-5.0623,-5.0458,-5.012,0.0,0.0,0.0,0.0,0.0,0.0,0.0,0.0,0.0,0.0,0.0,0.0,0.0,0.0,0.0,0.0,0.0,0.0,0.0,0.0,0.0,0.0,0.0,0.0,-3.0742,-3.2038,-3.3727,-3.5791,-3.7075,-3.84,-3.9694,-3.9763,-3.8159,-3.5153,-3.4041,0.0,0.0,0.0,0.0,0.0,-3.1094,0.0,0.0,0.0,0.0,0.0,-3.0898,-3.0898,0.0,-3.1367,-3.123,-3.0976,0.0,0.0,0.0,0.0,-3.123,-3.1601,-3.1601,-3.3691,-3.5781,-3.5312,-3.584,-3.6367,-3.5898,-3.5527,-3.5293,-3.5293,-3.5293,-3.5976,-3.8184,-3.8203,-3.9199,-4.3164,-4.4081,0.0,0.0,0.0,0.0,0.0,0.0,0.0,0.0,0.0,0.0,0.0,0.0,0.0,0.0,0.0,0.0,0.0,-5.6713,-5.6847,-5.631,-5.6772,-5.656,-5.5684,-5.5261,-5.4434,-5.328,0.0,0.0,0.0,0.0,0.0,-5.0712,-5.0712,-5.0712,-5.0712,-5.0712,-5.0712,-5.0683,-5.0623,-5.0603,-5.042,0.0,0.0,0.0,0.0,0.0,0.0,0.0,0.0,0.0,0.0,0.0,0.0,0.0,0.0,0.0,0.0,0.0,0.0,0.0,0.0,0.0,0.0,0.0,-3.0208,-3.107,-3.1817,-3.3451,-3.6004,-3.6946,-3.8212,-3.9741,-4.0049,-3.8675,-3.5805,-3.3436,-3.1836,0.0,0.0,0.0,0.0,-3.0898,0.0,0.0,0.0,0.0,0.0,0.0,0.0,0.0,-3.1758,-3.1504,-3.1035,-3.1777,0.0,0.0,0.0,0.0,0.0,-3.1367,-3.4434,-3.7363,-3.6836,-3.7559,-3.8379,-3.8223,-3.7051,-3.6035,-3.6172,-3.6191,-3.6816,-3.8808,-3.9179,-4.0057,0.0,0.0,0.0,-5.2248,0.0,0.0,0.0,0.0,0.0,0.0,0.0,0.0,0.0,0.0,0.0,0.0,0.0,0.0,0.0,-5.6827,-5.7013,-5.6652,-5.6879,-5.6503,-5.5511,-5.5376,-5.4126,-5.1904,-5.1769,0.0,0.0,0.0,0.0,-5.0712,-5.0712,-5.0712,-5.0712,-5.0712,-5.0712,-5.0683,-5.0633,-5.0613,-5.0372,0.0,0.0,0.0,0.0,0.0,0.0,0.0,0.0,0.0,0.0,0.0,0.0,0.0,0.0,0.0,0.0,0.0,0.0,0.0,0.0,0.0,0.0,-3.0762,-3.1383,-3.2877,-3.3037,-3.4382,-3.699,-3.8539,-3.9486,-3.99,-4.1327,-3.9843,-3.5898,-3.4043,-3.2344,-3.0898,0.0,0.0,-3.0898,0.0,0.0,0.0,0.0,0.0,0.0,0.0,0.0,0.0,-3.1055,-3.1016,-3.0918,-3.1055,0.0,0.0,0.0,0.0,0.0,-3.3535,-3.6211,-3.7695,-3.4746,-3.5762,-3.7305,-3.6562,-3.6191,-3.6211,-3.6953,-3.7109,-3.8066,-4.1229,-4.1816,-4.291,0.0,0.0,-5.12,0.0,0.0,0.0,0.0,0.0,0.0,0.0,0.0,0.0,0.0,0.0,0.0,0.0,0.0,0.0,0.0,0.0,-5.6517,-5.5069,-5.6346,-5.6233,-5.4684,-5.3933,-5.2991,-5.1885,-5.1183,-5.0827,0.0,0.0,-5.0712,-5.0712,-5.0712,-5.0712,-5.0712,-5.0712,-5.0712,-5.0712,-5.0702,-5.0673,-5.0442,0.0,0.0,0.0,0.0,0.0,0.0,0.0,0.0,0.0,0.0,0.0,0.0,0.0,0.0,0.0,0.0,0.0,0.0,0.0,0.0,0.0,0.0,-3.1601,-3.1909,-3.2584,-3.3973,-3.5518,-3.7158,-3.89,-4.0059,-4.0605,-4.043,-3.8535,-3.5234,-3.3965,-3.2461,-3.0898,-3.0898,-3.0898,-3.0898,0.0,0.0,0.0,0.0,0.0,0.0,0.0,0.0,0.0,0.0,-3.0853,-3.0853,-3.0853,0.0,0.0,0.0,0.0,0.0,-3.2324,-3.5215,-3.7519,-3.5918,-3.8144,-4.0644,-4.0254,-3.9453,-3.8926,-3.9316,-3.9414,-4.0156,-4.2655,0.0,-4.5093,-4.9012,0.0,0.0,0.0,0.0,0.0,0.0,0.0,0.0,0.0,0.0,0.0,0.0,0.0,0.0,0.0,0.0,0.0,0.0,0.0,-5.5462,-5.4231,-5.4851,-5.4474,-5.3087,-5.2692,-5.2068,-5.1241,-5.0856,-5.0712,-5.0712,0.0,-5.0712,-5.0712,-5.0712,-5.0712,-5.0712,-5.0712,-5.0712,-5.0712,-5.0712,-5.0087,-4.9183,0.0,0.0,0.0,0.0,0.0,0.0,0.0,0.0,0.0,0.0,0.0,0.0,0.0,0.0,0.0,0.0,0.0,0.0,0.0,0.0,-3.119,-3.1875,-3.2265,-3.2707,-3.3175,-3.4979,-3.6485,-3.7715,-3.932,-4.0479,-4.1152,-3.9414,-3.7207,-3.4668,-3.3789,-3.2461,-3.0898,-3.0898,-3.0898,-3.0898,0.0,0.0,0.0,0.0,0.0,0.0,0.0,0.0,0.0,0.0,0.0,0.0,0.0,0.0,0.0,-3.0856,-3.0878,-3.1015,-3.1621,-3.4336,-3.7148,-3.7754,-4.0527,-4.3262,-4.3867,-4.2695,-4.1641,-4.2266,-4.2226,-4.2539,-4.4022,-4.519,0.0,-5.107,-5.1888,0.0,0.0,0.0,0.0,0.0,0.0,0.0,0.0,0.0,0.0,0.0,0.0,0.0,0.0,0.0,0.0,0.0,0.0,0.0,-5.3502,-5.3324,-5.281,-5.1963,-5.1963,-5.152,-5.0712,-5.0712,-5.0712,-5.0712,-5.0712,-5.0712,-5.0712,-5.0712,-5.0712,-5.0712,-5.0712,-5.0712,-5.0712,-5.0712,-4.9721,-4.8375,0.0,0.0,0.0,0.0,0.0,0.0,0.0,0.0,0.0,0.0,0.0,0.0,0.0,0.0,0.0,0.0,0.0,0.0,0.0,0.0,-3.0934,-3.0995,-3.2479,-3.4387,-3.669,-3.6185,-3.7084,-3.9507,-4.0526,-4.1065,-4.1152,-3.9414,-3.7207,-3.4668,-3.3789,-3.2461,-3.0898,-3.0898,-3.0898,-3.0898,-3.0898,0.0,0.0,0.0,0.0,0.0,0.0,0.0,0.0,0.0,0.0,0.0,0.0,0.0,-3.0724,-3.0796,-3.0804,-3.1336,-3.3769,-3.5234,-3.668,-3.9101,-4.0547,-4.1992,-4.4375,-4.3555,-4.3008,-4.543,-4.5293,-4.5019,-4.5936,-4.7495,-4.9484,-5.2177,0.0,0.0,0.0,0.0,0.0,0.0,0.0,0.0,0.0,0.0,0.0,0.0,0.0,0.0,0.0,0.0,0.0,0.0,0.0,0.0,-5.259,-5.2343,-5.2174,-5.2092,-5.2092,-5.161,-5.0712,-5.0712,-5.0712,-5.0712,-5.0712,-5.0712,-5.0712,-5.0712,-5.0712,-5.0712,-5.0712,-5.0712,-5.0712,-5.0712,-5.0106,-4.9183,0.0,0.0,0.0,0.0,0.0,0.0,0.0,0.0,0.0,0.0,0.0,0.0,0.0,0.0,0.0,0.0,0.0,0.0,0.0,0.0,-3.1127,-3.1618,-3.2243,-3.3493,-3.5443,-3.6856,-3.8308,-3.9759,-4.0164,-4.0096,-3.9551,-3.8359,-3.6406,-3.3887,-3.3555,-3.2773,-3.168,-3.1133,-3.1211,-3.166,-3.1113,-3.0898,0.0,0.0,0.0,0.0,0.0,0.0,0.0,0.0,-3.0684,-3.0636,-3.0636,-3.0636,-3.0656,-3.0767,-3.08,-3.1021,-3.207,-3.4531,-3.7051,-3.8047,-4.0137,-4.248,-4.4531,-4.4902,-4.541,-4.748,-4.7656,-4.7539,-4.785,0.0,-4.9517,-5.1567,0.0,0.0,0.0,0.0,0.0,0.0,0.0,0.0,0.0,0.0,0.0,0.0,0.0,0.0,0.0,0.0,0.0,0.0,0.0,0.0,0.0,-5.1721,-5.1585,-5.1405,-5.1294,-5.1048,-5.0712,-5.0712,-5.0712,-5.0712,-5.0712,-5.0712,-5.0712,-5.0712,-5.0712,-5.0712,-5.0712,-5.0712,-5.0712,-5.0712,-4.9798,-4.8548,0.0,0.0,0.0,0.0,0.0,0.0,0.0,0.0,0.0,0.0,0.0,0.0,0.0,0.0,0.0,0.0,0.0,0.0,0.0,-3.0007,-3.0732,-3.1283,-3.1811,-3.2734,-3.4117,-3.6515,-3.8137,-3.8949,-3.9312,-3.9043,-3.8164,-3.7305,-3.5937,-3.4199,-3.3652,-3.3242,-3.293,-3.1797,-3.1641,-3.2129,-3.125,-3.0898,0.0,0.0,0.0,0.0,0.0,0.0,0.0,0.0,-3.0653,-3.059,-3.0603,-3.0595,-3.0628,-3.0745,-3.1159,-3.1598,-3.1679,-3.4434,-3.7363,-3.7637,-3.9883,-4.2617,-4.4883,-4.5879,-4.6875,-4.8887,-4.9082,-4.8906,-4.8905,0.0,0.0,0.0,0.0,0.0,0.0,0.0,0.0,0.0,0.0,0.0,0.0,0.0,0.0,0.0,0.0,0.0,0.0,0.0,0.0,0.0,0.0,0.0,0.0,-5.136,-5.1248,-5.1058,-5.0886,-5.0747,-5.0712,-5.0712,-5.0712,-5.0712,-5.0712,-5.0712,-5.0712,-5.0712,-5.0712,-5.0673,-5.0404,-5.0289,-5.0269,-4.9971,-4.8952,-4.7721,0.0,0.0,0.0,0.0,0.0,0.0,0.0,0.0,0.0,0.0,0.0,0.0,0.0,0.0,0.0,0.0,0.0,0.0,0.0,-2.9104,-2.9594,-2.9598,-3.1181,-3.2479,-3.3351,-3.5007,-3.6277,-3.7105,-3.8096,-3.8125,-3.7266,-3.6406,-3.5996,-3.5898,-3.4199,-3.3887,-3.457,-3.2891,-3.2207,-3.2129,-3.1269,-3.0918,-3.0898,0.0,0.0,0.0,0.0,0.0,0.0,0.0,-3.0653,-3.0598,-3.061,-3.0617,-3.0638,-3.0675,-3.1924,-3.3312,-3.3376,-3.5293,-3.7519,-3.8379,-3.9922,-4.2129,-4.5527,-4.6308,-4.7051,-4.9668,-4.9512,-4.8906,-4.8905,-4.8901,0.0,0.0,0.0,0.0,0.0,0.0,0.0,0.0,0.0,0.0,0.0,0.0,0.0,0.0,0.0,0.0,0.0,0.0,0.0,0.0,0.0,0.0,0.0,-5.1262,-5.1203,-5.1199,-5.1063,-5.0903,-5.0693,-5.0693,-5.0693,-5.0712,-5.0712,-5.0712,-5.0712,-5.0693,-5.0673,-5.0596,-4.9721,-4.9394,-4.9279,-4.8413,-4.7586,-4.6904,0.0,0.0,0.0,0.0,0.0,0.0,0.0,0.0,0.0,0.0,0.0,0.0,0.0,0.0,0.0,0.0,0.0,0.0,0.0,-2.8205,-2.8968,-2.9575,-3.0083,-3.0738,-3.156,-3.2668,-3.4513,-3.717,-3.689,-3.6641,-3.6387,-3.6113,-3.5351,-3.4199,-3.4902,-3.4375,-3.291,-3.2402,-3.2207,-3.2187,-3.1914,-3.1445,-3.0976,0.0,0.0,0.0,0.0,0.0,0.0,0.0,0.0,0.0,-3.0607,-3.141,-3.2126,-3.0966,-3.1902,-3.3173,-3.2639,-3.4842,-3.7519,-3.8379,-4.1269,-4.4297,-4.5937,-4.6777,-4.7949,-5.0508,-5.0391,-4.9805,-4.9804,-4.9782,0.0,0.0,0.0,0.0,0.0,0.0,0.0,0.0,0.0,0.0,0.0,0.0,0.0,0.0,0.0,0.0,0.0,0.0,0.0,0.0,0.0,0.0,0.0,0.0,-5.1294,-5.1203,-5.1155,-5.1047,-5.0833,-5.0833,-5.0784,-5.0712,-5.0712,-5.0712,-5.0654,-5.0029,-4.9413,-4.8856,-4.8586,-4.849,-4.8452,-4.8202,-4.7586,-4.6904,0.0,0.0,0.0,0.0,0.0,0.0,0.0,0.0,0.0,0.0,-2.6781,-2.7191,0.0,0.0,0.0,0.0,0.0,0.0,0.0,0.0,-2.8537,-2.9064,-2.9728,-3.0463,-3.1307,-3.2162,-3.3464,-3.5175,-3.5037,-3.5137,-3.5488,-3.5488,-3.5293,-3.498,-3.5684,-3.5156,-3.3652,-3.2969,-3.248,-3.2207,-3.2207,-3.168,-3.0996,0.0,0.0,0.0,0.0,0.0,0.0,0.0,0.0,0.0,-3.0601,-3.1294,-3.2043,-3.1732,-3.2895,-3.4419,-3.4978,-3.7168,-3.9586,-4.0796,-4.3065,-4.5312,-4.6543,-4.7754,-4.916,-5.1016,-5.0762,-5.0293,-5.0625,-5.0389,0.0,0.0,0.0,0.0,0.0,0.0,0.0,0.0,0.0,0.0,0.0,0.0,0.0,0.0,0.0,0.0,0.0,0.0,0.0,0.0,0.0,0.0,-5.1394,0.0,0.0,-5.1284,-5.0933,-5.0672,-5.0519,-5.0773,-5.0643,-5.0164,-4.9817,-4.9663,-4.9625,-4.9106,-4.8567,-4.8067,-4.7759,-4.7625,-4.7586,-4.724,-4.6797,-4.6374,0.0,0.0,-2.6079,-2.6859,0.0,0.0,0.0,0.0,0.0,-2.5706,-2.6469,-2.6977,0.0,0.0,0.0,-2.6899,0.0,0.0,0.0,0.0,-2.8225,-2.8303,-2.9984,-3.1324,-3.2184,-3.2903,-3.2899,-3.2091,-3.2908,-3.373,-3.457,-3.4668,-3.5547,-3.7031,-3.6328,-3.582,-3.543,-3.3848,-3.2656,-3.1855,-3.2012,-3.1504,-3.0762,-3.1719,0.0,0.0,0.0,0.0,0.0,0.0,0.0,0.0,-3.0617,-3.0694,-3.1119,-3.2535,-3.4319,-3.6312,-3.8698,-4.0677,-4.249,-4.4327,-4.5013,-4.5644,-4.7246,-4.8887,-5.0293,-5.1016,0.0,-5.043,-5.1151,0.0,0.0,0.0,0.0,0.0,0.0,0.0,0.0,0.0,0.0,0.0,0.0,0.0,0.0,0.0,0.0,0.0,0.0,0.0,0.0,0.0,0.0,0.0,-5.1394,-5.1394,0.0,0.0,-5.0475,-4.9981,-4.9812,-5.0416,-5.0193,-4.9249,-4.8461,-4.8067,-4.799,-4.799,-4.7952,-4.7798,-4.7067,-4.6778,-4.6701,-4.5893,-4.5594,-4.5594,0.0,0.0,-2.6781,-2.6976,0.0,0.0,0.0,0.0,-2.6479,-2.5798,-2.6467,-2.6742,-2.6058,-2.6586,0.0,-2.6039,-2.643,0.0,0.0,0.0,-2.7582,-2.8264,0.0,0.0,0.0,-3.2609,-3.2253,-3.2021,-3.2319,-3.2871,-3.3691,-3.4375,-3.4902,-3.5273,-3.5781,-3.4512,-3.1973,-3.1601,-3.0547,-2.9258,-3.0624,-3.0254,-2.9023,-3.0585,-3.0644,0.0,0.0,0.0,0.0,0.0,0.0,0.0,-3.0595,-3.1507,-3.2377,-3.1434,-3.3337,-3.5834,-3.6417,-3.8367,-4.0842,-4.3263,-4.5462,-4.7148,-4.7519,-4.8418,-4.9238,-4.9394,-4.9844,-5.0254,0.0,0.0,0.0,0.0,0.0,0.0,0.0,0.0,0.0,0.0,0.0,0.0,0.0,0.0,0.0,0.0,0.0,0.0,0.0,0.0,0.0,0.0,0.0,-5.1394,-5.1394,-5.1394,-5.1063,0.0,-5.0182,-4.9708,-4.8955,-4.9112,-4.8946,-4.8516,-4.8227,-4.774,-4.7154,-4.7154,-4.6759,-4.6133,-4.596,-4.5874,-4.5864,-4.5671,-4.5594,-4.5594,0.0,0.0,0.0,0.0,0.0,0.0,0.0,0.0,-2.727,-2.6438,-2.6716,-2.6837,-2.6371,-2.6352,0.0,0.0,-2.6117,-2.6175,0.0,0.0,0.0,0.0,0.0,0.0,0.0,0.0,0.0,-3.1474,-3.1542,-3.2207,-3.3437,-3.4726,-3.5547,-3.5957,-3.5976,-3.4551,-3.2031,-3.123,-2.9883,-2.8418,-2.9745,-2.9472,-2.8437,-2.9765,-2.9746,-2.9023,-2.9453,0.0,0.0,0.0,0.0,0.0,0.0,0.0,-3.1889,-3.1811,-3.334,-3.5432,-3.7065,-3.9159,-4.1489,-4.4177,-4.5911,-4.6973,-4.6973,-4.7324,-4.7656,-4.7656,-4.8672,-4.9707,0.0,0.0,0.0,0.0,0.0,0.0,0.0,0.0,0.0,0.0,0.0,0.0,0.0,0.0,0.0,0.0,0.0,0.0,0.0,0.0,0.0,0.0,-5.0992,-5.0777,-5.0777,-5.0367,-4.9936,-4.9467,-4.9096,-4.8439,-4.7563,-4.7777,-4.7811,-4.7654,-4.7127,-4.6663,-4.6278,-4.6278,-4.6009,-4.5594,-4.5594,-4.5594,-4.5594,-4.5594,-4.5594,-4.5594,0.0,0.0,0.0,0.0,0.0,0.0,0.0,0.0,0.0,-2.7119,-2.7121,-2.7164,-2.7016,-2.6215,-2.5707,0.0,0.0,0.0,-2.5707,0.0,0.0,0.0,0.0,0.0,0.0,0.0,0.0,-3.0877,-3.0896,-3.1913,-3.3886,-3.5176,-3.6328,-3.7266,-3.623,-3.4726,-3.2851,-3.1171,-2.9433,-2.7929,-2.8807,-2.8632,-2.7949,-2.8828,-2.8691,-2.8164,-2.8887,-2.9258,-2.9491,-3.0237,0.0,0.0,0.0,0.0,-3.0853,-3.2106,-3.3282,-3.4788,-3.7475,-4.0029,-4.2552,-4.5289,-4.6145,-4.6308,-4.6308,-4.6308,-4.6308,-4.6308,-4.7578,0.0,0.0,0.0,0.0,0.0,0.0,0.0,0.0,0.0,0.0,0.0,0.0,0.0,0.0,0.0,0.0,0.0,0.0,0.0,0.0,0.0,-5.0967,-5.0962,-5.0278,-4.9887,-4.9887,-4.9184,-4.8735,-4.8578,-4.7776,-4.6991,-4.6316,-4.6678,-4.6835,-4.6769,-4.5981,-4.562,-4.5594,-4.5594,-4.5594,-4.5594,-4.5594,-4.5594,-4.5594,-4.5594,-4.5594,-4.5594,0.0,0.0,0.0,0.0,0.0,0.0,0.0,0.0,0.0,0.0,-2.7663,-2.7846,-2.7074,-2.6215,-2.5707,-2.5707,-2.5707,-2.5707,0.0,0.0,0.0,0.0,0.0,0.0,0.0,0.0,0.0,-3.0819,-3.0876,-3.2532,-3.5639,-3.5115,-3.5741,-3.7225,-3.5603,-3.3512,-3.111,-2.9372,-2.7634,-2.6112,-2.7009,-2.6834,-2.6133,-2.7011,-2.7265,-2.7187,-2.7305,-2.7832,-2.8593,-2.9398,-2.9624,0.0,0.0,0.0,0.0,-3.0024,-3.1585,-3.3375,-3.3083,-3.6983,-4.1772,-4.4422,-4.5696,-4.6308,-4.6308,-4.6308,-4.6308,0.0,0.0,0.0,0.0,0.0,0.0,0.0,0.0,0.0,0.0,0.0,0.0,0.0,0.0,0.0,0.0,0.0,0.0,0.0,0.0,0.0,0.0,-4.9171,-4.923,-4.9229,-4.9112,-4.9053,-4.9053,-4.8936,-4.8506,-4.7745,-4.6881,-4.6406,-4.6298,-4.6248,-4.6158,-4.6047,-4.586,-4.5715,-4.5594,-4.5594,-4.5594,-4.5594,-4.5594,-4.5594,-4.5594,-4.5594,-4.5594,-4.5594,0.0,0.0,0.0,0.0,0.0,0.0,0.0,0.0,0.0,0.0,0.0,-2.7612,-2.7717,-2.6507,-2.5707,-2.5707,-2.5707,0.0,0.0,0.0,0.0,0.0,0.0,0.0,0.0,0.0,0.0,-3.0136,-2.9662,-3.1945,-3.6712,-3.5832,-3.7122,-4.0054,-3.7866,-3.5717,-3.3549,-3.0366,-2.8023,-2.6421,-2.6305,-2.7205,-2.8437,-2.6874,-2.748,-2.8984,-2.7539,-2.7246,-2.7695,-2.8503,-2.9072,-2.9425,-2.924,0.0,0.0,0.0,-2.9839,-3.1654,-3.4132,-3.7509,-4.1042,-4.4085,-4.5219,-4.5703,-4.6191,-4.6308,-4.6308,0.0,0.0,0.0,0.0,0.0,0.0,0.0,0.0,0.0,0.0,0.0,0.0,0.0,0.0,0.0,0.0,0.0,0.0,0.0,0.0,0.0,-4.8162,-4.8631,-4.8904,-4.8902,-4.8433,0.0,-4.8179,-4.7691,-4.7242,-4.6871,-4.6476,-4.6296,-4.6294,-4.6234,-4.6147,-4.6,-4.586,-4.5764,-4.5715,-4.5637,-4.5594,-4.5594,-4.5594,-4.5594,-4.5594,-4.5594,-4.5594,-4.5594,0.0,0.0,0.0,0.0,0.0,0.0,0.0,0.0,0.0,0.0,0.0,-2.7259,-2.7892,0.0,0.0,0.0,-2.5707,0.0,0.0,0.0,0.0,0.0,0.0,0.0,0.0,0.0,-2.8286,-2.8934,-2.8505,-3.1278,-3.6963,-3.6529,-3.8736,-4.2938,-4.0146,-3.7705,-3.544,-3.1789,-2.9484,-2.8232,-2.7591,-2.8882,-3.0992,-2.904,-2.9921,-3.1855,-2.9238,-2.8164,-2.8027,-2.8176,-2.85,-2.8764,0.0,0.0,0.0,0.0,0.0,-2.9526,-3.4445,-3.695,-3.9043,-4.2646,-4.4127,-4.4902,0.0,0.0,-4.6308,0.0,0.0,0.0,0.0,0.0,0.0,0.0,0.0,0.0,0.0,0.0,0.0,0.0,0.0,0.0,0.0,0.0,0.0,0.0,0.0,0.0,-4.7266,-4.7891,-4.8242,-4.8241,-4.7616,-4.7265,-4.7265,-4.662,-4.6307,-4.6307,-4.6305,-4.6302,-4.6301,-4.6297,-4.6239,-4.6131,-4.5949,-4.5861,-4.5787,-4.568,-4.5637,-4.5594,-4.5594,-4.5594,-4.5594,-4.5594,-4.5594,-4.5594,0.0,0.0,0.0,0.0,0.0,0.0,0.0,0.0,0.0,0.0,0.0,-2.7021,-2.7054,-2.6254,-2.5707,-2.5707,-2.5707,0.0,0.0,0.0,0.0,0.0,0.0,0.0,0.0,-2.7074,-2.7094,-2.7134,-2.7914,-3.0977,-3.6072,-3.6872,-3.9956,-4.4719,-4.1264,-3.7888,-3.4648,-3.2774,-3.1918,-3.1823,-3.1785,-3.1884,-3.2297,-3.4582,-3.558,-3.5388,-3.2771,-3.1347,-3.0449,0.0,-2.773,-2.7165,-2.7946,-2.8239,-2.8081,0.0,0.0,0.0,-3.1269,-3.3086,-3.4765,-3.9082,-4.1972,-4.4004,0.0,0.0,0.0,0.0,0.0,0.0,0.0,0.0,0.0,0.0,0.0,0.0,0.0,0.0,0.0,0.0,0.0,0.0,0.0,0.0,0.0,0.0,0.0,0.0,-4.6367,-4.6406,-4.6445,-4.6445,-4.6387,-4.6367,-4.6367,-4.6328,-4.6308,-4.6307,-4.6307,-4.6305,-4.6301,-4.6301,-4.6301,-4.6278,-4.6134,-4.5983,-4.5796,-4.5794,-4.5704,-4.5594,-4.5594,-4.5594,-4.5594,-4.5594,-4.5594,-4.5594,0.0,0.0,0.0,0.0,0.0,0.0,0.0,0.0,0.0,0.0,0.0,0.0,0.0,-2.6226,-2.5702,-2.5702,-2.5705,0.0,0.0,0.0,0.0,0.0,0.0,0.0,0.0,-2.6703,-2.6996,-2.6996,-2.6741,-2.9278,-3.4333,-3.4645,-3.6383,-3.9213,-3.9097,-3.8942,-3.8513,-3.4006,-3.2425,-3.2931,-3.2936,-3.4266,-3.624,-3.6063,-3.7354,-3.8862,-3.5739,-3.3709,0.0,0.0,0.0,-2.9236,-2.7868,-2.781,-2.7985,-2.6559,-2.6718,-2.7812,-2.9893,-3.1891,-3.4023,-3.6672,-3.9314,-4.1484,-4.2363,-4.4062,0.0,0.0,0.0,0.0,0.0,0.0,0.0,0.0,0.0,0.0,0.0,0.0,0.0,0.0,0.0,0.0,0.0,0.0,0.0,0.0,0.0,0.0,-4.6308,-4.6308,-4.6308,-4.6308,-4.6308,-4.6308,-4.6308,-4.6308,-4.6308,-4.6308,-4.6308,-4.6308,-4.6307,-4.6306,-4.6306,-4.6307,-4.6252,-4.6147,-4.5974,-4.5846,-4.5768,-4.573,-4.5627,-4.5594,-4.5594,-4.5594,-4.5594,-4.5594,0.0,0.0,0.0,-3.0801,0.0,-2.8534,-2.8244,-2.7255,-2.6656,-2.695,0.0,0.0,0.0,0.0,-2.6012,-2.5721,-2.5705,-2.5707,-2.5707,0.0,0.0,0.0,0.0,0.0,0.0,-2.6703,-2.6996,-2.6996,-2.6411,-2.8186,-3.2129,-3.2401,-3.3767,-3.5992,-3.5994,-3.742,-3.9587,-3.5861,-3.4611,-3.5193,-3.5763,-3.7192,-3.9048,-3.9338,-4.0688,-4.2021,-3.9173,0.0,0.0,0.0,0.0,-3.1289,-2.8691,-2.7676,-2.7207,-2.6035,-2.6738,-2.7988,-2.8525,-3.0367,-3.2675,-3.4933,-3.6833,-3.8769,-4.1074,0.0,0.0,0.0,0.0,0.0,0.0,0.0,0.0,0.0,0.0,0.0,0.0,0.0,0.0,0.0,0.0,0.0,0.0,0.0,0.0,0.0,0.0,0.0,-4.6308,-4.6308,-4.6308,-4.6308,-4.6308,-4.6308,-4.6308,-4.6308,-4.6308,-4.6308,-4.6308,-4.6308,-4.6308,-4.6308,-4.6308,-4.6308,-4.6307,-4.6215,-4.6089,-4.5935,-4.584,-4.5783,-4.568,-4.5629,-4.564,-4.564,-4.5622,-4.5594,-3.0796,-3.0796,-3.0796,-3.0796,-3.0076,-2.9219,-2.8364,-2.8208,-2.792,-2.7131,0.0,0.0,0.0,0.0,0.0,-2.5843,-2.5746,-2.5746,-2.5746,-2.5707,0.0,0.0,0.0,0.0,-2.6996,-2.7035,-2.7035,-2.6996,-2.6977,-2.7836,-2.9534,-3.0353,-3.2557,-3.566,-3.2323,-3.3183,-3.7204,-3.8025,-3.8474,-3.8767,-4.0348,-4.0561,-4.0385,-4.4602,-4.5739,-4.4827,-4.3127,-4.1944,0.0,-3.7322,0.0,0.0,-3.0488,-2.7871,-2.5762,-2.5742,-2.6367,-2.707,0.0,0.0,0.0,0.0,0.0,0.0,-4.1016,0.0,0.0,0.0,0.0,0.0,0.0,0.0,0.0,0.0,0.0,0.0,0.0,0.0,0.0,0.0,0.0,0.0,0.0,0.0,0.0,0.0,0.0,-4.6308,-4.6308,-4.6308,-4.6308,-4.6308,-4.6308,-4.6308,-4.6308,-4.6308,-4.6308,-4.6308,-4.6308,-4.6308,-4.6308,-4.6308,-4.6308,-4.6308,-4.6308,-4.6224,-4.6106,-4.6025,-4.592,-4.5802,-4.573,-4.5703,-4.5701,-4.5701,-4.5657,-4.5594,-3.0575,-3.0575,-3.0575,-3.0575,-2.9854,-2.9233,-2.9097,-2.854,-2.8071,0.0,0.0,0.0,-2.8294,-2.8054,-2.7848,-2.7599,-2.6996,-2.6645,-2.6645,-2.6058,-2.5707,-2.5707,-2.7132,-2.766,-2.7016,-2.7621,-2.7621,-2.6996,-2.6372,-2.6625,-2.7738,-2.8596,-2.9845,-3.1387,-3.1621,-3.2402,-3.3515,-3.3124,-3.5486,-3.939,-3.8648,-4.0073,0.0,0.0,0.0,0.0,0.0,-4.4263,-4.2744,0.0,-3.9077,-3.648,-3.2615,-2.9648,-2.7461,-2.6836,-2.7695,-2.8613,-2.7344,0.0,0.0,0.0,0.0,0.0,0.0,0.0,0.0,0.0,0.0,0.0,0.0,0.0,0.0,0.0,0.0,0.0,0.0,0.0,0.0,0.0,0.0,0.0,0.0,0.0,0.0,0.0,-4.6308,-4.6308,-4.6308,-4.6308,-4.6308,-4.6308,-4.6308,-4.6308,-4.6308,-4.6308,-4.6308,-4.6308,-4.6308,-4.6308,-4.6308,-4.6308,-4.6308,-4.6308,-4.6308,-4.6289,-4.6225,-4.6066,-4.599,-4.5925,-4.5768,-4.57,-4.5711,-4.5711,-4.5684,-4.5668,-3.0501,-3.0501,-3.0612,-3.0936,-3.0583,-3.0287,-3.042,-3.0003,-2.9719,0.0,0.0,0.0,-2.9379,-2.9648,-2.9464,-2.8395,-2.7502,-2.6996,-2.6996,-2.6175,-2.5707,-2.5707,-2.7366,-2.8069,-2.7543,-2.8401,-2.842,-2.7543,-2.6664,-2.6313,-2.6469,-2.6976,-2.7678,-2.8538,-2.9163,-3.0216,-3.1485,-3.0274,-3.3025,-3.8295,-3.9097,0.0,0.0,-4.4232,-4.5187,0.0,0.0,0.0,-4.4653,-4.3777,-4.1064,0.0,0.0,-3.1677,-2.9589,-2.8007,-2.9003,-3.0273,-2.8555,-2.9453,-3.0957,-3.1133,0.0,0.0,0.0,-3.6016,0.0,0.0,0.0,0.0,0.0,0.0,0.0,0.0,0.0,0.0,0.0,0.0,0.0,0.0,0.0,0.0,0.0,0.0,0.0,0.0,-4.6308,-4.6308,-4.6308,-4.6308,-4.6308,-4.6308,-4.6308,-4.6308,-4.6308,-4.6308,-4.6308,-4.6308,-4.6308,-4.6308,-4.6308,-4.6308,-4.6308,-4.6308,-4.6308,-4.6308,-4.6289,-4.6147,-4.6073,-4.6029,-4.5885,-4.5786,-4.5731,-4.5731,-4.5723,-4.5708,0.0,-3.054,-3.0829,-3.1553,-3.1741,-3.1893,-3.2107,-3.2061,-3.2116,0.0,-3.2508,-3.2267,-3.1584,-3.195,-3.1375,-2.9209,-2.7968,-2.7289,-2.7289,-2.6372,-2.5805,-2.5707,-2.7366,-2.8244,-2.8166,-2.9104,-2.9163,-2.8303,-2.7426,-2.6606,-2.5844,-2.5746,-2.6117,-2.6821,-2.6058,-2.7503,-3.0449,-2.9123,-3.1444,-3.6324,-4.015,-4.1576,0.0,0.0,-4.5656,-4.5246,-4.6027,-4.6305,-4.6174,-4.5296,-4.1823,0.0,-3.5813,-3.4132,-3.2317,-2.9763,-3.0759,-3.2302,-3.0625,-3.0801,-3.1777,-3.3086,-3.25,0.0,-3.5957,-3.5684,0.0,0.0,0.0,0.0,0.0,0.0,0.0,0.0,0.0,0.0,0.0,0.0,0.0,0.0,0.0,0.0,0.0,0.0,-4.6308,-4.6308,-4.6308,-4.6308,-4.6308,-4.6308,-4.6308,-4.6308,-4.6308,-4.6308,-4.6308,-4.6308,-4.6308,-4.6308,-4.6308,-4.6308,-4.6308,-4.6308,-4.6308,-4.6308,-4.6308,-4.6308,-4.6308,-4.6239,-4.6162,-4.6091,-4.6022,-4.5931,-4.5795,-4.5795,-4.5754,-4.5723,-3.0254,-3.0784,-3.1294,-3.1511,-3.2079,-3.2772,-3.3551,-3.3114,-3.3219,-3.4645,-3.4971,-3.5326,-3.5953,-3.4306,-3.3239,-3.3435,-3.0782,-2.9085,-2.9085,-2.7621,-2.643,-2.5726,-2.7366,-2.7971,-2.7269,-2.8792,-2.9163,-2.8303,-2.7426,-2.6918,-2.6723,-2.6039,-2.5785,-2.5941,-2.5785,-2.6859,-2.885,-2.9883,-3.2518,-3.607,-3.691,0.0,-4.3276,-4.3959,-4.4972,-4.6066,-4.6241,-4.6302,-4.6167,-4.5286,-4.3398,-4.1099,0.0,-3.8133,-3.6828,-3.4213,-3.4798,-3.5911,-3.4174,-3.4331,-3.4742,-3.367,0.0,0.0,-3.3633,-3.3984,0.0,0.0,0.0,0.0,0.0,0.0,0.0,0.0,0.0,0.0,0.0,0.0,0.0,0.0,0.0,0.0,0.0,0.0,-4.6308,-4.6308,-4.6308,-4.6308,-4.6308,-4.6308,-4.6308,-4.6308,-4.6308,-4.6308,-4.6308,-4.6308,-4.6308,-4.6308,-4.6308,-4.6308,-4.6308,-4.6308,-4.6308,-4.6308,-4.6308,-4.6308,-4.6308,-4.6289,-4.6207,-4.6091,-4.6022,-4.5923,-4.5793,-4.5793,-4.5793,-4.5786,-3.0211,-3.0873,-3.1713,-3.2592,-3.3414,-3.4416,-3.5785,-3.5287,-3.5373,-3.7166,-3.7923,-3.8027,-3.7335,-3.6083,-3.5133,-3.4724,-3.2349,-3.0656,-3.0229,-2.8962,-2.7676,-2.6391,-2.76,-2.8108,-2.766,-2.8929,-2.9397,-2.8947,-2.8088,-2.7426,-2.6977,-2.6117,-2.639,-2.7601,-2.6742,-2.801,-3.0839,-3.08,-3.2557,-3.5545,-3.7672,0.0,-4.3783,-4.466,-4.5539,-4.63,-4.63,-4.63,-4.6105,-4.4797,-4.3471,0.0,0.0,-3.9826,-3.9341,0.0,-3.7235,-3.8212,-3.6476,-3.6321,-3.6439,-3.5562,0.0,0.0,0.0,0.0,-3.4414,0.0,0.0,0.0,0.0,0.0,0.0,0.0,0.0,0.0,0.0,0.0,0.0,0.0,0.0,0.0,0.0,0.0,-4.6308,-4.6308,-4.6308,-4.6308,-4.6308,-4.6308,-4.6308,-4.6308,-4.6308,-4.6308,-4.6308,-4.6308,-4.6308,-4.6308,-4.6308,-4.6308,-4.6308,-4.6308,-4.6308,-4.6308,-4.6308,-4.6308,-4.6308,-4.6308,-4.624,-4.6142,-4.6072,-4.5993,-4.588,-4.5815,-4.5807,-4.5807,-3.0211,-3.1026,-3.2095,-3.328,-3.4579,-3.5938,-3.7406,-3.7164,-3.7481,-3.9322,-4.0422,-4.0377,-3.8636,-3.8149,-3.7471,-3.6299,-3.4281,-3.2711,-3.1861,-3.0516,-2.9155,-2.7797,-2.8108,-2.8381,-2.8557,-2.9396,-2.9768,-2.9592,-2.8732,-2.7932,-2.723,-2.6352,-2.7171,-2.93,-2.8226,-2.9845,-3.3318,-3.2088,0.0,-3.6247,0.0,-4.1753,-4.2944,-4.5012,-4.5792,-4.5831,-4.6183,-4.63,-4.6066,-4.4484,-4.3489,-4.2591,-4.0854,-4.101,0.0,0.0,0.0,0.0,0.0,0.0,0.0,0.0,0.0,-3.6926,0.0,0.0,0.0,-3.6211,0.0,0.0,0.0,0.0,0.0,0.0,0.0,0.0,0.0,0.0,0.0,0.0,0.0,0.0,0.0,0.0,-4.5332,-4.5996,-4.5605,-4.5605,-4.6269,-4.6308,-4.6308,-4.6308,-4.6308,-4.6308,-4.6308,-4.6308,-4.6308,-4.6308,-4.6308,-4.6308,-4.6308,-4.6308,-4.6308,-4.6308,-4.6308,-4.6308,-4.6308,-4.6308,-4.6267,-4.6209,-4.6131,-4.6067,-4.5986,-4.5861,-4.5807,-4.5807,-3.0211,-3.1484,-3.2374,-3.1801,-3.4284,-3.6413,-3.6621,-3.7184,-3.8289,-4.0273,-4.1302,-4.2141,-4.2875,-4.1579,-4.0896,-4.1462,-3.8514,-3.6276,-3.5469,-3.2427,-3.0578,-3.0371,-2.9045,-2.8654,-2.9436,-3.0255,-3.0313,-2.9592,-2.8732,-2.8244,-2.8127,-2.7269,-2.7426,-2.8498,-2.9786,-3.1503,-3.3435,-3.4003,-3.6618,0.0,-4.0894,-4.0328,0.0,-4.2768,-4.3998,-4.4193,-4.5753,-4.63,-4.6144,0.0,-4.4795,-4.4405,0.0,-4.3235,-4.4036,-4.1422,0.0,0.0,0.0,0.0,0.0,0.0,-3.9499,0.0,0.0,0.0,-3.6285,-3.4256,0.0,0.0,0.0,0.0,0.0,0.0,0.0,0.0,0.0,0.0,0.0,0.0,0.0,0.0,0.0,0.0,0.0,-4.4922,-4.3066,-4.3105,-4.6133,-4.6308,-4.6308,-4.6308,-4.6308,-4.6308,-4.6308,-4.6308,-4.6308,-4.6308,-4.6308,-4.6308,-4.6308,-4.6308,-4.6308,-4.6308,-4.6308,-4.6308,-4.6308,-4.6308,-4.6308,-4.6287,-4.6147,-4.6067,-4.5986,-4.5861,-4.5807,-4.5807,-3.0211,-3.156,-3.2585,-3.2222,-3.4552,-3.6653,-3.7139,-3.9565,-4.1329,-4.1299,-4.2883,-4.4044,-4.4101,-4.311,-4.2536,-4.2777,0.0,-3.9268,0.0,0.0,-3.4539,-3.3126,-3.1903,-3.1184,-3.1047,-3.0895,-3.0626,-3.0294,-2.9455,-2.8791,-2.8283,-2.7406,-2.8245,-3.0548,-3.1231,-3.3612,-3.7106,0.0,-3.8006,0.0,0.0,0.0,0.0,-4.353,-4.5207,-4.5304,-4.6046,-4.63,-4.6085,0.0,-4.425,0.0,0.0,0.0,0.0,0.0,0.0,0.0,0.0,0.0,0.0,0.0,0.0,0.0,-3.6453,0.0,-3.5774,0.0,0.0,0.0,0.0,0.0,0.0,0.0,0.0,0.0,0.0,0.0,0.0,0.0,0.0,0.0,0.0,0.0,0.0,0.0,0.0,-4.2461,-4.5391,-4.5547,-4.5781,-4.6289,-4.6308,-4.6308,-4.6308,-4.6308,-4.6308,-4.6308,-4.6308,-4.6308,-4.6308,-4.6308,-4.6308,-4.6308,-4.6308,-4.6308,-4.6308,-4.6308,-4.6308,-4.6289,-4.62,-4.6118,-4.6059,-4.595,-4.5874,-4.5807,-3.0835,-3.1668,-3.2355,-3.2374,-3.4456,-3.6653,-3.819,-4.1208,-4.3092,-4.2494,-4.4011,-4.5167,-4.5119,-4.4673,-4.442,-4.4508,-4.3634,-4.2205,0.0,0.0,-3.7712,-3.6388,-3.4666,-3.3667,-3.3457,-3.1939,-3.1169,-3.1153,-2.9865,-2.9045,-2.8635,-2.8011,-2.9143,-3.1797,-3.2988,-3.574,-3.9488,0.0,-3.9918,-4.0387,-4.0737,-4.0815,-4.107,-4.435,-4.587,-4.63,-4.63,-4.63,-4.6066,-4.4563,-4.4055,0.0,-4.3782,0.0,0.0,0.0,0.0,0.0,-4.1752,0.0,0.0,0.0,0.0,0.0,0.0,0.0,0.0,0.0,0.0,0.0,0.0,0.0,0.0,-3.3474,0.0,0.0,0.0,0.0,0.0,0.0,0.0,0.0,0.0,0.0,0.0,0.0,0.0,0.0,-4.4473,-4.4863,-4.5293,-4.5918,-4.6172,-4.6308,-4.6308,-4.6308,-4.6308,-4.6308,-4.6308,-4.6308,-4.6308,-4.6308,-4.6308,-4.6308,-4.6308,-4.6308,-4.6308,-4.6308,-4.6308,-4.6308,-4.6242,-4.6195,-4.6118,-4.6032,-4.5923,-4.5807,-3.247,-3.1973,-3.1458,-3.1522,-3.3586,-3.6366,-3.9709,-4.0998,-4.2202,-4.3991,-4.4297,0.0,0.0,0.0,0.0,0.0,0.0,-4.5193,-4.4259,0.0,-3.8928,-4.0341,-3.6725,-3.5334,0.0,-3.3704,-3.2061,-3.2052,-2.9552,-2.8752,-2.9553,-2.9534,-2.9982,-3.1034,-3.5252,-3.7692,-3.8806,-4.1244,-4.3255,-4.4719,-4.3899,-4.4563,-4.589,0.0,-4.4836,-4.63,-4.63,0.0,0.0,-4.5265,-4.4951,0.0,0.0,0.0,0.0,0.0,0.0,0.0,0.0,0.0,0.0,-3.9489,0.0,0.0,0.0,0.0,-3.8008,0.0,0.0,0.0,0.0,0.0,-3.5365,-3.3667,-3.4116,0.0,0.0,0.0,0.0,0.0,0.0,0.0,0.0,0.0,0.0,0.0,0.0,0.0,-4.3476,-4.4531,-4.5019,-4.5039,-4.5859,-4.6308,-4.6308,-4.6308,-4.6308,-4.6308,-4.6308,-4.6308,-4.6308,-4.6308,-4.6308,-4.6308,-4.6308,-4.6308,-4.6308,-4.6308,-4.6308,-4.6308,-4.6308,-4.6264,-4.6171,-4.6054,-4.5923,-4.5807,-3.3509,-3.2852,-3.2279,-3.2298,-3.438,-3.7016,-3.9862,-4.2412,-4.4238,0.0,-4.5935,0.0,0.0,-4.8461,-4.8604,0.0,0.0,-4.7474,-4.6012,-4.4133,0.0,-4.3117,-4.0782,-3.9228,0.0,-3.6464,-3.4792,-3.3827,-3.234,-3.1482,-3.1232,-3.0665,-3.0841,-3.1797,-3.5018,-3.7536,0.0,0.0,0.0,0.0,0.0,-4.4572,-4.612,0.0,0.0,-4.63,-4.63,-4.63,0.0,-4.5968,-4.548,-4.5051,-4.5324,-4.4836,-4.4192,-4.4484,-4.4367,0.0,0.0,0.0,-4.4016,-4.1693,0.0,0.0,0.0,0.0,0.0,0.0,0.0,0.0,0.0,-3.5535,-3.4951,-3.4366,-3.3547,-3.2671,0.0,0.0,0.0,0.0,0.0,0.0,0.0,0.0,0.0,0.0,0.0,0.0,0.0,-4.2832,-4.3808,-4.4961,-4.5293,-4.5723,-4.6289,-4.6308,-4.6308,-4.6308,-4.6308,-4.6308,-4.6308,-4.6308,-4.6308,-4.6308,-4.6308,-4.6308,-4.6308,-4.6308,-4.6308,-4.6308,-4.6308,-4.6265,-4.62,-4.6147,-4.6052,-4.5929,-3.5248,-3.4636,-3.396,-3.3635,-3.5698,-3.8143,-4.0387,-4.3577,0.0,0.0,-4.7646,0.0,-4.9461,0.0,-4.9627,0.0,-4.9337,-4.8624,-4.7174,-4.6359,0.0,-4.5167,-4.3634,0.0,0.0,0.0,-3.7025,-3.5485,-3.4279,-3.3273,-3.2476,-3.1599,-3.1657,-3.2613,0.0,-3.7644,-3.9889,-4.2834,-4.4195,0.0,0.0,-4.4987,0.0,0.0,-4.6181,-4.6238,0.0,-4.6206,-4.6173,-4.6211,-4.5867,-4.5494,-4.6043,-4.5488,-4.4738,-4.5304,-4.5051,-4.4563,-4.425,-4.4563,0.0,-4.2845,-4.1986,0.0,-3.906,0.0,0.0,0.0,0.0,0.0,0.0,0.0,-3.5512,-3.5219,-3.3952,-3.2705,0.0,0.0,0.0,0.0,0.0,0.0,0.0,0.0,-3.5351,-3.7167,0.0,0.0,0.0,0.0,-4.2597,-4.4023,-4.4375,-4.4805,-4.5371,-4.5683,-4.584,-4.584,-4.6152,-4.6308,-4.6308,-4.6308,-4.6308,-4.6308,-4.6308,-4.6308,-4.6308,-4.6308,-4.6308,-4.6308,-4.6308,-4.6268,-4.6238,-4.6207,-4.6115,-4.5986,-3.7674,-3.7234,-3.6462,0.0,-3.7502,0.0,0.0,0.0,-4.6825,0.0,-4.9328,-5.0378,-5.0417,-5.0417,-5.0417,-5.0378,-4.9671,-4.885,-4.7979,-4.7241,0.0,0.0,-4.5265,-4.4427,-4.4259,0.0,0.0,0.0,-3.5359,-3.4137,-3.3367,-3.2447,-3.2466,-3.3375,-3.5963,0.0,-3.9723,-4.3195,-4.5144,-4.5894,-4.5889,-4.5889,-4.5894,-4.5889,0.0,-4.6087,-4.6095,-4.6005,-4.592,-4.6049,-4.6095,-4.6095,-4.6095,-4.6178,-4.6275,-4.6275,-4.6275,-4.6099,-4.5281,-4.5047,-4.4657,-4.3019,0.0,0.0,0.0,0.0,-4.0758,0.0,0.0,0.0,0.0,0.0,-3.7067,-3.6148,-3.5271,-3.3849,-3.1375,0.0,0.0,0.0,0.0,0.0,0.0,-3.3122,-3.3572,-3.6855,-3.5603,-3.6189,0.0,0.0,0.0,-4.2305,-4.3183,-4.3652,-4.3691,-4.4512,-4.4961,-4.5019,-4.584,-4.6269,-4.6308,-4.6308,-4.6308,-4.6308,-4.6308,-4.6308,-4.6308,-4.6308,-4.6308,-4.6308,-4.6308,-4.6308,-4.6289,-4.6215,-4.6122,-4.5982,-3.9594,-3.9947,-3.9966,0.0,-4.0024,-4.1418,0.0,0.0,0.0,0.0,-5.0225,-5.1486,-5.2079,-5.2155,-5.1926,-5.1334,-5.1085,0.0,0.0,0.0,0.0,-4.8441,-4.6844,-4.5716,-4.5188,-4.2447,0.0,-3.9719,0.0,0.0,-3.5915,-3.4445,-3.3871,-3.4155,0.0,-3.7354,-3.964,-4.1853,-4.398,-4.5809,-4.5723,-4.5745,0.0,0.0,-4.5766,-4.5885,-4.5934,-4.5925,-4.5905,-4.5935,-4.5945,-4.5945,-4.5945,-4.5959,-4.6,-4.6,-4.6,-4.5974,-4.5859,-4.5813,-4.5727,-4.5395,-4.4328,-4.3196,0.0,0.0,0.0,0.0,0.0,0.0,0.0,0.0,0.0,-3.6246,-3.5271,-3.4258,-3.293,0.0,0.0,0.0,0.0,0.0,-3.1965,-3.3178,-3.4135,-3.4388,-3.4585,0.0,0.0,0.0,0.0,-4.1364,-4.2282,-4.3044,-4.3688,-4.3923,-4.4352,-4.4996,-4.523,-4.568,-4.6305,-4.6305,-4.6305,-4.6305,-4.6305,-4.6305,-4.6305,-4.6307,-4.6307,-4.6308,-4.6308,-4.6308,-4.6289,-4.6215,-4.6189,-4.6134,-4.1399,-4.2354,0.0,-4.2565,0.0,0.0,-4.5,0.0,0.0,-4.9404,-5.1085,0.0,-5.227,-5.2919,-5.3034,-5.2193,-5.2117,0.0,-5.0378,0.0,0.0,-4.9129,-4.8162,-4.7272,-4.6522,-4.4729,0.0,-4.1087,0.0,-3.7595,-3.6174,-3.4886,-3.4091,-3.3789,0.0,-3.6846,-3.9035,-4.186,-4.4077,-4.5715,-4.5637,0.0,0.0,-4.5629,-4.5654,-4.5712,-4.5761,-4.5776,-4.5783,-4.5841,-4.5865,-4.5865,-4.5865,-4.5881,-4.5899,-4.5899,-4.5899,-4.5915,-4.5992,-4.6005,-4.6049,-4.6178,-4.5432,-4.449,-4.3853,-4.3652,-4.3351,0.0,0.0,0.0,0.0,0.0,0.0,-3.5779,-3.4705,-3.3964,0.0,0.0,0.0,0.0,0.0,0.0,-3.1021,-3.2508,-3.3525,-3.341,-3.3858,0.0,0.0,0.0,0.0,-4.0521,-4.138,-4.2065,-4.2553,-4.2943,-4.3373,-4.386,-4.4642,-4.5266,-4.5735,-4.6126,-4.6301,-4.6301,-4.6301,-4.6301,-4.6301,-4.6304,-4.6305,-4.6305,-4.6307,-4.6308,-4.6308,-4.6265,-4.6206,-4.6142,-4.3138,-4.4475,0.0,0.0,0.0,0.0,0.0,-4.7807,0.0,-5.0417,0.0,-5.2862,-5.2162,-5.3397,-5.3913,-5.3053,0.0,-5.2289,-5.0722,-5.1238,-5.0951,-4.9492,-4.9224,-4.8754,-4.7979,-4.6963,-4.489,0.0,0.0,-3.8473,-3.5109,-3.4407,-3.3662,0.0,0.0,0.0,0.0,-4.2596,-4.4788,-4.5586,-4.5586,-4.5586,-4.5594,-4.5594,-4.5594,-4.5594,-4.5594,-4.5594,-4.562,-4.5727,-4.5778,-4.5778,-4.5778,-4.5803,-4.5856,-4.5856,-4.5856,-4.5861,-4.5878,-4.5897,-4.5924,-4.6045,-4.5987,-4.556,-4.4273,-4.3905,-4.3841,-4.3981,-4.2818,0.0,0.0,0.0,0.0,-3.5447,0.0,0.0,0.0,0.0,0.0,0.0,0.0,0.0,0.0,-3.1758,-3.2544,-3.3178,-3.3112,0.0,0.0,0.0,0.0,0.0,-4.0519,0.0,-4.1105,0.0,-4.2297,-4.2414,-4.3937,-4.4776,-4.503,-4.5772,-4.6182,-4.63,-4.63,-4.63,-4.63,-4.6301,-4.6301,-4.6302,-4.6305,-4.6305,-4.6302,-4.6308,-4.6216,-4.6089,-4.4857,0.0,0.0,0.0,0.0,-4.9289,-5.0531,-5.0844,-5.1276,-5.2231,-5.3874,-5.4887,-5.4753,-5.5002,-5.483,-5.3951,-5.3874,0.0,0.0,0.0,0.0,-5.1181,-4.9843,-4.9033,-4.8869,-4.6683,-4.4572,0.0,-4.0348,-3.7526,-3.4217,-3.4083,-3.3588,-3.2863,0.0,0.0,-4.0164,-4.3075,0.0,-4.5513,-4.5513,-4.5559,-4.5594,-4.5594,-4.5594,-4.5594,-4.5594,-4.5594,-4.5594,-4.5629,-4.5637,-4.5637,-4.5637,-4.5643,-4.5648,-4.5648,-4.5648,-4.568,-4.5787,-4.5822,-4.5835,-4.5924,-4.5915,-4.5832,-4.558,-4.5493,-4.5531,-4.5654,-4.5436,-4.5003,-4.4284,0.0,0.0,0.0,0.0,0.0,0.0,0.0,0.0,0.0,0.0,0.0,0.0,0.0,-3.295,-3.2368,0.0,0.0,0.0,0.0,0.0,0.0,0.0,0.0,0.0,0.0,0.0,-4.2401,-4.2713,-4.3609,-4.5015,-4.5151,-4.5622,-4.6305,-4.6305,-4.6305,-4.6305,-4.6293,-4.6297,-4.6301,-4.6302,-4.6302,-4.6301,-4.6303,-4.625,-4.6168,-4.8131,0.0,0.0,0.0,0.0,0.0,0.0,-5.2574,0.0,-5.285,-5.3531,-5.4046,-5.4046,-5.4868,-5.5231,-5.4811,-5.4772,-5.4409,-5.3531,-5.311,-5.2518,-5.1627,-5.0837,0.0,-4.9129,-4.7455,-4.5545,-4.3414,-4.0922,-3.8179,-3.5291,-3.484,-3.3964,-3.2898,0.0,-3.7923,0.0,0.0,0.0,-4.5438,-4.5438,-4.5476,-4.5495,-4.5495,-4.5513,-4.5559,-4.5559,-4.5568,-4.5594,-4.5594,-4.5594,-4.5594,-4.5594,-4.5594,-4.5594,-4.5594,-4.5594,-4.5612,-4.5676,-4.57,-4.5719,-4.5816,-4.5796,-4.5776,-4.5872,-4.5875,-4.5883,-4.5973,-4.5996,-4.5496,-4.3891,-4.1852,0.0,0.0,0.0,0.0,0.0,0.0,0.0,0.0,0.0,0.0,0.0,0.0,0.0,0.0,0.0,0.0,0.0,0.0,0.0,0.0,0.0,0.0,0.0,0.0,0.0,-4.1732,-4.263,-4.3509,-4.4367,-4.5265,-4.5909,-4.63,-4.63,-4.63,-4.6302,-4.6305,-4.6309,-4.6293,-4.6296,-4.6295,-4.6294,-4.63,-4.6286,-4.623,0.0,-4.9972,0.0,0.0,-5.1196,0.0,-5.1912,-5.3512,-5.4333,-5.3346,-5.3302,-5.3339,-5.3339,-5.4581,-5.5403,-5.5403,-5.5403,-5.5116,-5.4428,-5.4199,-5.3511,-5.2193,-5.1964,-5.1162,-4.9652,-4.8621,-4.6844,0.0,0.0,-3.9155,-3.6481,-3.5793,-3.4901,-3.3976,0.0,0.0,0.0,0.0,-4.4653,-4.541,-4.541,-4.539,-4.54,-4.54,-4.5438,-4.5504,-4.5485,-4.5513,-4.5577,-4.5577,-4.5586,-4.5594,-4.5594,-4.5594,-4.5594,-4.5594,-4.5594,-4.5594,-4.5594,-4.5594,-4.5629,-4.5727,-4.5676,-4.5651,-4.5796,-4.5802,-4.578,-4.5858,-4.5883,-4.5342,-4.3545,-4.2287,0.0,0.0,0.0,0.0,0.0,0.0,0.0,0.0,0.0,0.0,0.0,0.0,0.0,0.0,0.0,0.0,0.0,0.0,0.0,0.0,0.0,0.0,-4.0816,0.0,-4.1109,0.0,-4.2689,-4.3528,-4.3744,-4.5304,-4.6124,-4.63,-4.63,-4.63,-4.63,-4.63,-4.63,-4.6302,-4.6308,-4.6306,-4.6302,-4.6295,-4.6295,-4.6295,0.0,0.0,0.0,0.0,0.0,0.0,0.0,-5.3712,-5.4406,-5.4598,-5.4939,-5.5154,-5.5154,-5.5307,-5.5403,-5.5403,-5.5403,-5.5365,-5.5288,-5.4543,-5.4027,-5.3874,-5.311,-5.227,-5.1391,-4.9805,-4.7723,0.0,0.0,-3.9718,-3.65,-3.6424,-3.67,-3.732,0.0,0.0,0.0,-4.3713,-4.4604,-4.5389,-4.5389,-4.54,-4.54,-4.54,-4.5438,-4.5495,-4.5429,-4.5448,-4.5504,-4.5504,-4.5559,-4.5594,-4.5594,-4.5594,-4.5594,-4.5594,-4.5594,-4.5594,-4.5594,-4.5594,-4.5594,-4.5612,-4.5603,-4.5603,-4.5618,-4.561,-4.5651,-4.5773,-4.5865,-4.5147,-4.268,-4.2743,-4.2168,0.0,0.0,0.0,0.0,0.0,-3.7976,-3.7102,0.0,0.0,0.0,0.0,0.0,0.0,0.0,0.0,0.0,0.0,0.0,0.0,0.0,-3.9099,-3.9917,-4.0717,0.0,-4.1109,-4.2064,-4.2942,-4.3725,-4.4699,-4.5558,-4.63,-4.63,-4.63,-4.63,-4.63,-4.63,-4.63,-4.6302,-4.6302,-4.63,-4.6302,-4.6302,-4.6302,0.0,0.0,0.0,0.0,0.0,0.0,0.0,-5.3591,-5.3979,-5.4121,-5.467,-5.5038,-5.5038,-5.526,-5.5403,-5.5403,-5.5403,-5.5403,-5.5403,-5.5078,-5.4658,-5.4123,-5.376,-5.3187,-5.2346,-5.0684,-4.8831,0.0,0.0,0.0,0.0,0.0,0.0,0.0,0.0,-4.3177,-4.438,-4.5757,-4.6532,-4.6838,-4.6838,-4.683,-4.6832,-4.6832,-4.6882,-4.6876,-4.6319,-4.6157,-4.6139,-4.563,-4.5485,-4.555,-4.5586,-4.5594,-4.5594,-4.5594,-4.5594,-4.5594,-4.5594,-4.5594,-4.5594,-4.5594,-4.5594,-4.5594,-4.5594,-4.5594,-4.5612,-4.5668,-4.5287,-4.4645,-4.3717,-4.258,-4.1535,0.0,0.0,0.0,0.0,0.0,0.0,-3.7852,0.0,-3.5318,0.0,0.0,0.0,0.0,0.0,-3.1327,-3.2558,0.0,0.0,-3.6441,0.0,-3.8982,-3.98,-4.0659,-4.1109,-4.1109,-4.1986,-4.2864,-4.3725,-4.4602,-4.548,-4.63,-4.63,-4.63,-4.63,-4.63,-4.63,-4.63,-4.63,-4.63,-4.63,-4.63,-4.63,-4.63,-5.5907,0.0,-5.3633,0.0,-5.3302,-5.239,-5.3081,-5.34,-5.3545,-5.3545,-5.4104,-5.4525,-5.4639,-5.4922,-5.5118,-5.5214,-5.5214,-5.5273,-5.539,-5.5403,-5.5135,-5.4505,-5.4486,0.0,-5.3206,-5.1773,-5.0206,-4.8533,-4.6241,0.0,0.0,-4.2144,0.0,0.0,-4.4208,-4.522,-4.6118,-4.7302,-4.7788,-4.7788,-4.7788,-4.7788,-4.7788,-4.7788,-4.7851,-4.7818,-4.7176,-4.6997,-4.6961,-4.6329,-4.5994,-4.5793,-4.5627,-4.5577,-4.5594,-4.5594,-4.5594,-4.5594,-4.5594,-4.5594,-4.5605,-4.5577,-4.5568,-4.5568,-4.5568,-4.5559,-4.555,-4.5568,-4.4885,-4.4262,-4.4117,-4.2398,-4.1087,0.0,0.0,0.0,0.0,0.0,0.0,0.0,-3.6507,-3.5163,-3.4759,0.0,0.0,0.0,0.0,-3.1884,-3.2796,0.0,0.0,0.0,0.0,0.0,0.0,0.0,-4.1072,-4.1072,-4.1917,-4.2795,-4.3706,-4.485,-4.5714,-4.63,-4.63,-4.63,-4.63,-4.63,-4.63,-4.63,-4.63,-4.63,-4.63,-4.63,-4.63,-4.63,-5.5614,-5.5578,-5.5321,-5.4528,-5.4381,-5.4087,-5.3314,-5.3206,-5.3206,-5.3206,-5.3504,-5.3851,-5.4262,-5.4315,-5.4446,-5.4776,-5.4806,-5.4976,-5.5358,-5.5403,-5.5403,0.0,0.0,-5.4982,-5.4104,-5.3225,-5.1945,-5.0264,0.0,0.0,-4.6424,-4.5621,-4.566,-4.6443,-4.6462,-4.6948,-4.7769,-4.7788,-4.7788,-4.7788,-4.7788,-4.7788,-4.7788,-4.7788,-4.7851,-4.7884,-4.781,-4.7832,-4.7875,-4.7875,-4.7301,-4.6471,-4.5735,-4.555,-4.5594,-4.5594,-4.5594,-4.5594,-4.5594,-4.5594,-4.5577,-4.5513,-4.5504,-4.5504,-4.5504,-4.5448,-4.5419,-4.5495,-4.4867,-4.4066,-4.3258,-4.2393,-4.1266,-3.9683,0.0,0.0,0.0,0.0,0.0,0.0,-3.5911,-3.4695,-3.5412,0.0,0.0,0.0,0.0,0.0,0.0,0.0,0.0,-3.6882,-3.7903,0.0,-3.9688,-4.0565,-4.0994,-4.101,-4.1758,-4.2622,-4.365,-4.5462,-4.628,-4.63,-4.63,-4.63,-4.63,-4.63,-4.63,-4.63,-4.63,-4.63,-4.63,-4.63,-4.63,-4.63,-5.7226,-5.6785,-5.6345,-5.6088,-5.5133,-5.4308,-5.4069,-5.3555,-5.3185,-5.3185,-5.3293,-5.34,-5.3541,-5.3999,-5.433,0.0,-5.4463,-5.4511,0.0,-5.4642,-5.4642,-5.4642,-5.4642,-5.4528,-5.4245,-5.338,-5.2379,-5.125,0.0,0.0,0.0,-4.6456,-4.6456,-4.6739,-4.7324,-4.788,-4.8384,-4.8929,-4.9295,-4.95,-4.95,-4.95,-4.95,-4.95,-4.953,-4.9465,-4.8899,-4.8689,-4.8624,-4.8032,-4.7671,-4.7446,-4.7209,-4.6369,-4.5457,-4.5457,-4.5457,-4.5457,-4.5457,-4.5457,-4.5467,-4.5438,-4.5429,-4.5429,-4.5429,-4.5419,-4.541,-4.5429,-4.4786,-4.4143,-4.3893,-4.2684,-4.1569,-4.1061,0.0,0.0,0.0,0.0,0.0,0.0,-3.6733,-3.5764,0.0,-3.5455,0.0,0.0,0.0,0.0,0.0,0.0,0.0,0.0,-3.8093,0.0,-3.9567,-4.0427,-4.0855,-4.0874,-4.1101,-4.2049,-4.3666,-4.5384,-4.6214,-4.63,-4.63,-4.63,-4.63,-4.63,-4.63,-4.63,-4.63,-4.63,-4.63,-4.63,-4.63,-4.63,-5.7997,-5.7593,-5.7171,-5.6859,-5.5978,-5.5207,-5.4895,-5.4179,-5.3665,-5.3665,-5.339,-5.3185,-5.3185,-5.3601,0.0,-5.407,-5.407,-5.4141,-5.4298,-5.4315,-5.4315,-5.4315,-5.4315,-5.4315,-5.4315,0.0,0.0,-5.2198,-5.085,-4.9499,-4.8186,-4.8186,-4.8033,-4.7751,-4.8311,-4.8675,-4.8905,-4.9391,-4.973,-4.991,-4.991,-4.9993,-5.012,-5.012,-5.0181,-5.0225,-4.9729,-4.9538,-4.9461,-4.8926,-4.8567,-4.834,-4.834,-4.7416,-4.6251,-4.5966,-4.5649,-4.54,-4.54,-4.54,-4.54,-4.54,-4.54,-4.539,-4.537,-4.5381,-4.54,-4.54,-4.4758,-4.4192,-4.4192,-4.308,-4.2045,-4.1757,0.0,-4.078,-4.0409,0.0,0.0,0.0,0.0,0.0,0.0,-3.6765,0.0,0.0,0.0,0.0,0.0,0.0,0.0,-3.6524,-3.8456,0.0,-3.995,-4.0498,-4.0751,-4.077,-4.1391,-4.2495,-4.3981,-4.5397,-4.6064,-4.6147,-4.6209,-4.6216,-4.6238,-4.6275,-4.63,-4.63,-4.63,-4.63,-4.63,-4.63,-4.63,-4.63,-5.7997,-5.7997,0.0,0.0,-5.684,0.0,-5.5794,-5.4987,-5.4473,-5.4473,-5.383,-5.3369,-5.3369,-5.3314,-5.3408,-5.3716,0.0,0.0,0.0,-5.421,-5.421,-5.421,-5.421,0.0,-5.421,-5.421,-5.3798,-5.2938,-5.2115,-5.131,-5.052,-5.052,-5.0108,-4.9409,-4.9409,-4.9387,-4.9346,-4.9346,-4.9324,-4.9299,-4.9299,-4.9498,-4.9776,-4.9776,-4.9955,-5.0224,-5.0224,-5.0224,-5.0224,-5.0224,-4.9739,-4.911,-4.911,-4.8518,-4.767,-4.6969,-4.6157,-4.5486,-4.5486,-4.5429,-4.5381,-4.5389,-4.5398,-4.5388,-4.5317,-4.5341,-4.5381,-4.5389,-4.4806,-4.4279,-4.4279,-4.356,-4.2717,-4.1902,-4.1674,-4.1293,-4.0413,0.0,0.0,0.0,0.0,0.0,0.0,-3.8003,-3.829,0.0,0.0,0.0,0.0,0.0,-3.5695,-3.8007,-3.8994,-3.9869,-4.0681,-4.0681,-4.072,-4.0797,-4.2486,-4.3711,-4.4537,-4.5475,-4.5894,-4.591,-4.6041,-4.6091,-4.6098,-4.6238,-4.6296,-4.6296,-4.63,-4.63,-4.63,-4.63,-4.63,-4.63,0.0,0.0,-5.7941,-5.7758,-5.7207,-5.6748,-5.6547,-5.5831,-5.5317,-5.5317,-5.5133,-5.5023,-5.5023,-5.4473,-5.4148,-5.4236,-5.3665,-5.3357,-5.344,-5.3461,-5.3461,-5.3461,-5.3461,-5.3461,-5.3461,-5.3461,-5.3073,-5.2242,-5.2039,-5.1503,-5.0728,-5.0728,-5.0617,-5.0452,-5.0452,-5.0231,-4.9829,-4.9829,-4.9643,-4.9299,-4.9299,-4.9363,-4.9424,-4.9424,-4.9468,-4.9541,-4.9541,-4.9541,-4.9541,-4.9541,-4.9409,-4.9258,-4.9258,-4.8697,-4.7956,-4.7632,-4.6915,-4.6237,-4.6237,-4.5797,-4.5319,-4.5328,-4.5317,-4.5317,-4.5307,-4.5298,-4.5319,-4.5328,-4.5175,-4.5032,-4.5032,-4.4334,-4.3473,-4.268,-4.2011,-4.1303,-4.0424,-3.9419,0.0,0.0,-3.8666,-3.8226,-3.7785,-3.8943,-3.899,0.0,0.0,0.0,0.0,0.0,-3.8278,-3.8969,-3.9803,-4.0337,-4.0549,-4.0549,-4.0877,-4.1563,-4.3246,-4.4203,-4.453,-4.5415,-4.5853,-4.5905,-4.593,-4.5959,-4.5969,-4.6095,-4.6144,-4.617,-4.6269,-4.63,-4.63,-4.63,-4.63,-4.63,-5.7927,-5.795,-5.7997,-5.7997,-5.7648,-5.7354,-5.7354,-5.6675,-5.6143,-5.6143,-5.5831,-5.5614,-5.5614,-5.5207,-5.4803,-5.4436,-5.3665,-5.3185,-5.3185,-5.3185,-5.3185,-5.3185,-5.3185,-5.3185,-5.3185,-5.3185,-5.3004,-5.2546,-5.2546,-5.2142,-5.1353,-5.1353,-5.1151,-5.0802,-5.0802,-5.0646,-5.0379,-5.0379,-5.0213,-4.9984,-4.9984,-4.9846,-4.9625,-4.9625,-4.9479,-4.9299,-4.9299,-4.9299,-4.9299,-4.9299,-4.9299,-4.9299,-4.9299,-4.9002,-4.863,-4.8524,-4.7707,-4.6801,-4.6563,-4.6175,-4.5755,-4.5392,-4.5307,-4.5307,-4.5307,-4.5307,-4.5307,-4.5307,-4.5307,-4.5307,-4.5307,-4.459,-4.3739,-4.2928,-4.2106,-4.1256,-4.0425,-3.9583,0.0,-3.9546,-3.9603,-3.9546,-3.9451,-4.0291,-4.0281,-3.8885,0.0,0.0,-3.8342,-3.9172,-3.955,-3.9223,-4.003,-4.046,-4.0503,-4.0904,-4.172,-4.2951,-4.3874,-4.4548,-4.5021,-4.5484,-4.5723,-4.5769,-4.5835,-4.5859,-4.5871,-4.5964,-4.6005,-4.6028,-4.6095,-4.6128,-4.6128,-4.6128,-4.6128,-4.6135,-5.7792,-5.7862,-5.795,-5.795,-5.795,-5.795,-5.795,-5.7359,-5.6919,-5.6919,-5.6337,-5.5896,-5.5896,-5.5827,-5.5423,-5.4616,-5.3827,-5.3335,-5.3203,-5.3185,-5.3185,-5.3185,-5.3185,-5.3185,-5.3185,-5.3185,-5.3185,-5.3185,-5.3185,-5.2858,-5.2179,-5.2179,-5.1811,-5.1169,-5.1169,-5.1096,-5.0986,-5.0986,-5.0912,-5.0802,-5.0802,-5.0522,-5.012,-5.012,-4.9868,-4.9519,-4.9519,-4.946,-4.9348,-4.9348,-4.9255,-4.9161,-4.9161,-4.9161,-4.9177,-4.9206,-4.8411,-4.7418,-4.688,-4.6561,-4.6161,-4.5371,-4.5162,-4.5162,-4.5162,-4.5162,-4.5162,-4.5162,-4.5162,-4.5162,-4.5162,-4.456,-4.377,-4.2867,-4.2095,-4.1303,-4.0416,0.0,-3.9661,-4.0377,-4.0587,-4.096,-4.1628,-4.1705,-4.1705,-4.1705,-4.094,0.0,0.0,-4.0621,-4.0294,-3.968,-4.0273,-4.0682,-4.0858,-4.1745,-4.2885,-4.4308,-4.4432,-4.4874,-4.5594,-4.5594,-4.5594,-4.5603,-4.5712,-4.5771,-4.5786,-4.5846,-4.5878,-4.5897,-4.5894,-4.5899,-4.5899,-4.5899,-4.5899,-4.5915,-5.7649,-5.7649,-5.7673,-5.7673,-5.7673,-5.7673,-5.7673,-5.7564,-5.7491,-5.7491,-5.7381,-5.7308,-5.7308,-5.6776,-5.6113,-5.5308,-5.4609,-5.394,-5.3243,-5.3185,-5.3185,-5.3185,-5.3185,-5.3185,-5.3185,-5.3185,-5.3185,-5.3185,-5.3185,-5.3151,-5.3023,-5.3023,-5.2968,-5.2839,-5.2839,-5.2454,-5.1811,-5.1811,-5.1426,-5.0802,-5.0802,-5.075,-5.0681,-5.0681,-5.0647,-5.0557,-5.0557,-5.0135,-4.9564,-4.9564,-4.9048,-4.8458,-4.8458,-4.8458,-4.8514,-4.878,-4.8732,-4.8457,-4.798,-4.6826,-4.5546,-4.4745,-4.4552,-4.4552,-4.4552,-4.4552,-4.4552,-4.4552,-4.4552,-4.4552,-4.4552,-4.4425,-4.3919,-4.2595,-4.2268,-4.1746,0.0,0.0,-4.1151,-4.1304,-4.1953,-4.2469,-4.2584,-4.2603,-4.2603,-4.2603,-4.1791,-4.1638,-4.2364,-4.1724,-4.159,-4.2202,-4.1751,-4.1834,-4.2524,-4.3441,-4.4044,-4.4322,-4.5049,-4.5479,-4.5594,-4.5594,-4.5594,-4.5594,-4.562,-4.5637,-4.5646,-4.5759,-4.5822,-4.5809,-4.5881,-4.5899,-4.5899,-4.5899,-4.5899,-4.5905,-5.7504,-5.7553,-5.7601,-5.7601,-5.7601,-5.7601,-5.7601,-5.7601,-5.7601,-5.7601,-5.7601,-5.7601,-5.7601,-5.7321,-5.6797,-5.5993,-5.5679,-5.4952,-5.3727,-5.336,-5.3185,-5.3185,-5.3185,-5.3185,-5.3185,-5.3185,-5.3185,-5.3185,-5.3185,-5.3185,-5.3185,-5.3185,-5.3185,-5.3185,-5.3185,-5.3004,-5.2656,-5.2656,-5.2435,-5.2105,-5.2105,-5.183,-5.1444,-5.1444,-5.1187,-5.0802,-5.0802,-5.0563,-5.0251,-5.0251,-4.9682,-4.9003,-4.9003,-4.8673,-4.8344,-4.8477,-4.8484,-4.8389,-4.8156,-4.7188,-4.6063,-4.5251,-4.5045,-4.4932,-4.4496,-4.4397,-4.4397,-4.4397,-4.4397,-4.4397,-4.4397,-4.4026,-4.349,-4.2837,-4.236,0.0,0.0,-4.1484,-4.1711,-4.1711,-4.2606,-4.3235,-4.3235,-4.3372,-4.3452,-4.3452,-4.2679,-4.2374,-4.2775,-4.2412,-4.2584,-4.3414,-4.269,-4.2689,-4.3551,-4.401,-4.446,-4.4901,-4.5293,-4.5495,-4.5495,-4.5495,-4.5495,-4.5495,-4.5495,-4.5495,-4.5504,-4.5554,-4.5588,-4.5596,-4.5661,-4.5679,-4.5699,-4.572,-4.5747,-4.5761,-5.7363,-5.7455,-5.7504,-5.7504,-5.7504,-5.7504,-5.7504,-5.7504,-5.7504,-5.7504,-5.7504,-5.7504,-5.7504,-5.7534,-5.7225,-5.6418,-5.6392,-5.5791,-5.4369,-5.3891,-5.3506,-5.3182,-5.3185,-5.3185,-5.3185,-5.3185,-5.3185,-5.3185,-5.3185,-5.3185,-5.3185,-5.3185,-5.3185,-5.3185,-5.3185,-5.3185,-5.3185,-5.3185,-5.3185,-5.3185,-5.3185,-5.2839,-5.227,-5.227,-5.1903,-5.1371,-5.1371,-5.1242,-5.1077,-5.1077,-5.0527,-4.9886,-4.9886,-4.9407,-4.8838,-4.8655,-4.8381,-4.8098,-4.7911,-4.7388,-4.6682,-4.5876,-4.5521,-4.5238,-4.4617,-4.4318,-4.4202,-4.4202,-4.4202,-4.4202,-4.4202,-4.3631,-4.3146,-4.303,0.0,0.0,0.0,-4.2058,-4.2171,-4.2171,-4.3127,-4.3793,-4.3793,-4.3973,-4.4094,-4.4094,-4.3406,-4.3075,-4.3247,-4.3146,-4.3463,-4.4274,-4.3694,-4.3694,-4.4364,-4.4451,-4.4787,-4.541,-4.54,-4.54,-4.54,-4.54,-4.54,-4.54,-4.54,-4.54,-4.54,-4.54,-4.54,-4.541,-4.5467,-4.5485,-4.5485,-4.5522,-4.5559,-4.5566,-5.7232,-5.7213,-5.7232,-5.7232,-5.7232,-5.7232,-5.7232,-5.7232,-5.7232,-5.7232,-5.7232,-5.7232,-5.7232,-5.7338,-5.7079,-5.6279,-5.6321,-5.6028,-5.5176,-5.5067,-5.4442,-5.3054,-5.3124,-5.3185,-5.3185,-5.3185,-5.3185,-5.3185,-5.3185,-5.3185,-5.3185,-5.3185,-5.3185,-5.3185,-5.3185,-5.3185,-5.3185,-5.3185,-5.3185,-5.3185,-5.3185,-5.3148,-5.3115,-5.3115,-5.3057,-5.3023,-5.3023,-5.2546,-5.1903,-5.1903,-5.1371,-5.071,-5.071,-5.0674,-5.0472,-4.9721,-4.8932,-4.8125,-4.739,-4.7132,-4.6893,-4.6066,-4.5312,-4.4743,-4.4687,-4.4098,-4.3565,-4.3565,-4.3565,-4.3565,-4.3565,-4.351,-4.3316,-4.2807,0.0,0.0,-4.1962,-4.2541,-4.301,-4.301,-4.3815,-4.4349,-4.4349,-4.4363,-4.4377,-4.4377,-4.3857,-4.3876,-4.4616,-4.4176,-4.4322,-4.5182,-4.5154,-4.5154,-4.5211,-4.5282,-4.5331,-4.5389,-4.54,-4.54,-4.54,-4.54,-4.54,-4.54,-4.54,-4.54,-4.54,-4.54,-4.54,-4.541,-4.541,-4.541,-4.541,-4.5419,-4.5419,-4.5429,-5.6101,-5.6393,-5.6635,-5.6635,-5.6941,-5.7188,-5.7188,-5.7188,-5.7188,-5.7188,-5.7188,-5.7188,-5.7188,-5.7257,-5.7155,-5.6865,-5.6878,-5.6558,-5.5741,-5.5776,-5.5202,-5.38,-5.3792,-5.3634,-5.3203,-5.3185,-5.3185,-5.3185,-5.3185,-5.3185,-5.3185,-5.3185,-5.3185,-5.3185,-5.3185,-5.3185,-5.3185,-5.3185,-5.3185,-5.3185,-5.3185,-5.3185,-5.3185,-5.3185,-5.3185,-5.3185,-5.3185,-5.3004,-5.2747,-5.2747,-5.2215,-5.1536,-5.1536,-5.1206,-5.0637,-4.9849,-4.9372,-4.8912,-4.8086,-4.7828,-4.7645,-4.6856,-4.6397,-4.592,-4.4929,-4.447,-4.4103,-4.3606,-4.3515,-4.3515,-4.3515,-4.3515,-4.3439,-4.3225,0.0,-4.3125,-4.2924,-4.3159,-4.3344,-4.3344,-4.3825,-4.4151,-4.4151,-4.4303,-4.4397,-4.4397,-4.421,-4.4304,-4.4769,-4.4805,-4.4953,-4.5288,-4.5307,-4.5307,-4.5307,-4.5328,-4.5338,-4.5338,-4.5339,-4.535,-4.535,-4.535,-4.535,-4.535,-4.535,-4.535,-4.535,-4.535,-4.535,-4.535,-4.538,-4.54,-4.54,-4.539,-4.54,-4.541,-5.5385,-5.5733,-5.6035,-5.6035,-5.6348,-5.6617,-5.6635,-5.6635,-5.6688,-5.6889,-5.6915,-5.6984,-5.7163,-5.7188,-5.7188,-5.7188,-5.7188,-5.6971,-5.641,-5.6448,-5.5927,-5.4578,-5.4267,-5.3928,-5.3463,-5.3231,-5.3143,-5.3143,-5.3185,-5.3185,-5.3185,-5.3185,-5.3185,-5.3185,-5.3185,-5.3185,-5.3185,-5.3185,-5.3185,-5.3185,-5.3185,-5.3185,-5.3185,-5.3185,-5.3185,-5.3185,-5.3185,-5.3185,-5.3185,-5.3185,-5.2839,-5.238,-5.238,-5.1811,-5.1059,-5.0528,-5.018,-4.9794,-4.893,-4.871,-4.8508,-4.7681,-4.7278,-4.6801,-4.57,-4.5278,-4.4856,-4.403,-4.3883,-4.3791,-4.3551,-4.3515,-4.3515,-4.3515,-4.3515,-4.3515,-4.3515,-4.3515,-4.3515,-4.3515,-4.3699,-4.3846,-4.3846,-4.4011,-4.4129,-4.4129,-4.4217,-4.4402,-4.4663,-4.4887,-4.503,-4.503,-4.503,-4.503,-4.503,-4.5213,-4.5307,-4.5307,-4.5307,-4.5307,-4.5307,-4.5307,-4.5307,-4.5307,-4.5307,-4.5307,-4.5307,-4.5307,-4.5307,-4.5307,-4.5348,-4.5378,-4.5369,-4.5361,-4.537,-4.538,-5.5402,-5.5385,-5.5385,-5.5385,-5.5349,-5.5332,-5.5385,-5.5385,-5.5618,-5.6229,-5.6284,-5.6528,-5.7112,-5.7206,-5.7206,-5.7206,-5.7206,-5.7206,-5.7206,-5.7206,-5.6581,-5.5262,-5.4424,-5.4005,-5.4005,-5.3336,-5.2999,-5.2999,-5.3124,-5.3185,-5.3185,-5.3185,-5.3185,-5.3185,-5.3185,-5.3185,-5.3185,-5.3185,-5.3185,-5.3185,-5.3185,-5.3185,-5.3185,-5.3185,-5.3185,-5.3185,-5.3185,-5.3185,-5.3185,-5.3185,-5.3185,-5.3185,-5.3185,-5.2656,-5.1995,-5.1995,-5.1426,-5.0637,-4.9831,-4.961,-4.939,-4.8526,-4.77,-4.7113,-4.7094,-4.6489,-4.5681,-4.4892,-4.4727,-4.447,-4.3644,-4.3515,-4.3515,-4.3515,-4.3515,-4.3515,-4.3515,-4.3515,-4.3515,-4.3515,-4.3515,-4.3515,-4.3515,-4.3515,-4.3515,-4.3515,-4.3814,-4.4106,-4.4369,-4.4397,-4.4397,-4.4397,-4.4397,-4.4397,-4.4397,-4.4988,-4.5297,-4.5297,-4.5297,-4.5297,-4.5297,-4.5297,-4.5307,-4.5307,-4.5307,-4.5307,-4.5307,-4.5307,-4.5307,-4.5307,-4.5307,-4.5307,-4.5307,-4.5307,-4.5307,-4.5307,-5.4078,-5.4394,-5.4703,-5.4703,-5.5069,-5.5367,-5.5385,-5.5385,-5.5473,-5.5647,-5.5676,-5.5733,-5.5932,-5.5932,-5.5932,-5.5932,-5.5932,-5.5932,-5.5932,-5.5932,-5.5748,-5.5352,-5.4921,-5.4277,-5.3394,-5.3031,-5.285,-5.285,-5.2912,-5.2955,-5.306,-5.306,-5.3103,-5.3185,-5.3185,-5.3185,-5.3185,-5.3185,-5.3185,-5.3185,-5.3185,-5.3185,-5.3185,-5.3185,-5.3185,-5.3185,-5.3185,-5.3185,-5.3185,-5.3185,-5.3185,-5.3185,-5.3185,-5.3041,-5.2729,-5.216,-5.183,-5.1463,-5.0655,-5.0013,-4.939,-4.8526,-4.8122,-4.7791,-4.7223,-4.6911,-4.6507,-4.5718,-4.5535,-4.5296,-4.4488,-4.4342,-4.4158,-4.3589,-4.3515,-4.3515,-4.3515,-4.3515,-4.3515,-4.3515,-4.3515,-4.3515,-4.3515,-4.3515,-4.3515,-4.3515,-4.3814,-4.4033,-4.4106,-4.4289,-4.4397,-4.4397,-4.4397,-4.4397,-4.4397,-4.4578,-4.4669,-4.4669,-4.4862,-4.4946,-4.4957,-4.5184,-4.5307,-4.5307,-4.5307,-4.5307,-4.5307,-4.5307,-4.5307,-4.5307,-4.5307,-4.5307,-4.5307,-4.5307,-4.5307,-4.5307,-5.3501,-5.3783,-5.4027,-5.4027,-5.4379,-5.4662,-5.4662,-5.4662,-5.4738,-5.4978,-5.5009,-5.5117,-5.5355,-5.5385,-5.5385,-5.5385,-5.5385,-5.5385,-5.5385,-5.5385,-5.5296,-5.5026,-5.4819,-5.4184,-5.3077,-5.2673,-5.2354,-5.2048,-5.2096,-5.2302,-5.259,-5.2613,-5.2765,-5.3039,-5.3103,-5.3124,-5.3124,-5.3185,-5.3185,-5.3185,-5.3185,-5.3185,-5.3185,-5.3185,-5.3185,-5.3185,-5.3185,-5.3185,-5.3185,-5.3185,-5.3185,-5.3185,-5.3185,-5.3185,-5.3093,-5.2619,-5.2472,-5.2307,-5.1481,-5.0912,-5.0363,-4.9499,-4.8802,-4.8177,-4.7681,-4.7571,-4.7351,-4.6544,-4.6379,-4.614,-4.5333,-4.5168,-4.4911,-4.4103,-4.3975,-4.3864,-4.3551,-4.3515,-4.3515,-4.3515,-4.3515,-4.3515,-4.3515,-4.3515,-4.3515,-4.3515,-4.3682,-4.3814,-4.3814,-4.3968,-4.4038,-4.4038,-4.4038,-4.4038,-4.4038,-4.4038,-4.4154,-4.4397,-4.4559,-4.4637,-4.465,-4.4957,-4.5109,-4.5109,-4.5246,-4.5307,-4.5307,-4.5307,-4.5307,-4.5307,-4.5307,-4.5307,-4.5307,-4.5307,-4.5307,-4.5307,-5.3501,-5.3501,-5.3501,-5.3501,-5.3501,-5.3501,-5.3501,-5.3501,-5.3701,-5.4249,-5.4313,-5.4548,-5.5147,-5.5224,-5.5224,-5.5224,-5.5224,-5.5224,-5.5224,-5.5224,-5.4966,-5.4345,-5.4196,-5.3725,-5.2879,-5.2298,-5.1615,-5.0885,-5.0999,-5.1353,-5.1897,-5.1904,-5.2208,-5.2739,-5.2787,-5.2853,-5.2934,-5.2977,-5.302,-5.3039,-5.3039,-5.3039,-5.306,-5.306,-5.3082,-5.3121,-5.306,-5.3103,-5.3185,-5.3164,-5.3164,-5.3164,-5.3185,-5.3185,-5.3185,-5.3185,-5.3185,-5.3041,-5.2307,-5.205,-5.1811,-5.1037,-4.9641,-4.845,-4.8415,-4.8361,-4.8104,-4.7351,-4.7204,-4.6947,-4.6159,-4.6012,-4.5736,-4.4947,-4.4801,-4.4562,-4.3827,-4.3662,-4.3625,-4.3625,-4.3551,-4.3515,-4.3515,-4.3515,-4.3515,-4.3515,-4.3515,-4.3515,-4.3515,-4.3515,-4.3515,-4.3515,-4.3515,-4.3515,-4.3515,-4.3515,-4.3777,-4.4313,-4.436,-4.4355,-4.4374,-4.4637,-4.4763,-4.4776,-4.5087,-4.5224,-4.5224,-4.5246,-4.5256,-4.5256,-4.5297,-4.5307,-4.5307,-4.5307,-4.5307,-4.5307,-5.3501,-5.3501,-5.3501,-5.3501,-5.3501,-5.3501,-5.3501,-5.3501,-5.3568,-5.3668,-5.3701,-5.3767,-5.3882,-5.3915,-5.3915,-5.3915,-5.3915,-5.3915,-5.3915,-5.3915,-5.3866,-5.3701,-5.3663,-5.2995,-5.1614,-5.1813,-5.1532,-5.0734,-5.0761,-5.0911,-5.1121,-5.1147,-5.1497,-5.2155,-5.1721,-5.177,-5.2179,-5.1746,-5.1629,-5.1703,-5.1703,-5.1813,-5.1939,-5.1939,-5.2203,-5.2499,-5.1934,-5.2284,-5.302,-5.2912,-5.289,-5.2912,-5.2999,-5.3042,-5.3063,-5.3164,-5.3185,-5.317,-5.3004,-5.2472,-5.1857,-5.1257,-5.0366,-4.958,-4.9365,-4.8783,-4.8251,-4.8067,-4.8049,-4.7791,-4.6984,-4.6837,-4.6581,-4.5773,-4.5645,-4.5571,-4.5406,-4.4837,-4.4452,-4.4452,-4.3883,-4.3515,-4.3515,-4.3515,-4.3515,-4.3515,-4.3515,-4.3515,-4.3515,-4.3515,-4.3515,-4.3515,-4.3515,-4.3515,-4.3515,-4.3515,-4.3565,-4.3714,-4.3952,-4.4094,-4.4109,-4.436,-4.4479,-4.4493,-4.4546,-4.4591,-4.4617,-4.4819,-4.4922,-4.4934,-4.5194,-4.5307,-4.5307,-4.5307,-4.5307,-4.5307,-5.3501,-5.3501,-5.3501,-5.3501,-5.3501,-5.3501,-5.3501,-5.3501,-5.3501,-5.3501,-5.3501,-5.3501,-5.3501,-5.3501,-5.3501,-5.3501,-5.3501,-5.3501,-5.3501,-5.3501,-5.3501,-5.3501,-5.3501,-5.2942,-5.1758,-5.1624,-5.1023,-4.9896,-4.9896,-5.0067,-5.0415,-5.0415,-5.0769,-5.1371,-5.1121,-5.1173,-5.1465,-5.1207,-5.1138,-5.1189,-5.1189,-5.1276,-5.1345,-5.1345,-5.159,-5.1819,-5.1454,-5.1679,-5.2172,-5.203,-5.1982,-5.2006,-5.206,-5.2083,-5.2125,-5.2172,-5.2196,-5.2196,-5.2284,-5.1976,-5.1623,-5.143,-5.0789,-4.9937,-4.9032,-4.8478,-4.8061,-4.7702,-4.763,-4.7503,-4.7086,-4.6993,-4.6821,-4.6221,-4.6132,-4.6081,-4.592,-4.5535,-4.5278,-4.5278,-4.4892,-4.4488,-4.4103,-4.3718,-4.3515,-4.3515,-4.3515,-4.3515,-4.3515,-4.3864,-4.4066,-4.4066,-4.4433,-4.4452,-4.4085,-4.4066,-4.4066,-4.4066,-4.3867,-4.3765,-4.3781,-4.4075,-4.4206,-4.4221,-4.4346,-4.4397,-4.4397,-4.4546,-4.4612,-4.4624,-4.4801,-4.4953,-4.5057,-4.5057,-4.5162,-4.5307,-5.3501,-5.3501,-5.3501,-5.3501,-5.3501,-5.3501,-5.3501,-5.3501,-5.3501,-5.3501,-5.3501,-5.3501,-5.3501,-5.3501,-5.3501,-5.3501,-5.3501,-5.3501,-5.3501,-5.3501,-5.3501,-5.3501,-5.3501,-5.3129,-5.2317,-5.1708,-5.0676,-4.9187,-4.9069,-4.926,-4.9762,-4.9762,-5.0028,-5.0562,-5.0562,-5.0616,-5.0724,-5.0734,-5.0743,-5.0787,-5.0787,-5.0787,-5.0814,-5.0814,-5.0947,-5.1104,-5.0999,-5.0999,-5.1051,-5.1051,-5.1034,-5.1051,-5.106,-5.1078,-5.106,-5.1086,-5.1086,-5.1112,-5.1233,-5.1258,-5.1284,-5.1355,-5.0876,-4.998,-4.842,-4.814,-4.7986,-4.7242,-4.7082,-4.7046,-4.6926,-4.6908,-4.6807,-4.6534,-4.6506,-4.6395,-4.6116,-4.5954,-4.59,-4.5974,-4.5938,-4.5645,-4.4984,-4.4305,-4.3919,-4.3919,-4.3919,-4.3919,-4.3919,-4.4544,-4.4911,-4.4911,-4.5553,-4.5571,-4.4911,-4.4911,-4.4911,-4.4911,-4.4232,-4.3919,-4.3919,-4.4188,-4.4244,-4.413,-4.4352,-4.4358,-4.426,-4.4318,-4.4332,-4.4332,-4.4369,-4.4533,-4.4726,-4.4726,-4.491,-4.5151,-5.3501,-5.3501,-5.3501,-5.3501,-5.3501,-5.3501,-5.3501,-5.3501,-5.3501,-5.3501,-5.3501,-5.3501,-5.3501,-5.3501,-5.3501,-5.3501,-5.3501,-5.3501,-5.3501,-5.3501,-5.3501,-5.3501,-5.3501,-5.3129,-5.2317,-5.2198,-5.142,-4.9949,-4.9306,-4.9032,-4.9107,-4.9107,-4.9436,-4.9988,-4.9496,-4.9555,-5.0017,-4.9496,-4.9346,-4.9466,-4.9466,-4.9555,-4.972,-4.972,-5.0017,-5.0359,-4.9727,-4.9727,-5.017,-5.0589,-5.0761,-5.0761,-5.0885,-5.0938,-5.0964,-5.1078,-5.1086,-5.1112,-5.1112,-5.1112,-5.1025,-5.0579,-5.04,-4.9983,-4.8654,-4.8706,-4.88,-4.8021,-4.7843,-4.767,-4.7033,-4.6908,-4.6895,-4.6833,-4.6838,-4.6825,-4.6784,-4.6175,-4.5896,-4.6271,-4.6081,-4.5865,-4.5755,-4.5645,-4.5571,-4.5571,-4.5571,-4.5571,-4.5571,-4.5681,-4.5736,-4.5736,-4.5847,-4.5847,-4.5736,-4.5736,-4.5736,-4.5736,-4.5626,-4.5571,-4.5571,-4.5625,-4.5257,-4.4614,-4.4648,-4.426,-4.3647,-4.3939,-4.4048,-4.4079,-4.4303,-4.4411,-4.4452,-4.4452,-4.4479,-4.4525,-5.3501,-5.3501,-5.3501,-5.3501,-5.3501,-5.3501,-5.3501,-5.3501,-5.3501,-5.3501,-5.3501,-5.3501,-5.3501,-5.3501,-5.3501,-5.3501,-5.3501,-5.3501,-5.3501,-5.3501,-5.3501,-5.3501,-5.3501,-5.3331,-5.2993,-5.2536,-5.1978,-5.1336,-5.0168,-4.9407,-4.9001,-4.9001,-4.9138,-4.9394,-4.9107,-4.9138,-4.9394,-4.9107,-4.9032,-4.9094,-4.9094,-4.9138,-4.9216,-4.9216,-4.9424,-4.9639,-4.9303,-4.9333,-4.9526,-4.9698,-4.9739,-4.9768,-4.9826,-4.9855,-4.9855,-4.9925,-4.9925,-4.9936,-5.0022,-5.0022,-5.0011,-4.9873,-4.9861,-4.9705,-4.9149,-4.9194,-4.9042,-4.7963,-4.7796,-4.7621,-4.6868,-4.6625,-4.6518,-4.6357,-4.6334,-4.6454,-4.6753,-4.656,-4.6458,-4.6639,-4.6377,-4.6184,-4.6184,-4.6011,-4.5902,-4.5902,-4.5902,-4.5902,-4.5902,-4.6342,-4.6562,-4.6562,-4.7021,-4.7021,-4.6562,-4.6562,-4.6562,-4.6562,-4.6562,-4.6342,-4.5902,-4.5902,-4.5718,-4.5369,-4.5369,-4.5168,-4.4855,-4.4994,-4.5063,-4.508,-4.5193,-4.5074,-4.4868,-4.5025,-4.4796,-4.4397]},{"header":{"parameterUnit":"m.s-1","parameterCategory":1,"la1":30.6,"la2":28.766,"lo1":-90.7593,"lo2":-88.6598,"dy":0.0162,"dx":0.0183,"nx":116,"ny":114,"refTime":"2024-07-02T12:00:00:Z","depth":0,"parameterNumber":3,"parameterNumberName":"V-component_of_WINDS"},"data":[0.0,0.0,0.0,0.0,0.0,0.0,0.0,0.0,0.0,0.0,0.0,0.0,0.0,0.0,0.0,0.0,0.0,0.0,0.0,0.0,0.0,0.0,0.0,0.0,0.0,0.0,0.0,0.0,0.0,0.0,0.0,0.0,0.0,0.0,0.0,0.0,0.0,0.0,0.0,0.0,0.0,0.0,0.0,0.0,0.0,0.0,0.0,0.0,0.0,0.0,0.0,0.0,0.0,0.0,0.0,0.0,0.0,0.0,0.0,0.0,0.0,0.0,0.0,0.0,0.0,0.0,0.0,0.0,0.0,0.0,0.0,0.0,0.0,0.0,0.0,0.0,0.0,0.0,0.0,0.0,0.0,0.0,0.0,0.0,0.0,0.0,0.0,0.0,0.0,0.0,0.0,0.0,0.0,0.0,0.0,0.0,0.0,0.0,0.0,0.0,0.0,0.0,0.0,0.0,0.0,0.0,0.0,0.0,0.0,0.0,0.0,0.0,0.0,0.0,0.0,0.0,0.0,0.0,0.0,0.0,0.0,0.0,0.0,0.0,0.0,0.0,0.0,0.0,0.0,0.0,0.0,0.0,0.0,0.0,0.0,0.0,0.0,0.0,0.0,0.0,0.0,0.0,0.0,0.0,0.0,0.0,0.0,0.0,0.0,0.0,0.0,0.0,0.0,0.0,0.0,0.0,0.0,0.0,0.0,0.0,0.0,0.0,0.0,0.0,0.0,0.0,0.0,0.0,0.0,0.0,0.0,0.0,0.0,0.0,0.0,0.0,0.0,0.0,0.0,0.0,0.0,0.0,0.0,0.0,0.0,0.0,0.0,0.0,0.0,0.0,0.0,0.0,0.0,0.0,0.0,0.0,0.0,0.0,0.0,0.0,0.0,0.0,0.0,0.0,0.0,0.0,0.0,0.0,0.0,0.0,0.0,0.0,0.0,0.0,0.0,0.0,0.0,0.0,0.0,0.0,0.0,0.0,0.0,0.0,0.0,0.0,0.0,0.0,0.0,0.0,0.0,0.0,0.0,0.0,0.0,0.0,0.0,0.0,0.0,0.0,0.0,0.0,0.0,0.0,0.0,0.0,0.0,0.0,0.0,0.0,0.0,0.0,0.0,0.0,0.0,0.0,0.0,0.0,0.0,0.0,0.0,0.0,0.0,0.0,0.0,0.0,0.0,0.0,0.0,0.0,0.0,0.0,0.0,0.0,0.0,0.0,0.0,0.0,0.0,0.0,0.0,0.0,0.0,0.0,0.0,0.0,0.0,0.0,0.0,0.0,0.0,0.0,0.0,0.0,0.0,0.0,0.0,0.0,0.0,0.0,0.0,0.0,0.0,0.0,0.0,0.0,0.0,0.0,0.0,0.0,0.0,0.0,0.0,0.0,0.0,0.0,0.0,0.0,0.0,0.0,0.0,0.0,0.0,0.0,0.0,0.0,0.0,0.0,0.0,0.0,0.0,0.0,0.0,0.0,0.0,0.0,0.0,0.0,0.0,0.0,0.0,0.0,0.0,0.0,0.0,0.0,0.0,0.0,0.0,0.0,0.0,0.0,0.0,0.0,0.0,0.0,0.0,0.0,0.0,0.0,0.0,0.0,0.0,0.0,0.0,0.0,0.0,0.0,0.0,0.0,0.0,0.0,0.0,0.0,0.0,0.0,0.0,0.0,0.0,0.0,0.0,0.0,0.0,0.0,0.0,0.0,0.0,0.0,0.0,0.0,0.0,0.0,0.0,0.0,0.0,0.0,0.0,0.0,0.0,0.0,0.0,0.0,0.0,0.0,0.0,0.0,0.0,0.0,0.0,0.0,0.0,0.0,0.0,0.0,0.0,0.0,0.0,0.0,0.0,0.0,0.0,0.0,0.0,0.0,0.0,0.0,0.0,0.0,0.0,0.0,0.0,0.0,0.0,0.0,0.0,0.0,0.0,0.0,0.0,0.0,0.0,0.0,0.0,0.0,0.0,0.0,0.0,0.0,0.0,0.0,0.0,0.0,0.0,0.0,0.0,0.0,0.0,0.0,0.0,0.0,0.0,0.0,0.0,0.0,0.0,0.0,0.0,0.0,0.0,0.0,0.0,0.0,0.0,0.0,0.0,0.0,0.0,0.0,0.0,0.0,0.0,0.0,0.0,0.0,0.0,0.0,0.0,0.0,0.0,0.0,0.0,0.0,0.0,0.0,0.0,0.0,0.0,0.0,0.0,0.0,0.0,0.0,0.0,0.0,0.0,0.0,0.0,0.0,0.0,0.0,0.0,0.0,0.0,0.0,0.0,0.0,0.0,0.0,0.0,0.0,0.0,0.0,0.0,0.0,0.0,0.0,0.0,0.0,0.0,0.0,0.0,0.0,0.0,0.0,0.0,0.0,0.0,0.0,0.0,0.0,0.0,0.0,0.0,0.0,0.0,0.0,0.0,0.0,0.0,0.0,0.0,0.0,0.0,0.0,0.0,0.0,0.0,0.0,0.0,0.0,0.0,0.0,0.0,0.0,0.0,0.0,0.0,0.0,0.0,0.0,0.0,0.0,0.0,0.0,0.0,0.0,0.0,0.0,0.0,0.0,0.0,0.0,0.0,0.0,0.0,0.0,0.0,0.0,0.0,0.0,0.0,0.0,0.0,0.0,0.0,0.0,0.0,0.0,0.0,0.0,0.0,0.0,0.0,0.0,0.0,0.0,0.0,0.0,0.0,0.0,0.0,0.0,0.0,0.0,0.0,0.0,0.0,0.0,0.0,0.0,0.0,0.0,0.0,0.0,0.0,0.0,0.0,0.0,0.0,0.0,0.0,0.0,0.0,0.0,0.0,0.0,0.0,0.0,0.0,0.0,0.0,0.0,0.0,0.0,0.0,0.0,0.0,0.0,0.0,0.0,0.0,0.0,0.0,0.0,0.0,0.0,0.0,0.0,0.0,0.0,0.0,0.0,0.0,0.0,0.0,0.0,0.0,0.0,0.0,0.0,0.0,0.0,0.0,0.0,0.0,0.0,0.0,0.0,0.0,0.0,0.0,0.0,0.0,0.0,0.0,0.0,0.0,0.0,0.0,0.0,0.0,0.0,0.0,0.0,0.0,0.0,0.0,0.0,0.0,0.0,0.0,0.0,0.0,0.0,0.0,0.0,0.0,0.0,0.0,0.0,0.0,0.0,0.0,0.0,0.0,0.0,0.0,0.0,0.0,0.0,0.0,0.0,0.0,0.0,0.0,0.0,0.0,0.0,0.0,0.0,0.0,0.0,0.0,0.0,0.0,0.0,0.0,0.0,0.0,0.0,0.0,0.0,0.0,0.0,0.0,0.0,0.0,0.0,0.0,0.0,0.0,0.0,0.0,0.0,0.0,0.0,0.0,0.0,0.0,0.0,0.0,0.0,0.0,0.0,0.0,0.0,0.0,0.0,0.0,0.0,0.0,0.0,0.0,0.0,0.0,0.0,0.0,0.0,0.0,0.0,0.0,0.0,0.0,0.0,0.0,0.0,0.0,0.0,0.0,0.0,0.0,0.0,0.0,0.0,0.0,0.0,0.0,0.0,0.0,0.0,0.0,0.0,0.0,0.0,0.0,0.0,0.0,0.0,0.0,0.0,0.0,0.0,0.0,0.0,0.0,0.0,0.0,0.0,0.0,0.0,0.0,0.0,0.0,0.0,0.0,0.0,0.0,0.0,0.0,0.0,0.0,0.0,0.0,0.0,0.0,0.0,0.0,0.0,0.0,0.0,0.0,0.0,0.0,0.0,0.0,0.0,0.0,0.0,0.0,0.0,0.0,0.0,0.0,0.0,0.0,0.0,0.0,0.0,0.0,0.0,0.0,0.0,0.0,0.0,0.0,0.0,0.0,0.0,0.0,0.0,0.0,0.0,0.0,0.0,0.0,0.0,0.0,0.0,0.0,0.0,0.0,0.0,0.0,0.0,0.0,0.0,0.0,0.0,0.0,0.0,0.0,0.0,0.0,0.0,0.0,0.0,0.0,0.0,0.0,0.0,0.0,0.0,0.0,0.0,0.0,0.0,0.0,0.0,0.0,0.0,0.0,0.0,0.0,0.0,0.0,0.0,0.0,0.0,0.0,0.0,0.0,0.0,0.0,0.0,0.0,0.0,0.0,0.0,0.0,0.0,0.0,0.0,0.0,0.0,0.0,0.0,0.0,0.0,0.0,0.0,0.0,0.0,0.0,0.0,0.0,0.0,0.0,0.0,0.0,0.0,0.0,0.0,0.0,0.0,0.0,0.0,0.0,0.0,0.0,0.0,0.0,0.0,0.0,0.0,0.0,0.0,0.0,0.0,0.0,0.0,0.0,0.0,0.0,0.0,0.0,0.0,0.0,0.0,0.0,0.0,0.0,0.0,0.0,0.0,0.0,0.0,0.0,0.0,0.0,0.0,0.0,0.0,0.0,0.0,0.0,0.0,0.0,0.0,0.0,0.0,0.0,0.0,0.0,0.0,0.0,0.0,0.0,0.0,0.0,0.0,0.0,0.0,0.0,0.0,0.0,0.0,0.0,0.0,0.0,0.0,0.0,0.0,0.0,0.0,0.0,0.0,0.0,0.0,0.0,0.0,0.0,0.0,0.0,0.0,0.0,0.0,0.0,0.0,0.0,0.0,0.0,0.0,0.0,0.0,0.0,0.0,0.0,0.0,0.0,0.0,0.0,0.0,0.0,0.0,0.0,0.0,0.0,0.0,0.0,0.0,0.0,0.0,0.0,0.0,0.0,0.0,0.0,0.0,0.0,0.0,0.0,0.0,0.0,0.0,0.0,0.0,0.0,0.0,0.0,0.0,0.0,0.0,0.0,0.0,0.0,0.0,0.0,0.0,0.0,0.0,0.0,0.0,0.0,0.0,0.0,0.0,0.0,0.0,0.0,0.0,0.0,0.0,0.0,0.0,0.0,0.0,0.0,0.0,0.0,0.0,0.0,0.0,0.0,0.0,0.0,0.0,0.0,0.0,0.0,0.0,0.0,0.0,0.0,0.0,0.0,0.0,0.0,0.0,0.0,0.0,0.0,0.0,0.0,0.0,0.0,0.0,0.0,0.0,0.0,0.0,0.0,0.0,0.0,0.0,0.0,0.0,0.0,0.0,0.0,0.0,0.0,0.0,0.0,0.0,0.0,0.0,0.0,0.0,0.0,0.0,0.0,0.0,0.0,0.0,0.0,0.0,0.0,0.0,0.0,0.0,0.0,0.0,0.0,0.0,0.0,0.0,0.0,0.0,0.0,0.0,0.0,0.0,0.0,0.0,0.0,0.0,0.0,0.0,0.0,0.0,0.0,0.0,0.0,0.0,0.0,0.0,0.0,0.0,0.0,0.0,0.0,0.0,0.0,0.0,0.0,0.0,0.0,0.0,0.0,0.0,0.0,0.0,0.0,0.0,0.0,0.0,0.0,0.0,0.0,0.0,0.0,0.0,0.0,0.0,0.0,0.0,0.0,0.0,0.0,0.0,0.0,0.0,0.0,0.0,0.0,0.0,0.0,0.0,0.0,0.0,0.0,0.0,0.0,0.0,0.0,0.0,0.0,0.0,0.0,0.0,0.0,0.0,0.0,0.0,0.0,0.0,0.0,0.0,0.0,0.0,0.0,0.0,0.0,0.0,0.0,0.0,0.0,0.0,0.0,0.0,0.0,0.0,0.0,0.0,0.0,0.0,0.0,0.0,0.0,0.0,0.0,0.0,0.0,0.0,0.0,0.0,0.0,0.0,0.0,0.0,0.0,0.0,0.0,0.0,0.0,0.0,0.0,0.0,0.0,0.0,0.0,0.0,0.0,0.0,0.0,0.0,0.0,0.0,0.0,0.0,0.0,0.0,0.0,0.0,0.0,0.0,0.0,0.0,0.0,0.0,0.0,0.0,0.0,0.0,0.0,0.0,0.0,0.0,0.0,0.0,0.0,0.0,0.0,0.0,0.0,0.0,0.0,0.0,0.0,0.0,0.0,0.0,0.0,0.0,0.0,0.0,0.0,0.0,0.0,0.0,0.0,0.0,0.0,0.0,0.0,0.0,0.0,0.0,0.0,0.0,0.0,0.0,0.0,0.0,0.0,0.0,0.0,0.0,0.0,0.0,0.0,0.0,0.0,0.0,0.0,0.0,0.0,0.0,0.0,0.0,-0.9954,0.0,0.0,0.0,0.0,0.0,0.0,0.0,0.0,0.0,0.0,0.0,0.0,0.0,0.0,0.0,0.0,0.0,0.0,0.0,0.0,0.0,0.0,0.0,0.0,0.1742,0.1863,0.1961,0.1837,0.1774,0.1774,0.0,0.0,0.0,0.0,0.0,0.1684,0.156,0.1371,0.1162,0.1137,0.1008,0.0752,0.0658,0.0768,0.1082,0.0,0.0,0.0,0.0,0.0,0.0,0.0,0.0,0.0,0.0,0.0,0.0,0.0,0.0,0.0,0.0,0.0,0.0,0.0,0.0,0.0,0.0,0.0,0.0,0.0,0.0,0.0,0.0,0.0,0.0,0.0,0.0,0.0,0.0,0.0,0.0,0.0,0.0,0.0,0.0,0.0,0.0,0.0,0.0,0.0,0.0,0.0,0.0,0.0,0.0,0.0,0.0,0.0,0.0,0.0,0.0,0.0,0.0,0.0,0.0,0.0,0.0,0.0,0.0,0.0,0.0,0.0,0.0,0.0,0.0,0.0,-1.0665,0.0,0.0,0.0,0.0,0.0,0.0,0.0,0.0,0.0,0.0,0.0,0.0,0.0,0.0,0.0,0.0,0.0,0.0,0.0,0.0,0.0,0.1834,0.1833,0.2187,0.2489,0.2621,0.2587,0.2501,0.243,0.2419,0.0,0.0,0.0,0.1348,0.0898,0.0667,0.0523,0.0434,0.0302,0.0231,0.0251,0.0282,0.0356,0.0453,0.068,0.0,0.0,0.0,0.0,0.0,0.0,0.0,0.0,0.0,0.0,0.0,0.0,0.0,0.0,0.0,0.0,0.0,0.0,0.0,0.0,0.0,0.0,0.0,0.0,0.0,0.0,0.0,0.0,0.0,0.0,0.0,0.0,0.0,0.0,0.0,0.0,0.0,0.0,0.0,0.0,0.0,0.0,0.0,0.0,0.0,0.0,0.0,0.0,0.0,0.0,0.0,0.0,0.0,0.0,0.0,0.0,0.0,0.0,0.0,0.0,0.0,0.0,0.0,0.0,-1.0852,-1.1404,-1.2273,-1.28,-1.3019,-1.2318,-1.2029,-1.1946,0.0,0.0,0.0,0.0,0.0,0.0,0.0,0.0,0.0,0.0,0.0,0.0,0.0,0.0,0.0,0.0,0.0,0.0,0.0,0.0,0.1739,0.2257,0.2212,0.2211,0.2356,0.2082,0.1762,0.1433,0.134,0.0,0.0,0.0585,0.0556,0.047,0.0442,0.0225,-0.0174,-0.0584,-0.0772,-0.07,-0.0233,0.0033,0.0162,0.03,0.085,0.1644,0.0,0.0,0.0,0.0,0.0,0.0,0.0,0.0,0.0,0.0,0.0,0.0,0.0,0.0,0.0,0.0,0.0,0.0,0.0,0.0,0.0,0.0,0.0,0.0,0.0,0.0,0.0,0.0,0.0,0.0,0.0,0.0,0.0,0.0,0.0,0.0,0.0,0.0,0.0,0.0,0.0,-0.0821,-0.1601,0.0,0.0,0.0,0.0,0.0,0.0,0.0,0.0,0.0,0.0,0.0,0.0,0.0,0.0,-0.7237,-0.7573,-0.7761,-0.7758,-0.9569,-1.0879,-1.1768,-1.3329,-1.4201,-1.4431,-1.4087,0.0,-1.2554,-1.1956,0.0,0.0,0.0,0.0,0.0,0.0,0.0,0.0,0.0,0.0,0.0,0.0,0.0,0.0,0.0,0.0,0.0,0.0,0.0,0.0,0.0,0.2249,0.2315,0.2138,0.2279,0.2147,0.1622,0.1595,0.1369,0.0815,0.0785,0.0561,0.0084,0.0029,-0.0179,-0.0573,-0.0944,-0.0878,-0.0396,-0.0248,0.0071,0.0431,0.0512,0.0916,0.1572,0.1487,0.0,0.0,0.0,0.0,0.0,0.0,0.0,0.0,0.0,0.0,0.0,0.0,0.0,0.0,0.0,0.0,0.0,0.0,0.0,0.0,0.0,0.0,0.0,0.0,0.0,0.0,0.0,0.0,0.0,0.0,0.0,0.0,0.0,0.0,0.0,0.0,0.0,0.0,0.0,-0.038,-0.0657,-0.1066,-0.1129,-0.1697,0.0,0.0,0.0,0.0,0.0,0.0,0.0,0.0,0.0,-0.7489,-0.7567,-0.7756,-0.7994,-0.8191,-0.8275,-0.8354,-1.0287,-1.1662,-1.2551,-1.4049,-1.4825,-1.4932,-1.4805,-1.4401,-1.3773,-1.294,-1.2367,-1.1956,0.0,0.0,0.0,0.0,0.0,-1.1642,0.0,0.0,0.0,0.0,0.0,0.0,0.0,0.0,0.0,0.0,0.0,0.0,0.1813,0.2259,0.242,0.2079,0.2476,0.2466,0.0,0.0,0.1641,0.0968,0.093,0.0619,0.0,-0.0208,-0.0509,-0.0895,-0.0937,-0.0671,-0.0076,0.015,0.0488,0.0954,0.1087,0.1326,0.1608,0.1695,0.1857,0.0,0.0,0.0,0.0,0.0,0.0,0.0,0.0,0.0,0.0,0.0,0.0,0.0,0.0,0.0,0.0,0.0,0.0,0.0,0.0,0.0,0.0,0.0,0.0,0.0,0.0,0.0,0.0,0.0,0.0,0.0,0.0,0.0,0.0,0.0,0.0,0.0,0.0,-0.0451,-0.067,-0.0986,-0.134,-0.2052,0.0,0.0,0.0,0.0,0.0,0.0,-0.7301,-0.7361,-0.7621,-0.8143,-0.8197,-0.8374,-0.8598,-0.8635,-0.8831,-0.9177,-1.0875,-1.2248,-1.3345,-1.4601,-1.5209,-1.5203,-1.5137,-1.4956,-1.4648,-1.3779,-1.326,-1.2964,-1.2506,-1.233,-1.2313,-1.2548,-1.2662,-1.2808,0.0,0.0,0.0,0.0,0.0,0.0,0.0,0.0,0.0,0.0,0.0,0.21,0.1818,0.0,0.2336,0.2202,0.246,0.2284,0.0,0.0,0.1354,0.0559,0.0456,0.0455,0.047,-0.0032,-0.0584,-0.1198,-0.0634,-0.0306,-0.0274,0.0938,0.1524,0.1565,0.215,0.231,0.2127,0.1555,0.1839,0.26,0.0,0.0,0.0,0.0,0.0,0.0,0.0,0.0,0.0,0.0,0.0,0.0,0.0,0.0,0.0,0.0,0.0,0.0,0.0,0.0,0.0,0.0,0.0,0.0,0.0,0.0,0.0,0.0,0.0,0.0,0.0,0.0,0.0,0.0,0.0,0.0,0.0,0.0,0.0,-0.2377,-0.3328,0.0,0.0,0.0,0.0,-0.7018,-0.7234,-0.7522,-0.7921,-0.8133,-0.8357,-0.8665,-0.8763,-0.8844,-0.8861,-0.9052,-0.9657,-1.0585,-1.1096,-1.2292,-1.4175,-1.5007,-1.5423,-1.5469,-1.5215,-1.4956,-1.469,-1.437,-1.4081,-1.3815,-1.3544,-1.3435,-1.3435,-1.3447,-1.361,-1.3837,0.0,0.0,0.0,-0.0697,-0.0524,-0.0202,0.0313,0.0626,0.0985,0.1504,0.1976,0.2209,0.0,0.2851,0.3231,0.2755,0.3068,0.3024,0.2392,0.0,0.1842,0.1531,0.1456,0.114,0.0528,-0.0422,-0.0998,-0.1263,-0.0667,-0.012,0.0369,0.1252,0.1901,0.2298,0.2545,0.2574,0.25,0.2103,0.2151,0.2426,0.2061,0.186,0.0,0.0,0.0,0.0,0.0,0.0,0.0,0.0,0.0,0.0,0.0,0.0,0.0,0.0,0.0,0.0,0.0,0.0,0.0,0.0,0.0,0.0,0.0,0.0,0.0,0.0,0.0,0.0,0.0,0.0,0.0,0.0,0.0,0.0,0.0,0.0,0.0,-0.2732,-0.3318,0.0,-0.5776,-0.6443,-0.7032,-0.7614,-0.7946,-0.8241,-0.8544,-0.8672,-0.8835,-0.9133,-0.9195,-0.9225,-0.9225,-0.9273,-0.945,-0.9738,-1.1389,-1.2426,-1.3122,-1.4927,-1.5747,-1.5747,-1.565,-1.5463,-1.5215,-1.5113,-1.4708,-1.4147,-1.4057,-1.4014,-1.4014,-1.4014,-1.4175,-1.4432,-0.1893,-0.133,0.0,-0.0681,-0.0411,-0.0067,0.0336,0.075,0.1177,0.1559,0.2008,0.2296,0.23,0.3048,0.3407,0.3017,0.327,0.3214,0.2671,0.0,0.2225,0.2095,0.1852,0.1224,0.018,-0.0563,-0.1052,-0.1288,-0.0689,-0.0041,0.0664,0.1338,0.2024,0.2632,0.2653,0.2673,0.2681,0.2523,0.2382,0.2311,0.2168,0.2046,0.1991,0.0,0.0,0.0,0.0,0.0,0.0,0.0,0.0,0.0,0.0,0.0,0.0,0.0,0.0,0.0,0.0,0.0,0.0,0.0,0.0,0.0,0.0,0.0,0.0,0.0,0.0,0.0,0.0,0.0,0.0,0.0,0.0,0.0,0.0,0.0,-0.2114,-0.2977,-0.3954,-0.5094,-0.6414,-0.7077,-0.7734,-0.8356,-0.8598,-0.8818,-0.9076,-0.9086,-0.9178,-0.9374,-0.9432,-0.9435,-0.9381,-0.9432,-0.9613,-0.9849,-1.1703,-1.2769,-1.3118,-1.5058,-1.5891,-1.5891,-1.5891,-1.5741,-1.5499,-1.5499,-1.5131,-1.4564,-1.4473,-1.4383,-1.4298,-1.4298,-1.4394,-1.464,-0.1852,-0.1475,-0.1074,-0.0674,-0.0382,-0.0067,0.0336,0.0791,0.121,0.1564,0.2023,0.2412,0.2652,0.2708,0.2824,0.2972,0.2953,0.2729,0.2332,0.2469,0.2421,0.21,0.1465,0.0632,-0.0455,-0.0467,-0.0726,-0.1307,-0.0701,-0.0081,0.0569,0.1271,0.1887,0.2483,0.254,0.264,0.2698,0.2698,0.2594,0.2387,0.2328,0.2268,0.2179,0.0,0.0,0.0,0.0,0.0,0.0,0.0,0.0,0.0,0.0,0.0,0.0,0.0,0.0,0.0,0.0,0.0,0.0,0.0,0.0,0.0,0.0,0.0,0.0,0.0,0.0,0.0,0.0,0.0,0.0,0.0,0.0,0.0,-0.1142,-0.2223,-0.3098,-0.339,-0.5498,-0.6967,-0.7058,-0.8077,-0.8849,-0.9197,-0.9217,-0.9282,-0.9381,-0.9388,-0.9391,-0.9395,-0.954,-0.9544,-0.9398,-0.9544,-1.0064,-1.1051,-1.2059,-1.3189,-1.4338,-1.5366,-1.5844,-1.5844,-1.5897,-1.5747,-1.5511,-1.5511,-1.5354,-1.5095,-1.4823,-1.4552,-1.431,-1.4298,-1.4298,-1.4394,-0.1785,-0.1435,-0.1085,-0.0741,-0.0412,-0.0067,0.0336,0.0791,0.121,0.1564,0.2317,0.2684,0.2309,0.3048,0.3405,0.3046,0.2947,0.2868,0.2727,0.2439,0.2037,0.1539,0.0557,-0.0117,-0.0439,-0.0871,-0.1191,-0.1378,-0.0728,-0.0299,-0.0043,0.0625,0.1331,0.1988,0.2,0.2333,0.2824,0.2824,0.277,0.267,0.2522,0.2391,0.2277,0.0,0.0,0.0,0.0,0.0,0.0,0.0,0.0,0.0,0.0,0.0,0.0,0.0,0.0,0.0,0.0,0.0,0.0,0.0,0.0,0.0,0.0,0.0,0.0,0.0,0.0,0.0,0.0,0.0,0.0,0.0,0.0,-0.1522,-0.2348,-0.2934,-0.3976,-0.5858,-0.6751,-0.7564,-0.8511,-0.8967,-0.9232,-0.9313,-0.9317,-0.9384,-0.954,-0.9547,-0.9595,-0.9696,-0.9741,-0.9744,-0.97,-0.9741,-0.981,-1.0016,-1.1121,-1.1776,-1.21,-1.3956,-1.479,-1.4839,-1.5588,-1.5849,-1.5783,-1.5783,-1.5626,-1.5348,-1.4896,-1.4666,-1.4576,-1.437,-1.4544,-1.4933,-0.1789,-0.1595,-0.132,-0.0796,-0.0415,-0.0067,0.0336,0.0624,0.1009,0.1539,0.2136,0.2461,0.2375,0.2982,0.3269,0.2967,0.2727,0.2604,0.2575,0.2025,0.1394,0.0624,-0.0039,-0.0528,-0.0794,-0.1201,-0.1396,-0.1409,-0.1003,-0.0651,-0.0347,0.0042,0.0587,0.1285,0.1628,0.1996,0.2437,0.2773,0.2839,0.2774,0.2668,0.2553,0.2437,0.2425,0.2316,0.2187,0.2127,0.2156,0.2228,0.2222,0.0,0.0,0.0,0.0,0.0,0.0,0.0,0.0,0.0,0.0,0.0,0.0,0.0,0.0,0.0,0.0,0.0,0.0,0.0,0.0,0.0,0.0,0.0,0.0,-0.1807,-0.2581,-0.3776,-0.4113,-0.4901,-0.6894,-0.7671,-0.8398,-0.9232,-0.9388,-0.95,-0.9561,-0.9564,-0.9605,-0.9693,-0.9696,-0.9737,-0.9819,-0.9822,-0.9822,-0.9822,-0.9822,-0.9781,-0.9696,-1.0802,-1.1243,-1.1259,-1.3517,-1.4489,0.0,-1.5567,-1.5988,-1.5891,-1.5891,-1.5801,0.0,0.0,0.0,0.0,0.0,-1.464,-1.5131,-0.196,-0.1861,-0.1656,-0.091,-0.0482,-0.0112,0.0269,0.0336,0.0605,0.1363,0.0,0.2012,0.2478,0.2647,0.2758,0.2802,0.2446,0.216,0.0,0.1479,0.0679,-0.0274,-0.0435,-0.0777,-0.1388,-0.1393,-0.1408,-0.1391,-0.1408,-0.1089,-0.0521,-0.0501,-0.0166,0.0422,0.1139,0.1495,0.1659,0.2449,0.2753,0.2706,0.2786,0.271,0.259,0.2481,0.2442,0.2494,0.2286,0.2269,0.233,0.246,0.0,0.0,0.0,0.0,0.0,0.0,0.0,0.0,0.0,0.0,0.0,0.0,0.0,0.0,0.0,0.0,0.0,0.0,0.0,0.0,0.0,0.0,0.0,0.0,-0.2678,-0.3912,-0.5349,-0.5547,-0.5987,-0.7179,-0.8444,-0.9296,-0.9391,-0.9544,-0.9686,-0.9812,-0.9822,-0.9829,-0.9846,0.0,0.0,0.0,0.0,-0.9839,-0.9822,-0.9822,-0.9822,-0.9819,-1.0688,-1.1146,-1.1201,-1.3404,-1.4338,-1.4357,-1.5583,-1.6036,-1.5934,-1.5903,-1.5891,-1.5861,-1.5565,-1.5155,-1.4684,-1.4401,-1.464,0.0,-0.2531,-0.2151,-0.1757,-0.1342,-0.0893,-0.0494,-0.0135,-0.0048,0.0151,0.058,0.1502,0.1964,0.1528,0.2369,0.2758,0.2287,0.2185,0.215,0.0,0.0,0.0539,0.0353,-0.0663,-0.1286,-0.139,-0.1414,-0.1385,-0.1391,-0.1385,-0.1325,-0.1216,-0.1206,-0.0817,-0.0129,0.0,0.0393,0.0936,0.1702,0.2014,0.2048,0.2583,0.271,0.2598,0.2575,0.2529,0.2507,0.2445,0.2448,0.2473,0.2421,0.2374,0.2188,0.1561,0.0,0.0,0.0,0.0,0.0,0.0,0.0,0.0,0.0,0.0,0.0,0.0,0.0,0.0,0.0,0.0,0.0,0.0,0.0,0.0,-0.2939,-0.3446,-0.4495,-0.6671,-0.7111,-0.7538,-0.8683,-0.9111,-0.9398,-0.9551,-0.9696,-0.9791,-0.9819,-0.9822,-0.9876,-0.9936,-0.9943,0.0,-0.9943,-0.9943,-0.9883,-0.9822,-0.9822,-0.9822,-0.9822,0.0,0.0,-1.013,-1.1386,-1.2566,-1.3567,-1.4391,-1.5306,-1.6187,-1.5976,-1.5891,-1.5843,-1.5366,-1.4992,-1.4684,-1.4401,-1.4496,-1.479,-0.3129,-0.2509,-0.1873,-0.1472,-0.101,-0.0584,-0.0247,-0.0336,-0.0252,0.0328,0.1133,0.1529,0.1237,0.2089,0.2515,0.2032,0.2031,0.0,0.0,0.0931,0.0313,0.0081,-0.0891,-0.1397,-0.1412,-0.1383,-0.1391,-0.1391,-0.1391,-0.1383,-0.1412,-0.1397,-0.1223,-0.0838,-0.048,-0.0132,0.0179,0.0942,0.1256,0.1299,0.1596,0.1721,0.1733,0.2327,0.2523,0.2506,0.2516,0.2485,0.2506,0.2476,0.2217,0.185,0.1231,0.0645,0.0068,0.0,0.0,0.0,0.0,0.0,0.0,0.0,0.0,0.0,0.0,0.0,0.0,0.0,0.0,-0.2442,-0.3193,0.0,-0.373,-0.4386,-0.5158,-0.6146,-0.735,-0.8049,-0.8707,-0.9219,-0.9401,-0.9523,-0.9602,-0.9737,-0.9822,-0.9822,-0.989,-0.9906,-0.9984,-1.0124,-1.0164,-1.0164,-1.0164,-1.009,-0.9876,-0.9872,-0.9897,-0.9822,-0.9822,-0.9822,-0.9819,-1.0996,-1.2158,-1.3348,-1.4339,-1.5345,-1.626,-1.6,-1.5891,-1.5837,-1.5312,-1.5028,-1.4865,-1.4449,-1.4496,-1.4742,-0.3441,-0.2724,-0.1988,-0.1611,-0.1144,-0.0718,-0.036,-0.0577,-0.058,0.0076,0.0686,0.1048,0.1051,0.1837,0.225,0.0,0.0,0.0,0.0,0.0634,0.004,-0.0377,-0.1034,-0.141,-0.139,-0.1391,-0.1391,-0.1391,-0.1391,-0.1391,-0.139,-0.141,-0.1412,-0.1389,-0.0793,-0.0529,-0.0538,0.0179,0.0493,0.0493,0.0628,0.0699,0.0797,0.1853,0.2373,0.2511,0.2511,0.2347,0.2144,0.2154,0.1798,0.132,0.0689,0.0187,-0.0328,-0.0942,-0.1123,0.0,0.0,0.0,0.0,0.0,0.0,0.0,0.0,0.0,-0.2051,-0.3311,-0.3652,-0.4003,-0.5014,-0.536,-0.5558,-0.5819,-0.6862,-0.7716,-0.7953,-0.8857,-0.9456,-0.9429,-0.9534,-0.9618,-0.9649,-0.9754,-0.9832,-0.9863,-0.9916,-1.0011,-1.0068,-1.0253,-1.0321,-1.0321,-1.0321,-1.0249,-1.0034,-1.0,-0.9926,-0.9866,-0.9836,-0.9822,-0.9819,-1.0846,-1.209,-1.3473,-1.4903,-1.5818,-1.626,-1.6,-1.5891,-1.5837,-1.5312,-1.5107,-1.504,-1.4497,-1.4479,-1.481,-0.3053,-0.2499,-0.2077,-0.2032,-0.1633,-0.1166,-0.0719,-0.0721,-0.0756,-0.068,0.0269,0.0815,0.0507,0.1521,0.2137,0.1905,0.0,0.0,0.1296,0.0274,-0.0333,-0.0378,-0.105,-0.1387,-0.1391,-0.1391,-0.1391,-0.1391,-0.1391,-0.1391,-0.1391,-0.1387,-0.1387,-0.1391,-0.1297,-0.1298,-0.1256,-0.0583,-0.0269,-0.0224,0.0448,0.0699,0.0756,0.1257,0.1875,0.2511,0.2511,0.1819,0.0877,0.0817,0.0812,0.0686,0.0039,-0.0231,-0.0414,-0.1011,-0.1139,-0.112,-0.1169,-0.1173,-0.1222,-0.1265,-0.1269,-0.1593,0.0,0.0,-0.3414,-0.463,-0.5012,-0.5112,-0.5277,-0.5385,-0.588,-0.6999,-0.7502,-0.8135,-0.9225,-0.9573,-0.9727,-0.9598,-0.9598,-0.9659,-0.9785,-0.9812,-0.9876,-0.9953,-0.9977,-1.0102,-1.0429,-1.046,-1.047,-1.047,-1.047,-1.0399,-1.0256,-1.0117,-0.9977,-0.996,-0.9886,-0.9822,-0.9822,-0.994,-1.1374,-1.3787,-1.5674,-1.645,-1.626,-1.6,-1.5891,-1.5837,-1.5312,-1.5107,-1.504,-1.4497,-1.4643,-1.5059,-0.335,-0.2901,-0.2477,-0.2144,-0.1478,-0.0951,-0.0789,-0.078,-0.0813,-0.0857,-0.0217,0.0308,0.0393,0.1345,0.1946,0.1858,0.1514,0.1277,0.123,0.0267,-0.0368,-0.0378,-0.1039,-0.1417,-0.139,-0.1391,-0.1391,-0.1391,-0.1391,-0.1391,-0.1391,-0.1391,-0.1391,-0.1391,-0.1391,-0.1391,-0.1391,-0.1121,-0.0987,-0.0942,-0.0628,-0.0481,-0.0463,-0.0294,0.0,0.0384,0.1191,0.1145,0.0,0.0,0.0261,0.0111,-0.015,-0.0481,-0.0835,-0.1106,-0.1171,-0.1175,-0.1271,-0.1306,-0.1333,-0.1407,-0.1442,-0.1759,-0.2937,-0.323,-0.3783,-0.5761,-0.6178,-0.6475,-0.7261,-0.7623,-0.7946,0.0,-0.8819,-0.9118,-0.967,-0.971,-0.9676,-0.9615,-0.9608,-0.9632,-0.9693,-0.9774,-0.9883,-0.9974,-1.0134,-1.0273,-1.048,-1.0575,-1.0626,-1.0626,-1.0626,-1.0555,-1.0405,-1.0341,-1.0222,-0.9987,-0.9923,-0.9845,-0.9822,-0.9822,-1.1205,-1.376,-1.5022,-1.5951,-1.6489,-1.6066,-1.5891,-1.5855,-1.5481,-1.5336,-1.5252,-1.4552,-1.4563,-1.4891,-0.3379,-0.2993,-0.2521,-0.1988,-0.1233,-0.0729,-0.0784,-0.0789,-0.0817,-0.0901,-0.0494,-0.0056,0.0364,0.101,0.1403,0.1403,0.1071,0.0813,0.0763,-0.0074,-0.0598,-0.0659,-0.1151,-0.14,-0.1378,-0.1386,-0.1391,-0.1391,-0.1391,-0.1391,-0.1391,-0.1391,-0.1391,-0.1391,-0.1391,-0.1391,-0.1391,-0.1391,-0.1385,-0.1378,-0.1378,-0.1344,-0.1292,-0.1283,-0.1315,-0.1174,-0.0151,0.0188,0.0,0.0,-0.0324,-0.0433,-0.0433,-0.0751,-0.1142,-0.119,-0.1237,-0.1288,-0.1359,-0.1396,-0.1427,-0.148,-0.1771,-0.2308,-0.34,-0.391,-0.4772,-0.6845,-0.7296,-0.7653,-0.8661,-0.9086,-0.9286,-0.9367,-0.9595,-0.9778,-0.9815,-0.97,-0.9608,-0.9608,-0.9608,-0.9608,-0.9608,-0.9737,-0.9883,-0.9974,-1.0195,-1.0341,-1.0483,-1.0636,-1.0721,-1.0721,-1.0721,-1.0666,-1.0555,-1.0514,-1.0365,-1.0051,-1.0007,-0.9906,-0.9822,-1.0183,-1.1567,-1.376,-1.45,-1.5502,-1.6658,-1.6115,-1.5891,-1.5861,-1.5602,-1.5451,-1.5312,-1.4654,-1.4606,-1.4938,-0.2818,-0.2393,-0.1966,-0.15,-0.1032,-0.0729,-0.0784,-0.0789,-0.0817,-0.0901,-0.0494,-0.0056,0.0364,0.0421,0.0449,0.0449,-0.0031,-0.0355,-0.0355,-0.0916,-0.1258,-0.126,-0.1343,-0.1391,-0.1391,-0.1421,-0.1391,-0.1391,-0.1391,-0.1391,-0.1391,-0.1391,-0.1391,-0.1391,-0.1391,-0.1391,-0.1391,-0.1391,-0.1418,-0.1391,-0.1391,-0.1356,-0.1301,-0.1311,-0.1317,-0.1288,-0.1098,0.0,0.0,0.0,-0.1052,-0.1087,-0.1087,-0.1142,0.0,-0.1272,-0.136,-0.1372,-0.1321,-0.1412,-0.1485,-0.1517,-0.2318,-0.3442,-0.4501,-0.5701,-0.691,-0.8013,-0.8384,-0.853,-0.8686,-0.8845,-0.9045,-0.9334,-0.9513,-0.9663,-0.9802,-0.97,-0.9608,-0.9608,-0.9608,-0.9608,0.0,-0.9737,-0.9883,-0.9974,-1.0195,-1.0341,-1.0483,-1.0636,-1.0721,-1.0721,-1.0721,-1.0717,-1.0714,-1.0565,-1.0419,-1.0273,-1.012,-0.9906,-0.9822,-1.1088,-1.241,-1.376,-1.45,-1.5502,-1.6658,-1.6115,-1.5891,-1.5861,-1.5602,-1.5342,-1.5083,-1.4805,-1.4998,-1.5445,-0.3173,-0.2884,-0.2485,-0.2003,-0.1624,-0.1253,-0.092,-0.0839,-0.0825,-0.0903,-0.0501,0.0,0.0,0.0,0.0,0.0,-0.0059,-0.0337,-0.0344,-0.0748,-0.1048,-0.1233,-0.1185,-0.1189,-0.1331,-0.1319,-0.1334,-0.1334,-0.1334,-0.1343,-0.1406,-0.1406,-0.1416,-0.1391,-0.1391,-0.1379,-0.1406,-0.1406,-0.1411,-0.1416,-0.1335,-0.1361,-0.1355,-0.1306,-0.1282,-0.129,0.0,0.0,0.0,-0.1046,-0.1046,-0.1029,-0.1029,0.0,0.0,-0.1279,-0.1322,-0.1342,-0.1425,-0.1472,-0.1518,-0.1549,-0.2414,-0.3497,-0.4568,-0.5706,-0.6822,-0.8041,-0.8361,-0.8387,-0.853,-0.8767,-0.9001,-0.9255,-0.9442,-0.9659,-0.9802,-0.9781,-0.9717,-0.9618,-0.9693,0.0,0.0,0.0,0.0,-0.9974,-1.0195,-1.0341,-1.0483,-1.0636,-1.0721,-1.0721,-1.0721,-1.0721,-1.0721,-1.067,-1.0521,-1.0276,-1.0019,-0.9869,-0.9822,-1.0243,-1.1148,-1.2449,-1.3221,-1.4241,-1.5462,-1.5784,-1.5891,-1.5879,-1.5795,-1.5493,-1.5101,-1.501,-1.4949,-1.4963,-0.3298,-0.3063,-0.2692,-0.2274,-0.1888,0.0,0.0,0.0,0.0,0.0,0.0,0.0,0.0,0.0,0.0,0.0,0.0,-0.0505,-0.0516,-0.0739,-0.0948,-0.1167,-0.1071,-0.1108,-0.1254,-0.1284,-0.1264,-0.1316,-0.1285,-0.1304,-0.1375,-0.1375,-0.1385,-0.136,-0.136,-0.135,-0.1375,-0.1375,-0.138,-0.134,-0.1335,-0.132,-0.132,-0.13,-0.1277,0.0,0.0,0.0,0.0,-0.1005,-0.1015,-0.1048,-0.1048,-0.1106,0.0,-0.1319,-0.1363,-0.1442,-0.151,-0.1543,-0.1566,-0.1596,-0.2711,-0.3974,-0.4624,-0.5929,-0.7213,-0.8015,-0.8187,-0.8231,-0.8381,-0.8567,-0.8634,-0.8533,-0.8618,-0.8835,-0.9181,-0.9076,-0.922,-0.9781,-0.9832,-0.9829,0.0,-0.9934,0.0,-0.9906,-1.0209,-1.0375,-1.0415,-1.0609,-1.0721,-1.0721,-1.0721,-1.0721,-1.0721,-1.0721,-1.0571,-1.0276,-0.9968,-0.9822,-0.9822,-0.9822,-1.0486,-1.1732,-1.2061,-1.3212,-1.4837,-1.5181,-1.5512,-1.5891,-1.5891,-1.5572,-1.5107,-1.5107,-1.4967,-1.4885,-0.3166,-0.296,-0.2641,0.0,0.0,0.0,0.0,0.0,0.0,0.0,0.0,0.0,0.0,0.0,0.0,0.0,0.0,0.0,-0.0911,-0.0965,0.0,-0.1101,-0.1101,-0.1132,-0.1197,-0.1193,-0.1224,-0.1292,-0.1281,-0.1311,-0.1299,-0.1299,-0.13,-0.1302,-0.1302,-0.13,-0.1299,-0.1299,-0.1284,-0.1297,-0.1305,-0.1276,-0.1208,-0.129,0.0,0.0,0.0,0.0,0.0,-0.1003,-0.1066,-0.1119,-0.1123,0.0,0.0,-0.1388,-0.1478,-0.1577,-0.161,-0.162,-0.1626,-0.1707,-0.3271,-0.4778,-0.4824,-0.6478,-0.7988,-0.7978,-0.7978,-0.8019,-0.815,-0.8248,-0.8033,-0.7332,-0.7258,-0.7497,-0.8099,-0.7914,-0.8389,0.0,0.0,0.0,0.0,0.0,0.0,-0.9866,0.0,-1.0432,-1.0297,-1.0565,-1.0721,-1.0721,-1.0721,-1.0721,-1.0721,-1.0704,-1.0558,-1.0276,-0.9968,-0.9822,-0.9822,-0.9822,-1.0486,-1.1551,-1.1257,-1.2417,-1.4555,-1.4254,-1.4756,-1.5838,-1.5838,-1.5513,-1.5107,-1.5107,-1.5072,-1.5083,0.0,0.0,0.0,0.0,0.0,0.0,0.0,0.0,0.0,0.0,0.0,0.0,0.0,0.0,0.0,0.0,0.0,0.0,-0.0909,-0.0827,0.0,0.0,0.0,-0.0956,-0.1133,-0.1187,-0.1219,0.0,0.0,-0.1217,-0.1207,-0.1207,-0.1258,-0.128,-0.128,-0.1268,-0.1207,-0.1207,-0.1255,-0.1304,0.0,-0.125,-0.1278,0.0,0.0,0.0,0.0,0.0,0.0,-0.1089,-0.1158,-0.1257,0.0,-0.1325,-0.1394,-0.1469,-0.1513,-0.1554,-0.163,-0.1651,-0.1704,-0.1712,-0.3303,-0.4857,-0.479,-0.6478,-0.7958,-0.7892,-0.7868,-0.7617,-0.6818,-0.7566,0.0,-0.7324,-0.8127,0.0,-0.9481,-0.9577,0.0,-1.0266,0.0,-1.031,-1.0283,-1.0375,0.0,0.0,-1.0368,-1.0477,-1.0439,-1.0616,-1.0721,-1.0721,-1.0721,-1.0721,-1.0721,-1.05,-1.0354,-1.0276,-0.9968,-0.9822,-0.9822,-0.9822,-1.0001,-1.0286,-1.0848,-1.1446,-1.21,-1.2647,-1.356,-1.4648,-1.4648,-1.4832,-1.5107,-1.5107,-1.4967,-1.4838,0.0,0.0,0.0,0.0,0.0,0.0,0.0,0.0,0.0,0.0,0.0,0.0,0.0,0.0,0.0,0.0,0.0,0.0,0.0,-0.0828,0.0,0.0,0.0,-0.0911,-0.1017,-0.1077,-0.1108,0.0,0.0,0.0,0.0,-0.1192,-0.1239,-0.1255,-0.1255,-0.1246,-0.1192,-0.1192,0.0,0.0,0.0,0.0,0.0,0.0,0.0,0.0,0.0,0.0,0.0,-0.1186,-0.1241,-0.131,-0.1383,-0.1417,-0.1445,-0.1523,0.0,-0.16,-0.1663,-0.1743,-0.175,-0.1684,-0.3332,-0.4773,-0.4198,-0.6054,-0.7631,-0.6658,-0.6759,-0.6742,-0.562,-0.6507,-0.7156,0.0,0.0,0.0,-0.9097,-0.9237,-0.9611,0.0,-1.0483,0.0,-1.0473,-1.0544,-1.0558,0.0,-1.0548,-1.0561,-1.0493,-1.0636,-1.0721,-1.0721,-1.0721,-1.0687,-1.0619,-1.0395,-1.0246,-1.0175,-0.9934,-0.9822,-0.9822,-0.9822,-0.9822,-0.9805,0.0,-1.0643,-1.113,-1.1487,-1.2363,-1.3452,-1.4002,-1.4248,-1.4429,-1.4898,-1.5016,-1.4885,0.0,0.0,0.0,0.0,0.0,0.0,0.0,0.0,0.0,-0.0823,-0.0762,-0.0757,-0.087,-0.0757,0.0,0.0,0.0,0.0,0.0,0.0,0.0,0.0,-0.0887,-0.0887,-0.0913,-0.0967,-0.0997,0.0,0.0,0.0,0.0,0.0,0.0,0.0,0.0,0.0,0.0,0.0,0.0,0.0,0.0,0.0,0.0,0.0,0.0,0.0,0.0,0.0,-0.1296,-0.1292,-0.1323,-0.1342,-0.1467,-0.1495,-0.151,-0.1616,-0.1672,-0.1721,-0.1701,-0.1729,-0.1797,-0.1712,-0.3205,-0.4417,-0.3409,-0.5363,-0.6879,-0.5046,-0.5309,-0.553,-0.4477,-0.5273,-0.5827,-0.519,0.0,-0.7334,-0.8181,-0.8344,-0.8931,-1.0504,-1.0592,-1.0575,-1.0707,-1.0721,-1.0721,-1.0721,-1.0721,-1.0663,-1.0527,-1.0649,-1.0721,-1.0721,-1.07,-1.0626,-1.0493,-1.0331,-1.0181,-0.9984,-0.9893,-0.9822,-0.9822,-0.9822,-0.9822,-0.9805,0.0,0.0,-1.0847,-1.0604,-1.1164,-1.2309,-1.3349,-1.362,-1.3594,-1.4497,-1.4985,-1.5134,0.0,0.0,0.0,0.0,0.0,0.0,0.0,0.0,0.0,0.0,0.0,0.0,0.0,0.0,0.0,0.0,0.0,0.0,0.0,0.0,0.0,-0.0905,-0.0895,-0.0908,-0.0913,-0.0977,0.0,0.0,0.0,0.0,0.0,0.0,0.0,0.0,0.0,0.0,0.0,0.0,0.0,0.0,0.0,0.0,0.0,0.0,0.0,0.0,0.0,-0.1201,-0.1244,-0.1324,-0.1408,-0.1502,-0.1543,-0.1573,-0.16,-0.1687,-0.1705,-0.1726,-0.1781,-0.18,-0.1797,-0.1712,-0.2654,-0.35,-0.3271,-0.4251,0.0,-0.4624,-0.4473,-0.4105,-0.2991,-0.3829,-0.4793,-0.4999,-0.6279,-0.7768,-0.9268,-0.9594,-0.9913,0.0,-1.0619,-1.069,-1.0717,-1.0721,0.0,0.0,0.0,0.0,-1.068,-1.0707,-1.0721,-1.0721,-1.0599,-1.0517,-1.049,-1.0226,-1.0014,-0.9984,-0.9893,-0.9822,-0.9822,-0.9822,-0.9822,-0.9805,0.0,0.0,-0.9643,-0.9335,-0.9915,-1.1,-1.1219,-1.2315,-1.3712,-1.3724,-1.4439,-1.5395,0.0,0.0,0.0,0.0,0.0,0.0,0.0,0.0,0.0,0.0,-0.0375,0.0,0.0,0.0,0.0,0.0,0.0,0.0,0.0,0.0,0.0,0.0,0.0,-0.1013,-0.147,0.0,0.0,0.0,0.0,0.0,0.0,0.0,0.0,0.0,0.0,0.0,0.0,0.0,0.0,0.0,0.0,0.0,0.0,0.0,0.0,0.0,0.0,-0.1164,-0.1205,-0.1185,-0.1315,-0.1446,-0.157,-0.1605,-0.1623,-0.1705,-0.1725,-0.1694,-0.1792,-0.1816,-0.1762,-0.1716,-0.2501,-0.3133,-0.247,0.0,0.0,-0.3057,-0.3051,-0.29,-0.1801,-0.255,-0.344,-0.3912,-0.5565,-0.7243,-0.8589,-0.8751,-0.9175,-1.0375,-0.9961,-0.9915,-1.0654,-1.0721,0.0,0.0,0.0,0.0,-1.0721,-1.0721,-1.0721,-1.0721,-1.0571,-1.0456,-1.0382,-1.0161,-0.9947,-0.9869,-0.9856,-0.9822,-0.9822,-0.9822,-0.9822,-0.9805,0.0,0.0,-0.9357,-0.9062,-0.9265,-0.9805,-1.0457,-1.1207,-1.2024,-1.244,-1.3388,-1.4544,0.0,0.0,0.0,0.0,0.0,0.0,0.0,-0.0091,-0.0158,-0.0164,-0.0168,-0.0203,-0.0299,-0.0219,0.0,0.0,0.0,0.0,0.0,0.0,0.0,0.0,0.0,0.0,0.0,0.0,0.0,0.0,0.0,0.0,0.0,0.0,0.0,0.0,0.0,0.0,0.0,0.0,0.0,0.0,0.0,0.0,0.0,0.0,0.0,0.0,0.0,0.0,-0.1117,-0.1014,-0.1118,-0.1285,-0.1395,-0.1492,-0.1612,-0.1687,-0.1668,-0.1702,-0.1786,-0.1762,-0.1772,-0.1718,-0.2342,-0.2704,-0.1704,-0.2672,-0.3277,-0.1566,-0.1628,-0.1712,-0.0902,-0.1401,-0.2088,-0.2744,-0.4376,-0.5997,-0.7075,-0.7179,-0.7731,0.0,-0.875,0.0,-1.0117,-1.025,0.0,0.0,0.0,0.0,-1.0721,-1.0721,-1.0704,-1.0673,-1.0524,-1.0378,-1.0232,-1.0076,-0.9879,-0.9822,-0.9822,-0.9822,-0.9822,-0.9822,-0.9822,-0.9805,0.0,0.0,0.0,-0.9062,-0.8885,-0.8992,-0.997,-1.0319,-1.0494,-1.1159,-1.2246,-1.3408,0.0,0.0,0.0,0.0,0.0,0.0,0.0,0.0,-0.0033,-0.0035,-0.0035,-0.0035,-0.0036,-0.0034,0.0,0.0,0.0,0.0,0.0,0.0,0.0,0.0,0.0,0.0,0.0,0.0,0.0,0.0,0.0,0.0,0.0,0.0,0.0,0.0,0.0,0.0,0.0,0.0,0.0,0.0,0.0,0.0,0.0,0.0,0.0,0.0,0.0,0.0,-0.0869,-0.0978,-0.0885,-0.0768,-0.0839,-0.1226,-0.1626,-0.1629,0.0,0.0,-0.1701,-0.1731,-0.18,-0.1712,-0.1757,-0.1769,-0.1562,0.0,-0.1333,-0.1068,-0.0746,-0.0459,-0.0391,-0.0482,-0.0967,-0.2093,-0.2869,-0.3801,-0.525,-0.5777,-0.6178,-0.6532,0.0,0.0,-0.864,0.0,0.0,0.0,0.0,0.0,0.0,-1.0721,-1.0656,-1.0517,-1.0375,-1.0226,-1.0011,-0.9859,-0.9836,-0.9822,-0.9822,-0.9822,-0.9822,-0.9822,-0.9822,-0.9805,0.0,0.0,0.0,-0.9062,-0.8885,-0.8885,-0.9047,-0.9743,-1.0607,-1.0367,-1.116,-1.2475,0.0,0.0,0.0,0.0,0.0,0.0,0.0,0.0,0.0,0.0,0.0,0.0,0.0,0.0,0.0,0.0,0.0,0.0,0.0,0.0,0.0,0.0,0.0,0.0,0.0,0.0,0.0,0.0,0.0,0.0,0.0,0.0,0.0,0.0,0.0,0.0,0.0,0.0,0.0,0.0,0.0,0.0,0.0,0.0,0.0,0.0,0.0,0.0,0.0,0.0,0.0,0.0,-0.0592,-0.0801,-0.1136,0.0,-0.1501,-0.1645,-0.1692,-0.1713,-0.1716,-0.1686,-0.1561,-0.1415,-0.1298,-0.1055,-0.0842,-0.0764,-0.0504,-0.0305,-0.0313,-0.024,-0.0374,-0.1015,-0.1792,-0.2685,-0.3876,-0.3987,-0.4497,-0.5949,-0.5481,0.0,0.0,0.0,0.0,0.0,0.0,0.0,0.0,-1.0721,-1.0649,-1.0497,-1.0354,-1.0205,-0.9987,-0.9835,-0.9822,-0.9822,-0.9822,-0.9822,-0.9822,-0.9822,-0.9774,-0.9683,0.0,0.0,0.0,-0.9022,-0.8885,-0.8885,-0.8885,-0.921,-0.9563,-0.9333,-1.0076,-1.1283,0.0,0.0,0.0,0.0,0.0,0.0,0.0,0.0,0.0,0.0,0.0,0.0,0.0,0.0,0.0,0.0,0.0,0.0,0.0,0.0,0.0,0.0,0.0,0.0,0.0,0.0,0.0,-0.5001,0.0,0.0,0.0,0.0,0.0,0.0,0.0,0.0,0.0,0.0,0.0,0.0,0.0,0.0,0.0,0.0,0.0,0.0,0.0,0.0,0.0,0.0,0.0,-0.0481,-0.0329,-0.0461,-0.0751,-0.1154,-0.1358,-0.1502,-0.1611,-0.1685,-0.1687,-0.1615,-0.1434,-0.1238,-0.1051,-0.0782,-0.0582,-0.0516,-0.0347,-0.0229,-0.0195,-0.008,-0.0082,-0.0259,-0.0917,-0.1643,-0.2349,-0.2363,-0.2912,0.0,0.0,0.0,0.0,0.0,0.0,0.0,0.0,0.0,0.0,-1.0653,-1.0585,-1.0432,-1.029,-1.0137,-0.992,-0.9876,-0.9842,-0.9886,-0.9842,-0.9846,-0.9886,-0.9842,-0.9744,0.0,0.0,0.0,0.0,-0.8998,-0.8885,-0.8885,-0.8885,-0.8885,-0.8865,-0.8767,-0.9246,-1.0163,0.0,0.0,0.0,0.0,0.0,0.0,0.0,0.0,0.0,0.0,0.0,0.0,0.0,0.0,0.0,0.0,0.0,0.0,0.0,0.0,0.0,0.0,0.0,0.0,0.0,0.0,0.0,-0.5001,-0.5001,-0.5064,0.0,0.0,0.0,0.0,0.0,0.0,0.0,0.0,0.0,0.0,0.0,0.0,0.0,0.0,0.0,0.0,0.0,0.0,0.0,0.0,0.0,0.0,0.0,-0.0186,-0.0502,-0.0975,-0.1137,-0.1251,-0.1551,-0.164,-0.1611,-0.135,-0.128,-0.1189,-0.0777,-0.0564,-0.0374,-0.0317,-0.0154,0.0,0.0,0.0,0.0,0.0,-0.0221,-0.0418,-0.0513,-0.1032,-0.1419,0.0,0.0,0.0,0.0,0.0,0.0,0.0,0.0,0.0,0.0,0.0,-1.0429,-1.0287,-1.0134,-0.9916,-0.9825,-0.9822,-0.9897,-0.9984,-0.9893,-0.99,-0.998,-0.989,0.0,0.0,0.0,0.0,0.0,-0.8998,-0.8885,-0.8885,-0.8885,-0.8885,-0.8865,-0.8767,-0.8778,-0.925,0.0,0.0,0.0,0.0,0.0,0.0,0.0,0.0,0.0118,0.0,0.0,0.0,0.0,0.0,0.0,0.0,0.0,0.0,0.0,0.0,0.0,0.0,0.0,0.0,0.0,0.0,-0.3356,-0.4868,-0.4955,-0.5089,-0.5234,-0.4626,0.0,0.0,0.0,0.0,0.0,0.0,0.0,0.0,0.0,0.0,0.0,0.0,0.0,0.0,0.0,0.0,0.0,0.0,0.0,0.0,0.0,0.0,0.0,-0.0534,-0.0749,-0.0947,-0.1019,-0.1089,-0.1054,-0.0992,-0.0843,-0.0644,-0.0522,-0.0298,-0.0125,-0.0119,-0.0039,0.0,0.0,0.0,0.0,0.0,-0.0089,-0.0279,-0.0718,0.0,0.0,-0.1724,0.0,0.0,0.0,0.0,0.0,0.0,0.0,0.0,0.0,0.0,-1.0168,-1.0124,-1.0011,-0.9913,-0.9822,-0.9822,-0.9846,-0.9893,-0.9842,-0.9846,-0.9886,-0.9744,0.0,0.0,0.0,0.0,0.0,-0.8902,-0.8885,-0.8885,-0.8885,-0.8885,-0.8933,-0.9102,-0.915,-0.936,0.0,0.0,0.0,0.0,0.0,0.0,0.0,0.0,0.017,0.0088,0.003,0.0,0.0,0.0,0.0,0.0,0.0,0.0,0.0,0.0,0.0,0.0,0.0,0.0,0.0,-0.2184,-0.3054,-0.4795,-0.4871,-0.5029,-0.5232,-0.4357,-0.3741,-0.3329,0.0,0.0,0.0,0.0,0.0,0.0,0.0,0.0,-0.0367,0.0,0.0,0.0,0.0,0.0,0.0,0.0,0.0,0.0,0.0,0.0,0.0,0.0,-0.0383,-0.0537,-0.0736,-0.0805,-0.0775,-0.0675,-0.0535,-0.0352,-0.0255,-0.0126,0.0,0.0,0.0,0.0,0.0,0.0,0.0,0.0,0.0,-0.0185,0.0,0.0,0.0,-0.1795,0.0,0.0,0.0,0.0,0.0,0.0,0.0,0.0,0.0,0.0,-0.9457,-0.9903,-0.9903,-0.9883,-0.9845,-0.9845,-0.9937,-0.9995,-0.9934,-0.9876,-0.9815,0.0,0.0,0.0,0.0,0.0,0.0,-0.8885,-0.8885,-0.8885,-0.8885,-0.8885,-0.8937,-0.9268,-0.9385,-0.9487,0.0,0.0,0.0,0.0,0.0,0.0,0.0,0.0,0.0,0.0,0.0,0.0,0.0,0.0,0.0,0.0,0.0,0.0,0.0,0.0,0.0,0.0,0.0,0.0,0.0,-0.2088,-0.2947,-0.4618,-0.4712,-0.4833,-0.5006,-0.406,-0.3184,-0.2369,-0.1424,0.0,0.0,0.0,0.0,0.0,-0.0068,0.0,0.0,0.0,0.0,0.0,0.0,0.0,0.0,0.0,0.0,0.0,0.0,0.0,0.0,0.0,0.0,0.0,0.0,-0.073,-0.0665,-0.0443,-0.0393,-0.03,-0.0042,0.0,0.0,0.0,0.0,0.0,0.0,0.0,0.0,0.0,0.0,0.0,0.0,-0.0738,0.0,0.0,0.0,0.0,0.0,0.0,0.0,0.0,0.0,0.0,0.0,0.0,0.0,-0.9643,-0.9771,-0.9839,-0.997,-0.998,-1.0117,-1.0246,-1.0093,-0.9883,-0.9802,0.0,0.0,0.0,0.0,0.0,0.0,-0.8885,-0.8885,-0.8885,-0.8885,-0.8885,-0.8937,-0.9268,-0.9446,-0.9663,0.0,0.0,0.0,0.0,0.0,0.0,0.0,0.0,0.0,0.0,0.0,0.012,0.0,0.0,0.0,0.0,0.0,0.0,0.0,0.0,0.0,0.0,0.0,0.0,0.0,-0.2029,-0.2608,-0.3026,-0.3742,-0.3822,-0.3287,-0.2379,-0.1828,-0.1534,-0.0671,0.0,0.0,0.0,0.0,0.0,-0.0034,0.0,0.0,0.0,0.0,0.0,0.0,0.0,0.0,0.0,0.0,0.0,0.0,0.0,0.0,0.0,0.0,-0.0036,-0.0146,0.0,-0.0157,-0.0116,-0.0078,-0.0078,0.0,0.0,0.0,0.0,0.0,0.0,0.0,0.0,0.0,0.0,0.0,0.0,-0.0686,0.0,0.0,0.0,0.0,0.0,0.0,0.0,0.0,0.0,0.0,0.0,0.0,0.0,0.0,-0.8352,-0.9374,-0.9896,-0.9876,-0.993,-0.9947,-0.9927,-0.9781,-0.9693,-0.9649,0.0,0.0,0.0,0.0,0.0,-0.8885,-0.8885,-0.8885,-0.8885,-0.8885,-0.8885,-0.8937,-0.9268,-0.9409,-0.9516,0.0,0.0,0.0,0.0,0.0,0.0,0.0,0.0,0.0,0.0,0.0,0.0,0.0,0.0,0.0,0.0,0.0,0.0,0.0,0.0,0.0,0.0,0.0,0.0,-0.1544,-0.2135,-0.2617,-0.3013,-0.357,-0.3444,-0.2689,-0.1823,-0.1374,-0.1266,-0.0371,0.0,0.0,0.0,0.0,0.0,0.0,0.0,0.0,0.0,0.0,0.0,0.0,0.0,0.0,0.0,0.0,0.0,0.0,0.0,0.0,0.0,0.0,0.0,0.0,0.0,0.0,0.0,0.0,0.0,0.0,0.0,0.0,0.0,0.0,0.0,0.0,-0.0083,-0.0171,-0.0188,-0.0337,0.0,0.0,0.0,0.0,0.0,0.0,0.0,0.0,0.0,0.0,0.0,0.0,0.0,0.0,0.0,0.0,0.0,-0.8349,-0.9386,-0.9866,-0.9947,-0.9909,-0.9819,-0.9744,-0.9598,-0.9395,0.0,0.0,0.0,0.0,0.0,-0.8885,-0.8885,-0.8885,-0.8885,-0.8885,-0.8885,-0.8937,-0.9268,-0.9379,-0.9402,0.0,0.0,0.0,0.0,0.0,0.0,0.0,0.0,0.0,0.0,0.0,0.0,0.0,0.0,0.0,0.0,0.0,0.0,0.0,0.0,0.0,0.0,0.0,-0.0626,-0.1968,-0.2225,-0.2633,-0.3269,-0.3476,-0.3133,-0.2257,-0.153,-0.1139,-0.1055,-0.0328,0.0,0.0,0.0,0.0,0.0,0.0,0.0,0.0,0.0,0.0,0.0,0.0,0.0,0.0,0.0,0.0,0.0,0.0,0.0,0.0,0.0,0.0,0.0,0.0,0.0,0.0,0.0,0.0,0.0,0.0,0.0,0.0,0.0,0.0,0.0,-0.0042,-0.0214,-0.035,0.0,0.0,0.0,-0.1368,0.0,0.0,0.0,0.0,0.0,0.0,0.0,0.0,0.0,0.0,0.0,0.0,0.0,0.0,0.0,-0.7229,-0.8584,-0.9607,-0.9901,-0.9899,-0.9788,-0.9764,-0.9544,-0.921,-0.9187,0.0,0.0,0.0,0.0,-0.8885,-0.8885,-0.8885,-0.8885,-0.8885,-0.8885,-0.8937,-0.9213,-0.9323,-0.9336,0.0,0.0,0.0,0.0,0.0,0.0,0.0,0.0,0.0,0.0,0.0,0.0,0.0,0.0,0.0,0.0,0.0,0.0,0.0,0.0,0.0,0.0,0.0,-0.0479,-0.1471,-0.2129,-0.2216,-0.1736,-0.2399,-0.1897,-0.0392,-0.027,-0.0217,-0.0196,-0.0074,0.0,0.0,0.0,0.0,0.0,0.0,0.0,0.0,0.0,0.0,0.0,0.0,0.0,0.0,0.0,0.0,0.0,0.0,0.0,0.0,0.0,0.0,0.0,0.0,0.0,0.0,0.0,0.0,0.0,0.0,0.0,0.0,0.0,0.0,-0.0083,-0.0315,-0.0182,-0.014,0.0,0.0,-0.1061,0.0,0.0,0.0,0.0,0.0,0.0,0.0,0.0,0.0,0.0,0.0,0.0,0.0,0.0,0.0,0.0,0.0,-0.8069,-0.7985,-0.9303,-0.9852,-0.9642,-0.951,-0.9344,-0.9207,-0.9025,-0.8905,0.0,0.0,-0.8885,-0.8885,-0.8885,-0.8885,-0.8885,-0.8885,-0.8885,-0.8885,-0.894,-0.8992,-0.8951,0.0,0.0,0.0,0.0,0.0,0.0,0.0,0.0,0.0,0.0,0.0,0.0,0.0,0.0,0.0,0.0,0.0,0.0,0.0,0.0,0.0,0.0,0.0,-0.0592,-0.185,-0.1855,-0.1861,-0.1907,-0.1869,-0.1224,0.0,0.0,0.0,0.0,0.0,0.0,0.0,0.0,0.0,0.0,0.0,0.0,0.0,0.0,0.0,0.0,0.0,0.0,0.0,0.0,-0.0606,-0.0606,-0.0606,0.0,0.0,0.0,0.0,0.0,0.0,0.0,0.0,0.0,0.0,0.0,0.0,0.0,0.0,0.0,0.0,-0.0088,-0.0372,0.0,-0.0639,-0.1069,0.0,0.0,0.0,0.0,0.0,0.0,0.0,0.0,0.0,0.0,0.0,0.0,0.0,0.0,0.0,0.0,0.0,0.0,0.0,-0.5768,-0.5521,-0.6978,-0.8263,-0.9361,-0.935,-0.9181,-0.9035,-0.8967,-0.8885,-0.8885,0.0,-0.8885,-0.8885,-0.8885,-0.8885,-0.8885,-0.8885,-0.8885,-0.8885,-0.8885,-0.8832,-0.8672,0.0,0.0,0.0,0.0,0.0,0.0,0.0,0.0,0.0,0.0,0.0,0.0,0.0,0.0,0.0,0.0,0.0,0.0,0.0,0.0,0.0272,0.007,0.007,-0.0714,-0.2393,-0.168,-0.1673,-0.2431,-0.1674,-0.0839,0.0,0.0,0.0,0.0,0.0,0.0,0.0,0.0,0.0,0.0,0.0,0.0,0.0,0.0,0.0,0.0,0.0,0.0,0.0,0.0,0.0,0.0,0.0,0.0,0.0,-0.0471,-0.0269,-0.0237,-0.0034,0.0,0.0,0.0,0.0,0.0,0.0,0.0,0.0,0.0,0.0,-0.0093,-0.0336,-0.069,0.0,-0.156,-0.1642,0.0,0.0,0.0,0.0,0.0,0.0,0.0,0.0,0.0,0.0,0.0,0.0,0.0,0.0,0.0,0.0,0.0,0.0,0.0,-0.3741,-0.5369,-0.707,-0.8754,-0.8754,-0.8795,-0.8885,-0.8885,-0.8885,-0.8885,-0.8885,-0.8885,-0.8885,-0.8885,-0.8885,-0.8885,-0.8885,-0.8885,-0.8885,-0.8885,-0.8767,-0.853,0.0,0.0,0.0,0.0,0.0,0.0,0.0,0.0,0.0,0.0,0.0,0.0,0.0,0.0,0.0,0.0,0.0,0.0,0.0,0.0,0.0439,0.027,0.0283,-0.0713,-0.2807,-0.1817,-0.1822,-0.2849,-0.1814,-0.0851,0.0,0.0,0.0,0.0,0.0,0.0,0.0,0.0,0.0,0.0,0.0,0.0,0.0,0.0,0.0,0.0,0.0,0.0,0.0,0.0,0.0,0.0,0.0,0.0,-0.1879,-0.121,-0.1008,-0.0855,-0.0184,0.0,0.0,0.0,0.0,0.0,0.0,0.0,0.0,0.0,0.0,-0.0098,-0.0351,-0.0674,-0.0918,-0.1025,0.0,0.0,0.0,0.0,0.0,0.0,0.0,0.0,0.0,0.0,0.0,0.0,0.0,0.0,0.0,0.0,0.0,0.0,0.0,0.0,-0.362,-0.6079,-0.7391,-0.7553,-0.7553,-0.8001,-0.8885,-0.8885,-0.8885,-0.8885,-0.8885,-0.8885,-0.8885,-0.8885,-0.8885,-0.8885,-0.8885,-0.8885,-0.8885,-0.8885,-0.8835,-0.8672,0.0,0.0,0.0,0.0,0.0,0.0,0.0,0.0,0.0,0.0,0.0,0.0,0.0,0.0,0.0,0.0,0.0,0.0,0.0,0.0,0.0611,0.0448,0.0422,-0.0475,-0.244,-0.1166,-0.0961,-0.191,-0.0964,-0.0306,0.0,0.0,0.0,0.0,0.0,0.0,0.0,0.0,0.0,0.0,0.0,0.0,0.0,0.0,0.0,0.0,0.0,0.0,0.0,0.0,-0.2179,-0.2781,-0.2781,-0.2781,-0.2547,-0.1444,-0.1109,-0.0948,-0.021,0.0,0.0,0.0,0.0,0.0,0.0,0.0,0.0,0.0,0.0,-0.0104,-0.0365,0.0,-0.1189,-0.1238,0.0,0.0,0.0,0.0,0.0,0.0,0.0,0.0,0.0,0.0,0.0,0.0,0.0,0.0,0.0,0.0,0.0,0.0,0.0,0.0,0.0,-0.3447,-0.4683,-0.6198,-0.7609,-0.8542,-0.8885,-0.8885,-0.8885,-0.8885,-0.8885,-0.8885,-0.8885,-0.8885,-0.8885,-0.8885,-0.8885,-0.8885,-0.8885,-0.8885,-0.8781,-0.856,0.0,0.0,0.0,0.0,0.0,0.0,0.0,0.0,0.0,0.0,0.0,0.0,0.0,0.0,0.0,0.0,0.0,0.0,0.0,0.0851,0.0771,0.0614,0.059,-0.0143,-0.1713,-0.0797,-0.0749,-0.1658,-0.0558,0.0,0.0,0.0,0.0,0.0,0.0,0.0,0.0,0.0,0.0,0.0,0.0,0.0,0.0,0.0,0.0,0.0,0.0,0.0,0.0,0.0,-0.2581,-0.3249,-0.3487,-0.3553,-0.3253,-0.1847,-0.1429,-0.1207,-0.0242,0.0,0.0,0.0,0.0,0.0,0.0,0.0,0.0,0.0,0.0,-0.0107,-0.0373,0.0,0.0,0.0,0.0,0.0,0.0,0.0,0.0,0.0,0.0,0.0,0.0,0.0,0.0,0.0,0.0,0.0,0.0,0.0,0.0,0.0,0.0,0.0,0.0,-0.2186,-0.3191,-0.486,-0.6869,-0.8208,-0.8885,-0.8885,-0.8885,-0.8885,-0.8885,-0.8885,-0.8885,-0.8885,-0.8885,-0.8878,-0.8831,-0.8811,-0.8807,-0.8811,-0.8632,-0.8414,0.0,0.0,0.0,0.0,0.0,0.0,0.0,0.0,0.0,0.0,0.0,0.0,0.0,0.0,0.0,0.0,0.0,0.0,0.0,0.0985,0.0937,0.0807,0.0816,0.0283,-0.0764,-0.0917,-0.1505,-0.2473,-0.0831,0.0,0.0,0.0,0.0,0.0,0.0,0.0,0.0,0.0,0.0,0.0,0.0,0.0,0.0,0.0,0.0,0.0,0.0,0.0,0.0,0.0,-0.2581,-0.3351,-0.4064,-0.4303,-0.4,-0.2549,-0.2092,-0.1782,-0.0401,0.0,0.0,0.0,0.0,0.0,0.0,0.0,0.0,0.0,0.0,-0.0107,-0.0373,-0.0694,0.0,0.0,0.0,0.0,0.0,0.0,0.0,0.0,0.0,0.0,0.0,0.0,0.0,0.0,0.0,0.0,0.0,0.0,0.0,0.0,0.0,0.0,0.0,-0.2967,-0.358,-0.3636,-0.4804,-0.6589,-0.8881,-0.8881,-0.8881,-0.8885,-0.8885,-0.8885,-0.8885,-0.8881,-0.8878,-0.8865,-0.8767,-0.871,-0.8689,-0.8537,-0.8391,-0.8323,0.0,0.0,0.0,0.0,0.0,0.0,0.0,0.0,0.0,0.0,0.0,0.0,0.0,0.0,0.0,0.0,0.0,0.0,0.0,0.0985,0.098,0.0936,0.0952,0.0503,-0.0413,-0.0713,-0.113,-0.1663,-0.0563,0.0,0.0,0.0,0.0,0.0,0.0,0.0,0.0,0.0,0.0,0.0,0.0,0.0,0.0,0.0,0.0,0.0,0.0,0.0,0.0,0.0,0.0,0.0,-0.4233,-0.4414,-0.4372,-0.322,-0.2651,-0.2138,-0.1068,-0.038,0.0,0.0,0.0,0.0,0.0,0.0,0.0,0.0,0.0,0.0,-0.0109,-0.0543,0.0,0.0,0.0,0.0,0.0,0.0,0.0,0.0,0.0,0.0,0.0,0.0,0.0,0.0,0.0,0.0,0.0,0.0,0.0,0.0,0.0,0.0,0.0,0.0,-0.2744,-0.358,-0.397,-0.5365,-0.7654,-0.7654,-0.81,-0.8885,-0.8885,-0.8885,-0.8875,-0.8821,-0.8713,-0.8615,-0.8567,-0.855,-0.8543,-0.8499,-0.8391,-0.8323,0.0,0.0,0.0,0.0,0.0,0.0,0.0,0.0,0.0,0.0,0.0906,0.092,0.0,0.0,0.0,0.0,0.0,0.0,0.0,0.0,0.0997,0.1015,0.1038,0.0598,-0.0307,-0.0632,-0.0913,-0.119,-0.0382,0.0,0.0,0.0,0.0,0.0,0.0,0.0,0.0,0.0,0.0,0.0,0.0,0.0,0.0,0.0,0.0,0.0,0.0,0.0,0.0,0.0,0.0,0.0,-0.4131,-0.4398,-0.4397,-0.358,-0.3167,-0.2784,-0.2063,-0.1217,-0.0561,-0.0623,-0.0329,0.0,0.0,0.0,0.0,0.0,0.0,-0.0055,-0.0166,-0.044,0.0,0.0,0.0,0.0,0.0,0.0,0.0,0.0,0.0,0.0,0.0,0.0,0.0,0.0,0.0,0.0,0.0,0.0,0.0,0.0,0.0,0.0,-0.1795,0.0,0.0,-0.2912,-0.2892,-0.3877,-0.57,-0.6684,-0.7738,-0.8845,-0.8784,-0.8757,-0.875,-0.8659,-0.8564,-0.8476,-0.8421,-0.8397,-0.8391,-0.833,-0.8252,-0.8177,0.0,0.0,0.1338,0.1378,0.0,0.0,0.0,0.0,0.0,0.0926,0.0895,0.0913,0.0,0.0,0.0,0.091,0.0,0.0,0.0,0.0,0.0986,0.0988,0.0982,0.0513,-0.0456,-0.0682,-0.0861,-0.1086,-0.0359,0.0,0.0,0.0,0.0,0.0,0.0,0.0,0.0,0.0,0.0,0.0,0.0035,0.0,0.0,0.0035,0.0,0.0,0.0,0.0,0.0,0.0,0.0,0.0,-0.3861,-0.4314,-0.4235,-0.3779,-0.3645,-0.3536,-0.3173,-0.231,-0.1577,-0.1596,-0.0786,0.0,0.0,0.0,0.0,0.0,0.0,-0.0055,-0.0335,0.0,0.0,0.0,0.0,0.0,0.0,0.0,0.0,0.0,0.0,0.0,0.0,0.0,0.0,0.0,0.0,0.0,0.0,0.0,0.0,0.0,0.0,0.0,-0.1795,-0.1795,0.0,0.0,-0.1818,-0.2401,-0.3592,-0.5744,-0.7445,-0.8518,-0.849,-0.8476,-0.8462,-0.8462,-0.8455,-0.8428,-0.8299,-0.8248,-0.8235,-0.8092,-0.7988,-0.7988,0.0,0.0,0.1374,0.1384,0.0,0.0,0.0,0.0,0.1156,0.107,0.0953,0.0905,0.091,0.0899,0.0,0.0909,0.0894,0.0,0.0,0.0,0.0933,0.0987,0.0,0.0,0.0,-0.0712,-0.0915,-0.1783,-0.0599,0.0,0.0,0.0,0.0,0.0,0.0,0.0,0.0,0.0,0.0,0.0,0.0167,0.0132,0.0032,0.0167,0.0134,0.0,0.0,0.0,0.0,0.0,0.0,0.0,-0.4028,-0.4428,-0.455,-0.4243,-0.3983,-0.3806,-0.3667,-0.3146,-0.2498,-0.1794,-0.0794,0.0,0.0,0.0,0.0,0.0,0.0,0.0,0.0,0.0,0.0,0.0,0.0,0.0,0.0,0.0,0.0,0.0,0.0,0.0,0.0,0.0,0.0,0.0,0.0,0.0,0.0,0.0,0.0,0.0,0.0,-0.1795,-0.1795,-0.1795,-0.1783,0.0,-0.1807,-0.2388,-0.3531,-0.4027,-0.536,-0.7305,-0.8124,-0.8418,-0.8368,-0.8368,-0.8245,-0.8083,-0.8052,-0.8089,-0.8035,-0.8002,-0.7988,-0.7988,0.0,0.0,0.0,0.0,0.0,0.0,0.0,0.0,0.137,0.1183,0.1079,0.0996,0.0921,0.0891,0.0,0.0,0.0912,0.0914,0.0,0.0,0.0,0.0,0.0,0.0,0.0,0.0,0.0,-0.079,-0.0172,0.0105,0.0,0.0,0.0,0.0,0.0,0.0,0.0,0.0068,0.0098,0.0093,0.0195,0.0193,0.0093,0.013,0.0097,0.0,0.0,0.0,0.0,0.0,0.0,0.0,0.0,0.0,-0.4517,-0.4506,-0.4426,-0.439,-0.4551,-0.4116,-0.3311,-0.1929,-0.0801,0.0,0.0,0.0,0.0,0.0,0.0,0.0,0.0,0.0,0.0,0.0,0.0,0.0,0.0,0.0,0.0,0.0,0.0,0.0,0.0,0.0,0.0,0.0,0.0,0.0,0.0,0.0,0.0,0.0,-0.1558,-0.1551,-0.1551,-0.1539,-0.158,-0.1565,-0.1554,-0.1903,-0.2649,-0.4285,-0.5659,-0.6856,-0.7833,-0.8228,-0.816,-0.816,-0.8113,-0.7988,-0.7988,-0.7988,-0.7988,-0.7988,-0.7988,-0.7988,0.0,0.0,0.0,0.0,0.0,0.0,0.0,0.0,0.0,0.1273,0.1214,0.1127,0.0914,0.0887,0.0898,0.0,0.0,0.0,0.0898,0.0,0.0,0.0,0.0,0.0,0.0,0.0,0.0,0.0337,0.0371,0.0278,0.0111,0.0077,0.0079,0.0041,0.0079,0.0114,0.0108,0.0204,0.0225,0.0213,0.0251,0.0219,0.0152,0.0094,0.0031,0.0,0.0,0.0,-0.0193,-0.1485,0.0,0.0,0.0,0.0,-0.4165,-0.4369,-0.4419,-0.4503,-0.4892,-0.4428,-0.3489,-0.1977,-0.0805,0.0,0.0,0.0,0.0,0.0,0.0,0.0,0.0,0.0,0.0,0.0,0.0,0.0,0.0,0.0,0.0,0.0,0.0,0.0,0.0,0.0,0.0,0.0,0.0,0.0,0.0,0.0,-0.1001,-0.1223,-0.1207,-0.1252,-0.1252,-0.1234,-0.1223,-0.1219,-0.1251,-0.1384,-0.1719,-0.47,-0.6218,-0.6417,-0.7334,-0.7839,-0.7988,-0.7988,-0.7988,-0.7988,-0.7988,-0.7988,-0.7988,-0.7988,-0.7988,-0.7988,0.0,0.0,0.0,0.0,0.0,0.0,0.0,0.0,0.0,0.0,0.1329,0.1185,0.0916,0.0887,0.0898,0.0898,0.0898,0.0898,0.0,0.0,0.0,0.0,0.0,0.0,0.0,0.0,0.0,-0.0269,0.0404,0.0674,0.0622,0.0421,0.0312,0.0284,0.0427,0.0475,0.0441,0.0449,0.0362,0.0228,0.0383,0.0293,0.0057,0.0206,0.0149,0.0,0.0,0.0,-0.0125,-0.0962,-0.1617,0.0,0.0,0.0,0.0,-0.3388,-0.3111,-0.2847,-0.304,-0.2546,-0.1915,-0.1648,-0.0798,0.0,0.0,0.0,0.0,0.0,0.0,0.0,0.0,0.0,0.0,0.0,0.0,0.0,0.0,0.0,0.0,0.0,0.0,0.0,0.0,0.0,0.0,0.0,0.0,0.0,0.0,-0.0912,-0.0913,-0.0967,-0.0964,-0.0963,-0.0963,-0.0961,-0.0953,-0.0938,-0.1125,-0.1367,-0.1667,-0.3031,-0.4191,-0.5094,-0.6139,-0.7138,-0.7988,-0.7988,-0.7988,-0.7988,-0.7988,-0.7988,-0.7988,-0.7988,-0.7988,-0.7988,0.0,0.0,0.0,0.0,0.0,0.0,0.0,0.0,0.0,0.0,0.0,0.1175,0.0968,0.0926,0.0898,0.0898,0.0898,0.0,0.0,0.0,0.0,0.0,0.0,0.0,0.0,0.0,0.0,0.0263,0.0582,0.0732,0.0681,0.0743,0.0688,0.0568,0.062,0.0623,0.0622,0.053,0.0489,0.049,0.0459,0.0356,0.0217,0.0235,0.015,0.0,0.0,0.0,-0.0121,-0.084,-0.1301,-0.1671,-0.2365,0.0,0.0,0.0,-0.2479,-0.2561,-0.3362,-0.2582,-0.1613,-0.2214,-0.1184,0.0,0.0,0.0,0.0,0.0,0.0,0.0,0.0,0.0,0.0,0.0,0.0,0.0,0.0,0.0,0.0,0.0,0.0,0.0,0.0,0.0,0.0,0.0,0.0,0.0,-0.042,-0.0371,-0.048,-0.064,-0.0634,0.0,-0.0631,-0.0624,-0.0618,-0.0614,-0.0862,-0.1061,-0.1162,-0.1817,-0.2772,-0.3974,-0.5682,-0.6686,-0.7138,-0.7739,-0.7988,-0.7988,-0.7988,-0.7988,-0.7988,-0.7988,-0.7988,-0.7988,0.0,0.0,0.0,0.0,0.0,0.0,0.0,0.0,0.0,0.0,0.0,0.119,0.1004,0.0,0.0,0.0,0.0898,0.0,0.0,0.0,0.0,0.0,0.0,0.0,0.0,0.0,0.0926,0.0821,0.0778,0.0819,0.0847,0.0996,0.1057,0.0984,0.092,0.0864,0.0812,0.0694,0.0676,0.0739,0.0602,0.0504,0.0473,0.038,0.0261,0.0104,0.0096,0.0061,-0.0092,-0.0646,-0.0933,-0.1193,0.0,0.0,0.0,0.0,0.0,-0.1935,-0.2938,-0.2139,-0.1235,-0.2048,-0.1107,0.0,0.0,0.0,0.0,0.0,0.0,0.0,0.0,0.0,0.0,0.0,0.0,0.0,0.0,0.0,0.0,0.0,0.0,0.0,0.0,0.0,0.0,0.0,0.0,0.0,0.0,0.0,-0.0105,-0.0316,-0.0312,-0.0309,-0.0309,-0.0305,-0.0354,-0.0404,-0.0606,-0.0758,-0.0808,-0.101,-0.1665,-0.272,-0.4728,-0.5834,-0.6384,-0.7235,-0.7739,-0.7988,-0.7988,-0.7988,-0.7988,-0.7988,-0.7988,-0.7988,0.0,0.0,0.0,0.0,0.0,0.0,0.0,0.0,0.0,0.0,0.0,0.1268,0.0945,0.0888,0.0898,0.0898,0.0898,0.0,0.0,0.0,0.0,0.0,0.0,0.0,0.0,0.0916,0.0917,0.0888,0.0944,0.1082,0.126,0.1288,0.1395,0.1562,0.1441,0.1282,0.1172,0.1109,0.101,0.0903,0.0867,0.08,0.0705,0.0755,0.0621,0.0386,0.0393,0.0205,0.0,0.0,-0.0514,-0.1097,-0.1129,-0.114,-0.1165,0.0,0.0,0.0,-0.0205,-0.0144,-0.0076,-0.0128,-0.0092,0.0,0.0,0.0,0.0,0.0,0.0,0.0,0.0,0.0,0.0,0.0,0.0,0.0,0.0,0.0,0.0,0.0,0.0,0.0,0.0,0.0,0.0,0.0,0.0,0.0,0.0,0.0,0.0,0.0,0.0,0.0,0.0,0.0,-0.0152,-0.0404,-0.0404,-0.0556,-0.0808,-0.0808,-0.0859,-0.101,-0.267,-0.4377,-0.6029,-0.6334,-0.7086,-0.7988,-0.7988,-0.7988,-0.7988,-0.7988,-0.7988,-0.7988,0.0,0.0,0.0,0.0,0.0,0.0,0.0,0.0,0.0,0.0,0.0,0.0,0.0,0.1116,0.1038,0.1038,0.0954,0.0,0.0,0.0,0.0,0.0,0.0,0.0,0.0,0.0903,0.0913,0.0913,0.0934,0.1054,0.1236,0.1248,0.131,0.1412,0.1365,0.1317,0.1303,0.1076,0.1026,0.1078,0.0934,0.086,0.083,0.0905,0.0815,0.0636,0.0468,0.0331,0.0,0.0,0.0,-0.0383,-0.0395,-0.0394,-0.0397,-0.0406,-0.0204,-0.0121,-0.075,-0.0452,-0.0148,-0.076,-0.0429,0.0,0.0,0.0,0.0,0.0,0.0,0.0,0.0,0.0,0.0,0.0,0.0,0.0,0.0,0.0,0.0,0.0,0.0,0.0,0.0,0.0,0.0,0.0,0.0,0.0,0.0,0.0,0.0,0.0,0.0,0.0,0.0,0.0,-0.0051,-0.0152,-0.0152,-0.0202,-0.0303,-0.0455,-0.0455,-0.0354,-0.1262,-0.2418,-0.382,-0.5477,-0.6381,-0.6783,-0.7686,-0.7988,-0.7988,-0.7988,-0.7988,-0.7988,0.0,0.0,0.0,0.2188,0.0,0.1839,0.1789,0.1637,0.1514,0.1501,0.0,0.0,0.0,0.0,0.1107,0.1039,0.0954,0.0898,0.0898,0.0,0.0,0.0,0.0,0.0,0.0,0.0903,0.0913,0.0913,0.0893,0.0984,0.1122,0.1167,0.1216,0.1296,0.1257,0.1266,0.1339,0.1135,0.1095,0.1229,0.1132,0.1055,0.1065,0.1159,0.111,0.0917,0.0727,0.0,0.0,0.0,0.0,0.0,0.0,0.0,0.0,0.0,0.0,-0.0122,-0.0747,-0.0464,-0.0143,-0.0762,-0.0442,0.0,0.0,0.0,0.0,0.0,0.0,0.0,0.0,0.0,0.0,0.0,0.0,0.0,0.0,0.0,0.0,0.0,0.0,0.0,0.0,0.0,0.0,0.0,0.0,0.0,0.0,0.0,0.0,0.0,0.0,0.0,0.0,0.0,0.0,0.0,0.0,0.0,0.0,-0.0202,-0.0152,0.0,-0.0354,-0.121,-0.2415,-0.4474,-0.5527,-0.5977,-0.7235,-0.7789,-0.7842,-0.7842,-0.7942,-0.7988,0.2255,0.2255,0.2255,0.2255,0.2202,0.2139,0.2046,0.2034,0.1952,0.1749,0.0,0.0,0.0,0.0,0.0,0.0931,0.0899,0.0899,0.0899,0.0898,0.0,0.0,0.0,0.0,0.0913,0.0915,0.0915,0.0913,0.0913,0.0942,0.0999,0.106,0.1172,0.1284,0.1164,0.1159,0.1299,0.1286,0.1302,0.1311,0.1365,0.1416,0.141,0.1558,0.1447,0.1223,0.1223,0.0869,0.0,0.0407,0.0,0.0,0.0,0.0,0.0,0.0,0.0,0.0,0.0,0.0,0.0,0.0,0.0,0.0,0.0,0.0,0.0,0.0,0.0,0.0,0.0,0.0,0.0,0.0,0.0,0.0,0.0,0.0,0.0,0.0,0.0,0.0,0.0,0.0,0.0,0.0,0.0,0.0,0.0,0.0,0.0,0.0,0.0,0.0,0.0,0.0,0.0,0.0,0.0,0.0,0.0,0.0,0.0,0.0,0.0,-0.0756,-0.2063,-0.342,-0.4624,-0.5675,-0.6783,-0.7341,-0.7596,-0.7596,-0.7743,-0.7988,0.372,0.372,0.372,0.372,0.3666,0.3428,0.2866,0.2748,0.2518,0.0,0.0,0.0,0.1607,0.1348,0.1125,0.0994,0.0913,0.0901,0.0901,0.091,0.0898,0.0898,0.0947,0.0936,0.0914,0.0934,0.0934,0.0913,0.0892,0.0901,0.0938,0.0999,0.1042,0.1096,0.1104,0.1132,0.117,0.1157,0.1239,0.1376,0.135,0.1399,0.0,0.0,0.0,0.0,0.0,0.1111,0.0933,0.0,0.0639,0.0557,0.0356,0.0162,0.0,0.0,0.0,0.0,0.0,0.0,0.0,0.0,0.0,0.0,0.0,0.0,0.0,0.0,0.0,0.0,0.0,0.0,0.0,0.0,0.0,0.0,0.0,0.0,0.0,0.0,0.0,0.0,0.0,0.0,0.0,0.0,0.0,0.0,0.0,0.0,0.0,0.0,0.0,0.0,0.0,0.0,0.0,0.0,0.0,0.0,0.0,0.0,0.0,0.0,0.0,-0.0202,-0.0706,-0.2818,-0.3872,-0.4372,-0.6381,-0.7238,-0.7291,-0.7291,-0.7338,-0.7437,0.4287,0.4287,0.4336,0.4417,0.44,0.4122,0.3365,0.322,0.2927,0.0,0.0,0.0,0.1797,0.1521,0.1286,0.1147,0.099,0.0913,0.0913,0.0914,0.0898,0.0898,0.0956,0.098,0.0932,0.0992,0.0992,0.0932,0.0902,0.089,0.0895,0.0942,0.0967,0.0965,0.0987,0.1055,0.1099,0.1057,0.1189,0.1379,0.1365,0.0,0.0,0.1496,0.1578,0.0,0.0,0.0,0.1169,0.1003,0.0896,0.0,0.0,0.0415,0.0258,0.0153,0.0158,0.0132,0.0031,0.0,0.0,0.0,0.0,0.0,0.0,0.0,0.0,0.0,0.0,0.0,0.0,0.0,0.0,0.0,0.0,0.0,0.0,0.0,0.0,0.0,0.0,0.0,0.0,0.0,0.0,0.0,0.0,0.0,0.0,0.0,0.0,0.0,0.0,0.0,0.0,0.0,0.0,0.0,0.0,0.0,0.0,0.0,0.0,0.0,0.0,0.0,-0.0151,-0.2015,-0.302,-0.3623,-0.5482,-0.6537,-0.7039,-0.7039,-0.7089,-0.7188,0.0,0.4564,0.4607,0.4786,0.485,0.4624,0.3907,0.3795,0.3482,0.0,0.2416,0.2221,0.1897,0.1639,0.1404,0.1307,0.1068,0.0923,0.0923,0.0892,0.0901,0.0898,0.0956,0.0986,0.0984,0.0985,0.0987,0.0988,0.0928,0.09,0.0902,0.0899,0.0912,0.0907,0.091,0.096,0.1097,0.1017,0.1132,0.1308,0.1446,0.1452,0.0,0.0,0.1594,0.158,0.1607,0.1465,0.126,0.1236,0.105,0.0,0.0742,0.0745,0.067,0.0422,0.0403,0.0388,0.0134,0.0067,0.0069,0.0036,0.0035,0.0,0.0,0.0,0.0,0.0,0.0,0.0,0.0,0.0,0.0,0.0,0.0,0.0,0.0,0.0,0.0,0.0,0.0,0.0,0.0,0.0,0.0,0.0,0.0,0.0,0.0,0.0,0.0,0.0,0.0,0.0,0.0,0.0,0.0,0.0,0.0,0.0,0.0,0.0,0.0,0.0,0.0,0.0,-0.0051,-0.1009,-0.2116,-0.3324,-0.4381,-0.5589,-0.6742,-0.6742,-0.6889,-0.7089,0.5984,0.6123,0.626,0.6268,0.6417,0.6333,0.5765,0.5541,0.5261,0.4831,0.3791,0.2703,0.1766,0.1423,0.1233,0.1204,0.1075,0.0984,0.0984,0.0934,0.0894,0.0898,0.0956,0.0977,0.0922,0.0974,0.0987,0.0988,0.0928,0.0911,0.0904,0.0909,0.09,0.0906,0.09,0.0938,0.1007,0.1076,0.1171,0.1299,0.1329,0.0,0.1464,0.1487,0.157,0.1609,0.1615,0.1566,0.1511,0.1532,0.1326,0.1076,0.0,0.0915,0.0763,0.0635,0.0683,0.0705,0.0597,0.0562,0.0531,0.0367,0.0,0.0,0.0037,0.0,0.0,0.0,0.0,0.0,0.0,0.0,0.0,0.0,0.0,0.0,0.0,0.0,0.0,0.0,0.0,0.0,0.0,0.0,0.0,0.0,0.0,0.0,0.0,0.0,0.0,0.0,0.0,0.0,0.0,0.0,0.0,0.0,0.0,0.0,0.0,0.0,0.0,0.0,0.0,0.0,0.0,-0.0202,-0.1462,-0.3324,-0.4381,-0.5486,-0.6487,-0.6487,-0.6487,-0.6537,0.6387,0.6562,0.6741,0.6928,0.7102,0.708,0.6592,0.6381,0.6118,0.5679,0.4614,0.3452,0.2243,0.1891,0.1726,0.1706,0.1483,0.1305,0.1221,0.1138,0.1027,0.0893,0.0964,0.0982,0.0936,0.0979,0.0994,0.1011,0.0981,0.0928,0.0913,0.0912,0.0922,0.0934,0.0905,0.0978,0.1111,0.1109,0.1172,0.1241,0.1316,0.0,0.1481,0.156,0.159,0.1617,0.1617,0.1617,0.161,0.1564,0.1471,0.0,0.0,0.1173,0.1073,0.0,0.0894,0.0917,0.0756,0.0713,0.0676,0.0582,0.0,0.0,0.0,0.0,0.0113,0.0,0.0,0.0,0.0,0.0,0.0,0.0,0.0,0.0,0.0,0.0,0.0,0.0,0.0,0.0,0.0,0.0,0.0,0.0,0.0,0.0,0.0,0.0,0.0,0.0,0.0,0.0,0.0,0.0,0.0,0.0,0.0,0.0,0.0,0.0,0.0,0.0,0.0,0.0,0.0,0.0,-0.0958,-0.2519,-0.3575,-0.4682,-0.5684,-0.6184,-0.6387,-0.6387,0.6387,0.6595,0.6822,0.7074,0.735,0.7434,0.7059,0.6972,0.6651,0.5789,0.5098,0.411,0.2702,0.2375,0.2251,0.222,0.1947,0.1679,0.1461,0.1366,0.1209,0.094,0.0982,0.0991,0.0997,0.1027,0.1007,0.1001,0.1003,0.0975,0.0921,0.0891,0.0949,0.0991,0.0955,0.1042,0.12,0.1156,0.0,0.1266,0.0,0.1412,0.1453,0.1572,0.1599,0.16,0.1613,0.1617,0.1609,0.1553,0.1519,0.1487,0.1427,0.1432,0.0,0.0,0.0,0.0,0.0,0.0,0.0,0.0,0.0,0.0725,0.0,0.0,0.0,0.0118,0.0,0.0,0.0,0.0,0.0,0.0,0.0,0.0,0.0,0.0,0.0,0.0,0.0,0.0,0.0,0.0,0.0,0.0,0.0,0.0,0.0,0.0,0.0,0.0,0.0,0.0,0.0,0.0,0.0,0.0,0.0,0.0,0.0,0.0,0.0,0.0,0.0,0.0,0.0,0.0,-0.0505,-0.1412,-0.272,-0.3879,-0.4935,-0.5987,-0.6387,-0.6387,0.6387,0.6692,0.6918,0.6796,0.7326,0.774,0.7701,0.7777,0.7226,0.5481,0.53,0.4522,0.2528,0.227,0.2233,0.2264,0.2145,0.1941,0.1665,0.1487,0.1302,0.1094,0.1014,0.1001,0.0996,0.1057,0.1059,0.1001,0.1003,0.0986,0.0982,0.0922,0.0928,0.0995,0.104,0.1135,0.1204,0.1187,0.1279,0.0,0.1383,0.1364,0.0,0.1447,0.1488,0.1495,0.1598,0.1617,0.1611,0.0,0.1613,0.1599,0.0,0.151,0.1538,0.1401,0.0,0.0,0.0,0.0,0.0,0.0,0.0991,0.0,0.0,0.0,0.0515,0.0299,0.0,0.0,0.0,0.0,0.0,0.0,0.0,0.0,0.0,0.0,0.0,0.0,0.0,0.0,0.0,0.0,0.0,0.0,0.0,0.0,0.0,0.0,0.0,0.0,0.0,0.0,0.0,0.0,0.0,0.0,0.0,0.0,0.0,0.0,0.0,0.0,0.0,0.0,0.0,0.0,-0.0051,-0.0404,-0.2418,-0.3879,-0.4935,-0.5987,-0.6387,-0.6387,0.6387,0.6708,0.6963,0.6886,0.7384,0.7833,0.7894,0.841,0.8268,0.668,0.6792,0.6435,0.4927,0.4056,0.3908,0.4638,0.0,0.3392,0.0,0.0,0.2491,0.1591,0.1393,0.1293,0.1288,0.118,0.1069,0.1058,0.1029,0.1005,0.0988,0.0927,0.0956,0.1067,0.1091,0.1174,0.1296,0.0,0.1286,0.0,0.0,0.0,0.0,0.1473,0.1579,0.1582,0.1608,0.1617,0.1609,0.0,0.1545,0.0,0.0,0.0,0.0,0.0,0.0,0.0,0.0,0.0,0.0,0.0,0.0,0.0,0.0915,0.0,0.0703,0.0,0.0,0.0,0.0,0.0,0.0,0.0,0.0,0.0,0.0,0.0,0.0,0.0,0.0,0.0,0.0,0.0,0.0,0.0,0.0,0.0,0.0,0.0,0.0,0.0,0.0,0.0,0.0,0.0,0.0,0.0,0.0,0.0,0.0,0.0,0.0,0.0,0.0,0.0,0.0,0.0,0.0,-0.0151,-0.1664,-0.2922,-0.3979,-0.5083,-0.5887,-0.6387,0.6554,0.6767,0.6914,0.6918,0.7363,0.7833,0.8117,0.8759,0.8816,0.7684,0.7859,0.771,0.6642,0.5733,0.5552,0.6503,0.5696,0.4995,0.0,0.0,0.3673,0.2904,0.2044,0.1728,0.1973,0.1464,0.1191,0.1088,0.1043,0.1014,0.1,0.0948,0.0986,0.111,0.1152,0.1248,0.1379,0.0,0.135,0.1366,0.1423,0.1425,0.1389,0.15,0.1602,0.1617,0.1617,0.1617,0.1609,0.1556,0.1538,0.0,0.1529,0.0,0.0,0.0,0.0,0.0,0.1458,0.0,0.0,0.0,0.0,0.0,0.0,0.0,0.0,0.0,0.0,0.0,0.0,0.0,0.0,0.0402,0.0,0.0,0.0,0.0,0.0,0.0,0.0,0.0,0.0,0.0,0.0,0.0,0.0,0.0,0.0,0.0,0.0,0.0,0.0,0.0,0.0,0.0,0.0,0.0,0.0,0.0,0.0,0.0,0.0,0.0,0.0,0.0,0.0,0.0,0.0,-0.0101,-0.0858,-0.1815,-0.2922,-0.428,-0.5486,-0.6387,0.6939,0.6833,0.6722,0.67,0.7139,0.7771,0.8486,0.8714,0.8586,0.7856,0.7811,0.0,0.0,0.0,0.0,0.0,0.0,0.6402,0.6171,0.0,0.4435,0.5266,0.3092,0.2316,0.0,0.2098,0.1365,0.1084,0.1032,0.1004,0.1,0.0999,0.1047,0.1118,0.1231,0.1316,0.1313,0.144,0.151,0.1562,0.1533,0.1556,0.1603,0.0,0.1566,0.1617,0.1617,0.0,0.0,0.1581,0.1619,0.0,0.0,0.0,0.0,0.0,0.0,0.0,0.0,0.0,0.0,0.1336,0.0,0.0,0.0,0.0,0.1203,0.0,0.0,0.0,0.0,0.0,0.0656,0.0588,0.0595,0.0,0.0,0.0,0.0,0.0,0.0,0.0,0.0,0.0,0.0,0.0,0.0,0.0,0.0,0.0,0.0,0.0,0.0,0.0,0.0,0.0,0.0,0.0,0.0,0.0,0.0,0.0,0.0,0.0,0.0,0.0,0.0,0.0,0.0,0.0,-0.0051,-0.0707,-0.1915,-0.4029,-0.5486,-0.6387,0.7123,0.702,0.6898,0.6902,0.7347,0.791,0.8518,0.9015,0.9252,0.0,0.9241,0.0,0.0,0.849,0.8352,0.0,0.0,0.7891,0.7751,0.7138,0.0,0.6156,0.5053,0.421,0.0,0.3591,0.2776,0.1181,0.166,0.1615,0.1057,0.1071,0.1077,0.111,0.1223,0.1311,0.0,0.0,0.0,0.0,0.0,0.3214,0.2568,0.0,0.0,0.1617,0.1617,0.1617,0.0,0.1605,0.1588,0.1573,0.1583,0.1566,0.1543,0.1553,0.1549,0.0,0.0,0.0,0.1537,0.1456,0.0,0.0,0.0,0.0,0.0,0.0,0.0,0.0,0.0,0.0931,0.0839,0.0787,0.0695,0.057,0.0,0.0,0.0,0.0,0.0,0.0,0.0,0.0,0.0,0.0,0.0,0.0,0.0,0.0,0.0,0.0,0.0,0.0,0.0,0.0,0.0,0.0,0.0,0.0,0.0,0.0,0.0,0.0,0.0,0.0,0.0,0.0,0.0,0.0,0.0,-0.0656,-0.1664,-0.2418,-0.3827,-0.5436,0.7492,0.7362,0.7257,0.7188,0.7629,0.8151,0.8584,0.9263,0.0,0.0,1.0128,0.0,1.0513,0.0,0.9703,0.0,0.9758,0.9231,0.9116,0.8592,0.0,0.771,0.6667,0.0,0.0,0.0,0.4055,0.2404,0.2811,0.2655,0.2022,0.1967,0.1971,0.203,0.0,0.1973,0.2396,0.2198,0.2703,0.0,0.0,0.4332,0.0,0.0,0.2521,0.217,0.0,0.2422,0.2672,0.2321,0.2153,0.2185,0.2161,0.1887,0.1562,0.1582,0.1573,0.1556,0.1545,0.1556,0.0,0.1496,0.1466,0.0,0.1321,0.0,0.0,0.0,0.0,0.0,0.0,0.0,0.1046,0.1038,0.0926,0.0785,0.0,0.0,0.0,0.0,0.0,0.0,0.0,0.0,0.0193,0.0203,0.0,0.0,0.0,0.0,0.0093,0.0,0.0,0.0,0.0,0.0,0.0,0.0,0.0,0.0,0.0,0.0,0.0,0.0,0.0,0.0,0.0,0.0,0.0,0.0,0.0,-0.0404,-0.1059,-0.1462,-0.2972,-0.4935,0.8008,0.7914,0.7792,0.0,0.7971,0.0,0.0,0.0,0.9953,0.0,1.0485,1.0708,1.0716,1.0716,1.0716,1.0708,1.0558,1.0383,1.0253,0.9183,0.0,0.0,0.7829,0.7036,0.7804,0.0,0.0,0.0,0.4342,0.404,0.3728,0.3518,0.352,0.3655,0.283,0.0,0.4175,0.3542,0.39,0.4874,0.4924,0.4924,0.4874,0.4924,0.0,0.3374,0.3274,0.3924,0.4624,0.3624,0.3274,0.3274,0.3274,0.2572,0.1768,0.1768,0.1768,0.1761,0.168,0.1671,0.1657,0.1549,0.0,0.0,0.0,0.0,0.1379,0.0,0.0,0.0,0.0,0.0,0.1294,0.1302,0.1232,0.1108,0.0856,0.0,0.0,0.0,0.0,0.0,0.0,0.0434,0.0366,0.008,0.0388,0.0434,0.0,0.0,0.0,0.0046,0.0047,0.0048,0.0048,0.0049,0.0049,0.0049,0.005,0.005,0.0051,0.0051,0.0051,0.0051,0.0051,0.0051,0.0051,0.0,0.0,0.0,0.0,0.0,-0.0151,-0.121,-0.2871,-0.4782,0.8461,0.8491,0.8495,0.0,0.8507,0.8804,0.0,0.0,0.0,0.0,1.0676,1.0944,1.107,1.1086,1.1037,1.0911,1.0858,0.0,0.0,0.0,0.0,1.0241,0.9477,0.8628,0.7816,0.7724,0.0,0.5053,0.0,0.0,0.4132,0.3925,0.3784,0.3703,0.0,0.372,0.421,0.4076,0.4768,0.6082,0.6833,0.6684,0.0,0.0,0.6534,0.5482,0.4676,0.4574,0.4774,0.4474,0.4373,0.4373,0.4373,0.4223,0.3974,0.3974,0.3974,0.382,0.3006,0.2802,0.2597,0.1784,0.1548,0.1508,0.0,0.0,0.0,0.0,0.0,0.0,0.0,0.0,0.0,0.1305,0.1232,0.1159,0.1114,0.0,0.0,0.0,0.0,0.0,0.0697,0.0615,0.0596,0.0675,0.0566,0.0,0.0,0.0,0.0,0.0541,0.0507,0.0517,0.0524,0.0527,0.0532,0.0589,0.0592,0.0598,0.0606,0.0606,0.0606,0.0606,0.0606,0.0606,0.0556,0.0404,0.0303,0.0253,0.0101,0.0,-0.0151,-0.121,-0.1966,-0.267,0.88,0.9003,0.0,0.9047,0.0,0.0,0.9616,0.0,0.0,1.0501,1.0858,0.0,1.111,1.1248,1.1273,1.1094,1.1078,0.0,1.0708,0.0,0.0,1.0387,1.0237,0.9725,0.8885,0.8897,0.0,0.6645,0.0,0.6333,0.5447,0.5214,0.4981,0.4749,0.0,0.4728,0.5312,0.5697,0.6342,0.7138,0.7739,0.0,0.0,0.7789,0.764,0.7036,0.6431,0.6179,0.6129,0.5679,0.5479,0.5479,0.5479,0.5177,0.4824,0.4824,0.4824,0.4674,0.4074,0.3924,0.3624,0.2572,0.263,0.2672,0.1723,0.1858,0.2035,0.0,0.0,0.0,0.0,0.0,0.0,0.1249,0.1212,0.1186,0.0,0.0,0.0,0.0,0.0,0.0,0.0948,0.0851,0.0805,0.0729,0.0776,0.0,0.0,0.0,0.0,0.0707,0.0722,0.0688,0.0696,0.0703,0.071,0.0766,0.0779,0.079,0.0798,0.0805,0.0808,0.0808,0.0808,0.0808,0.0808,0.0657,0.0556,0.0556,0.0303,0.0253,0.0253,-0.0606,-0.1513,-0.2519,0.9169,0.9453,0.0,0.0,0.0,0.0,0.0,1.0216,0.0,1.0716,0.0,1.1236,1.1147,1.135,1.1459,1.1277,0.0,1.1114,1.0781,1.0891,1.083,1.0463,1.0407,1.0363,1.0253,0.9768,0.9184,0.0,0.0,0.7609,0.6904,0.6727,0.6467,0.0,0.0,0.0,0.0,0.7559,0.7948,0.8038,0.8038,0.8038,0.7988,0.7988,0.7988,0.7988,0.7988,0.7988,0.7839,0.6936,0.6587,0.6587,0.6587,0.5979,0.5225,0.5225,0.5225,0.5175,0.5024,0.5027,0.4776,0.3674,0.4124,0.4287,0.2369,0.2637,0.3018,0.192,0.1682,0.0,0.0,0.0,0.0,0.1238,0.0,0.0,0.0,0.0,0.0,0.0,0.0,0.0,0.0,0.1109,0.0959,0.0615,0.0939,0.0,0.0,0.0,0.0,0.0,0.0796,0.0,0.0807,0.0,0.0784,0.0787,0.0863,0.0879,0.0884,0.0899,0.0907,0.0909,0.0909,0.0909,0.0909,0.0859,0.0808,0.0758,0.0556,0.0606,0.0758,0.0253,-0.116,-0.3071,0.9535,0.0,0.0,0.0,0.0,1.0477,1.0741,1.0865,1.0899,1.1102,1.1451,1.1667,1.1638,1.1691,1.1654,1.1468,1.1451,0.0,0.0,0.0,0.0,1.0879,1.0595,1.0366,1.0387,0.987,0.9372,0.0,0.8484,0.7763,0.6884,0.6857,0.6643,0.6276,0.0,0.0,0.7716,0.7983,0.0,0.8333,0.8333,0.8187,0.7988,0.7988,0.7988,0.7988,0.7988,0.7988,0.7988,0.7789,0.7739,0.7739,0.7739,0.7587,0.7434,0.7434,0.7434,0.7235,0.6384,0.6134,0.5882,0.4776,0.4674,0.4716,0.4288,0.438,0.4184,0.3142,0.2879,0.2605,0.1692,0.0,0.0,0.0,0.0,0.0,0.0,0.0,0.0,0.0,0.0,0.0,0.0,0.0,0.1115,0.0989,0.0,0.0,0.0,0.0,0.0,0.0,0.0,0.0,0.0,0.0,0.0,0.1342,0.1352,0.1428,0.1474,0.1478,0.1444,0.1465,0.1465,0.1465,0.1465,0.1212,0.101,0.0808,0.0758,0.0758,0.0808,0.0707,-0.0151,-0.1461,1.1444,0.0,0.0,0.0,0.0,0.0,0.0,1.2683,0.0,1.1294,1.1378,1.1488,1.1488,1.1663,1.174,1.165,1.1642,1.1565,1.1378,1.1289,1.1163,1.1033,1.0806,0.0,1.0387,1.0087,0.9681,0.9277,0.8698,0.8072,0.7381,0.7247,0.6949,0.6506,0.0,0.7371,0.0,0.0,0.0,0.8627,0.8627,0.8531,0.8432,0.8432,0.8333,0.8187,0.8187,0.8137,0.7988,0.7988,0.7988,0.7988,0.7988,0.7988,0.7988,0.7988,0.7988,0.7889,0.7388,0.7238,0.6986,0.5879,0.6029,0.6179,0.5074,0.5227,0.5329,0.4275,0.4024,0.368,0.254,0.2285,0.0,0.0,0.0,0.0,0.0,0.0,0.0,0.0,0.0,0.0,0.0,0.0,0.0,0.0,0.0,0.0,0.0,0.0,0.0,0.0,0.0,0.0,0.0,0.0,0.0,0.1457,0.1489,0.1519,0.1549,0.1581,0.1603,0.1617,0.1617,0.1617,0.1566,0.1465,0.1314,0.1212,0.1061,0.1111,0.1162,0.0909,0.0555,0.005,0.0,1.3098,0.0,0.0,1.3359,0.0,1.4885,1.4526,1.3547,1.1949,1.1512,1.1338,1.1338,1.1602,1.1776,1.1776,1.1776,1.1715,1.1569,1.152,1.1374,1.1094,1.1045,1.0875,1.0554,1.0335,0.9957,0.0,0.0,0.8367,0.7796,0.7649,0.7339,0.699,0.0,0.0,0.0,0.0,0.8781,0.8878,0.8878,0.8874,0.8825,0.8825,0.8627,0.8382,0.8482,0.8333,0.8088,0.8088,0.8038,0.7988,0.7988,0.7988,0.7988,0.7988,0.7988,0.7988,0.7988,0.7988,0.7789,0.6936,0.7388,0.7537,0.5877,0.6132,0.6434,0.5377,0.4974,0.4516,0.3571,0.3375,0.0,0.0,0.0,0.0,0.0,0.0,0.0,0.0,0.0,0.0,0.0,0.0,0.0,0.0,0.0,0.0,0.0,0.0,0.0,0.0,0.0,0.0,0.1381,0.0,0.1391,0.0,0.1491,0.152,0.148,0.1582,0.1611,0.1617,0.1617,0.1617,0.1617,0.1617,0.1617,0.1566,0.1364,0.1415,0.1566,0.1111,0.1111,0.1111,0.0,0.0,0.0,0.0,0.0,0.0,0.0,1.5338,1.496,1.3613,1.2431,1.1723,1.1723,1.1756,1.1776,1.1776,1.1776,1.1768,1.1752,1.1593,1.1484,1.1451,1.1289,1.111,1.0923,1.0586,1.0144,0.0,0.0,0.8442,0.78,0.7784,0.7801,0.789,0.0,0.0,0.0,0.8993,0.9024,0.9183,0.9183,0.9031,0.8825,0.8825,0.8627,0.8432,0.8676,0.8577,0.8382,0.8382,0.8187,0.7988,0.7988,0.7988,0.7988,0.7988,0.7988,0.7988,0.7988,0.7988,0.7988,0.7889,0.7939,0.7939,0.7736,0.7786,0.7537,0.6484,0.5479,0.4695,0.4439,0.4398,0.406,0.0,0.0,0.0,0.0,0.0,0.2614,0.2513,0.0,0.0,0.0,0.0,0.0,0.0,0.0,0.0,0.0,0.0,0.0,0.0,0.0,0.1323,0.1394,0.1422,0.0,0.1391,0.1469,0.15,0.1479,0.1561,0.1591,0.1617,0.1617,0.1617,0.1617,0.1617,0.1617,0.1617,0.1566,0.1566,0.1617,0.1566,0.1566,0.1566,0.0,0.0,0.0,0.0,0.0,0.0,0.0,1.7155,1.6568,1.6031,1.4202,1.296,1.296,1.2251,1.1776,1.1776,1.1776,1.1776,1.1776,1.1707,1.1618,1.1504,1.1427,1.1305,1.1126,1.0773,1.0379,0.0,0.0,0.0,0.0,0.0,0.0,0.0,0.0,0.9079,0.9433,0.9622,0.9732,0.9796,0.9796,0.9741,0.9634,0.9634,0.9485,0.9218,0.9213,0.9024,0.8812,0.8663,0.8482,0.8237,0.8038,0.7988,0.7988,0.7988,0.7988,0.7988,0.7988,0.7988,0.7988,0.7988,0.7988,0.7988,0.7988,0.7988,0.7889,0.7437,0.697,0.6374,0.5658,0.5464,0.5008,0.0,0.0,0.0,0.0,0.0,0.0,0.3436,0.0,0.3051,0.0,0.0,0.0,0.0,0.0,0.1128,0.1137,0.0,0.0,0.1312,0.0,0.1319,0.139,0.142,0.1391,0.1391,0.1466,0.1497,0.1479,0.1558,0.1588,0.1617,0.1617,0.1617,0.1617,0.1617,0.1617,0.1617,0.1617,0.1617,0.1617,0.1617,0.1617,0.1617,1.9046,0.0,1.8271,0.0,1.8093,1.8103,1.9254,1.8648,1.8046,1.8046,1.6155,1.4674,1.4321,1.3439,1.2788,1.2367,1.2367,1.2191,1.1837,1.1776,1.1719,1.1585,1.1581,0.0,1.1309,1.1005,1.0672,1.0371,0.9882,0.0,0.0,0.8958,0.0,0.0,0.9397,0.9612,0.9803,1.0054,1.0212,1.0212,1.0212,1.0212,1.0212,1.0212,1.0008,0.9783,0.9705,0.9508,0.9288,0.9163,0.894,0.8642,0.8251,0.8088,0.7988,0.7988,0.7988,0.7988,0.7988,0.7988,0.8041,0.8088,0.8137,0.8137,0.8137,0.8187,0.8237,0.8137,0.7965,0.7556,0.6741,0.6478,0.6003,0.0,0.0,0.0,0.0,0.0,0.0,0.0,0.4119,0.4006,0.4422,0.0,0.0,0.0,0.0,0.1776,0.1539,0.0,0.0,0.0,0.0,0.0,0.0,0.0,0.1838,0.1838,0.2151,0.2196,0.1956,0.1713,0.1596,0.1617,0.1617,0.1617,0.1617,0.1617,0.1617,0.1617,0.1617,0.1617,0.1617,0.1617,0.1617,0.1617,2.0173,2.016,2.0067,1.9846,1.9793,1.9686,1.947,1.9366,1.9366,1.9366,1.8227,1.6979,1.5688,1.5575,1.5035,1.3784,1.3665,1.3135,1.1893,1.1776,1.1776,0.0,0.0,1.1687,1.15,1.1313,1.1041,1.0684,0.0,0.0,0.9868,0.9697,0.9705,0.9872,0.9876,1.0033,1.0208,1.0212,1.0212,1.0212,1.0212,1.0212,1.0212,1.0212,1.0008,0.9851,1.0108,1.0004,0.9795,0.9795,0.9677,0.9349,0.8631,0.8237,0.7988,0.7988,0.7988,0.7988,0.7988,0.7988,0.8088,0.8333,0.8382,0.8382,0.8382,0.8577,0.8726,0.8432,0.8063,0.777,0.7628,0.7475,0.6998,0.5886,0.0,0.0,0.0,0.0,0.0,0.0,0.4648,0.4606,0.6125,0.0,0.0,0.0,0.0,0.0,0.0,0.0,0.0,0.3917,0.3066,0.0,0.2775,0.2837,0.2867,0.2913,0.3837,0.3823,0.2957,0.2035,0.1616,0.1617,0.1617,0.1617,0.1617,0.1617,0.1617,0.1617,0.1617,0.1617,0.1617,0.1617,0.1617,0.1617,2.0828,2.0668,2.0508,2.0414,2.0067,1.9766,1.9679,1.9492,1.9424,1.9424,1.9068,1.8648,1.824,1.6638,1.5451,0.0,1.4976,1.4798,0.0,1.4386,1.4386,1.4386,1.4386,1.4356,1.4282,1.4116,1.3851,1.3613,0.0,0.0,0.0,1.2339,1.2339,1.2414,1.257,1.2216,1.156,1.1634,1.1267,1.0521,1.0521,1.0521,1.0521,1.0521,1.0471,1.0401,1.0338,1.0294,1.0225,1.01,0.9916,0.9653,0.9444,0.8961,0.8528,0.8528,0.8528,0.8528,0.8528,0.8528,0.8581,0.8627,0.8676,0.8676,0.8676,0.8726,0.8775,0.8676,0.8503,0.8331,0.8284,0.8056,0.7751,0.7379,0.0,0.0,0.0,0.0,0.0,0.0,0.6394,0.6266,0.0,0.6331,0.0,0.0,0.0,0.0,0.0,0.0,0.0,0.0,0.3794,0.0,0.3766,0.3804,0.3844,0.3846,0.4139,0.3864,0.3006,0.2776,0.227,0.1617,0.1617,0.1617,0.1617,0.1617,0.1617,0.1617,0.1617,0.1617,0.1617,0.1617,0.1617,0.1617,2.1109,2.0962,2.0808,2.0695,2.0374,2.0094,1.998,1.972,1.9533,1.9533,1.9432,1.9424,1.9424,1.8,0.0,1.6338,1.6338,1.6101,1.5634,1.5575,1.5575,1.5575,1.5575,1.5575,1.5575,0.0,0.0,1.5091,1.4761,1.4369,1.3988,1.3988,1.3887,1.3805,1.391,1.3556,1.2933,1.3004,1.263,1.1982,1.1982,1.1714,1.1341,1.1341,1.1067,1.0676,1.057,1.053,1.0513,1.04,1.0212,1.0055,1.0055,0.9701,0.9252,0.8987,0.8873,0.8825,0.8825,0.8825,0.8825,0.8928,0.8928,0.8977,0.9076,0.8924,0.8825,0.8928,0.8751,0.859,0.859,0.8374,0.8173,0.8117,0.0,0.7927,0.7992,0.0,0.0,0.0,0.0,0.0,0.0,0.7188,0.0,0.0,0.0,0.0,0.0,0.0,0.0,0.493,0.4764,0.0,0.4773,0.4793,0.4823,0.4825,0.4899,0.4701,0.4186,0.3922,0.3423,0.2772,0.2371,0.222,0.217,0.1768,0.1617,0.1617,0.1617,0.1617,0.1617,0.1617,0.1617,0.1617,2.1109,2.1109,0.0,0.0,2.0688,0.0,2.0307,2.0013,1.9826,1.9826,1.9593,1.9491,1.9491,1.947,1.8978,1.7778,0.0,0.0,0.0,1.5865,1.5865,1.5865,1.5865,0.0,1.5865,1.5865,1.5744,1.5555,1.5375,1.5138,1.4845,1.4845,1.4724,1.4401,1.4401,1.4337,1.4266,1.4266,1.4202,1.4078,1.4078,1.3437,1.2526,1.2526,1.1878,1.0962,1.0962,1.0962,1.0962,1.0962,1.0799,1.0663,1.0663,1.0534,1.0296,0.9449,0.9024,0.8893,0.8893,0.8882,0.8924,0.9183,0.9236,0.9286,0.9529,0.9225,0.8924,0.9183,0.8912,0.8657,0.8657,0.8566,0.84,0.8192,0.8337,0.8448,0.8268,0.0,0.0,0.0,0.0,0.0,0.0,0.7473,0.753,0.0,0.0,0.0,0.0,0.0,0.5733,0.6702,0.6002,0.5692,0.5808,0.5808,0.5813,0.5824,0.6018,0.6143,0.616,0.5282,0.4874,0.4724,0.3725,0.3324,0.3224,0.217,0.1718,0.1718,0.1617,0.1617,0.1617,0.1617,0.1617,0.1617,0.0,0.0,2.1089,2.1022,2.0822,2.0655,2.0581,2.0321,2.0134,2.0134,2.0067,2.0027,2.0027,1.9826,1.9575,1.9273,1.907,1.8829,1.8532,1.8473,1.8473,1.8473,1.8473,1.8473,1.8473,1.8473,1.8339,1.8052,1.7982,1.786,1.7591,1.7591,1.7552,1.7433,1.7433,1.6807,1.5771,1.5771,1.5118,1.4078,1.4078,1.3922,1.3706,1.3706,1.3545,1.3275,1.3275,1.3275,1.3275,1.3275,1.3239,1.3199,1.3199,1.3105,1.2626,1.056,0.9812,0.9617,0.9617,0.9526,0.9426,0.948,0.9529,0.9529,0.9579,0.9525,0.9426,0.948,0.9448,0.9367,0.9367,0.9272,0.9092,0.8877,0.8643,0.8497,0.85,0.8154,0.0,0.0,0.8131,0.8038,0.7859,0.8144,0.811,0.0,0.0,0.0,0.0,0.0,0.6965,0.6871,0.675,0.675,0.6786,0.6786,0.684,0.7002,0.7237,0.6952,0.6209,0.608,0.5579,0.4774,0.4524,0.4425,0.4325,0.3274,0.2822,0.2723,0.1919,0.1617,0.1617,0.1617,0.1617,0.1617,2.1299,2.1235,2.1109,2.1109,2.0982,2.0875,2.0875,2.0628,2.0434,2.0434,2.0321,2.0173,2.0173,2.0094,1.9947,1.9813,1.9533,1.9424,1.9424,1.9424,1.9424,1.9424,1.9424,1.9424,1.9424,1.9424,1.9292,1.9125,1.9125,1.8978,1.8691,1.8691,1.8617,1.849,1.849,1.8059,1.7285,1.7285,1.6862,1.612,1.612,1.5717,1.5113,1.5113,1.4715,1.4078,1.4078,1.4078,1.4078,1.4078,1.4078,1.4078,1.4078,1.4051,1.3715,1.238,1.1453,1.0697,1.0057,0.9815,0.9726,0.9648,0.9579,0.9579,0.9579,0.9579,0.9579,0.9579,0.9579,0.9579,0.9579,0.9478,0.9347,0.9125,0.8854,0.8628,0.8593,0.8324,0.0,0.8406,0.8418,0.8406,0.8385,0.8564,0.8516,0.8132,0.0,0.0,0.767,0.7703,0.7598,0.7225,0.7374,0.7408,0.7279,0.7258,0.7356,0.7573,0.7736,0.7505,0.703,0.7102,0.6833,0.6229,0.5729,0.5529,0.5429,0.4375,0.3924,0.3875,0.3274,0.3074,0.3074,0.3074,0.3074,0.2973,2.1607,2.1418,2.1235,2.1235,2.1235,2.1235,2.1235,2.109,2.0928,2.0928,2.0644,2.0483,2.0483,2.0388,2.0241,1.9946,1.9658,1.9412,1.943,1.9424,1.9424,1.9424,1.9424,1.9424,1.9424,1.9424,1.9424,1.9424,1.9424,1.9239,1.8991,1.8991,1.8858,1.8624,1.8624,1.8597,1.8557,1.8557,1.8531,1.849,1.849,1.7767,1.6648,1.6648,1.5843,1.4786,1.4786,1.471,1.4676,1.4676,1.4648,1.462,1.462,1.462,1.4567,1.44,1.3483,1.2208,1.0877,1.0429,1.0339,1.0111,1.0064,1.0064,1.0064,1.0064,1.0064,1.0064,1.0064,1.0064,1.0064,0.9981,0.9754,0.9405,0.9188,0.8968,0.8637,0.0,0.843,0.8629,0.8673,0.8706,0.8848,0.8865,0.8865,0.8865,0.8516,0.0,0.0,0.8126,0.7969,0.7848,0.7874,0.7816,0.7619,0.7549,0.761,0.7862,0.7834,0.7913,0.7988,0.7988,0.7988,0.7939,0.7036,0.6637,0.6537,0.5477,0.5024,0.5027,0.4874,0.4824,0.4824,0.4824,0.4824,0.4674,2.1985,2.1985,2.1922,2.1922,2.1922,2.1922,2.1922,2.1881,2.1853,2.1853,2.1811,2.1784,2.1784,2.1369,2.091,2.061,2.0079,1.9633,1.9379,1.9424,1.9424,1.9424,1.9424,1.9424,1.9424,1.9424,1.9424,1.9424,1.9424,1.9345,1.9299,1.9299,1.9279,1.9232,1.9232,1.9092,1.8858,1.8858,1.8718,1.849,1.849,1.8346,1.8134,1.8134,1.7997,1.7841,1.7841,1.7631,1.7369,1.7369,1.7248,1.7041,1.7041,1.7041,1.6882,1.5908,1.5482,1.4988,1.3645,1.2986,1.2631,1.2304,1.2198,1.2198,1.2198,1.2198,1.2198,1.2198,1.2198,1.2198,1.2198,1.2216,1.1768,1.0571,1.0343,0.9926,0.0,0.0,0.8747,0.8779,0.8917,0.9027,0.9051,0.9056,0.9056,0.9056,0.8835,0.8803,0.8957,0.8774,0.8746,0.8874,0.8352,0.8132,0.8266,0.8149,0.8113,0.8115,0.8045,0.7968,0.7988,0.7988,0.7988,0.7988,0.7839,0.7739,0.769,0.6584,0.6134,0.6082,0.5177,0.4824,0.4824,0.4824,0.4824,0.4774,2.2362,2.2237,2.2111,2.2111,2.2111,2.2111,2.2111,2.2111,2.2111,2.2111,2.2111,2.2111,2.2111,2.186,2.1589,2.1284,2.0956,2.0614,2.0154,1.9685,1.9424,1.9424,1.9424,1.9424,1.9424,1.9424,1.9424,1.9424,1.9424,1.9424,1.9424,1.9424,1.9424,1.9424,1.9424,1.9292,1.9165,1.9165,1.9085,1.8965,1.8965,1.8865,1.8724,1.8724,1.8631,1.849,1.849,1.8404,1.829,1.829,1.8083,1.7836,1.7836,1.7716,1.7477,1.6988,1.587,1.4679,1.4093,1.3643,1.3317,1.3029,1.297,1.2937,1.2759,1.2678,1.2678,1.2678,1.2678,1.2678,1.2678,1.2624,1.2368,1.1729,1.1549,0.0,0.0,1.0584,1.0642,1.0642,1.0278,1.0081,1.0081,0.9566,0.9286,0.9286,0.9072,0.9007,0.9092,0.9015,0.9051,0.9277,0.8734,0.854,0.8712,0.8505,0.8441,0.8525,0.8446,0.8432,0.8432,0.8432,0.8432,0.8432,0.8432,0.8432,0.8382,0.7879,0.768,0.763,0.6977,0.6725,0.6728,0.6578,0.6531,0.6431,2.2668,2.2487,2.2362,2.2362,2.2362,2.2362,2.2362,2.2362,2.2362,2.2362,2.2362,2.2362,2.2362,2.223,2.211,2.1869,2.1718,2.1486,2.0938,2.0216,1.9739,1.9488,1.9424,1.9424,1.9424,1.9424,1.9424,1.9424,1.9424,1.9424,1.9424,1.9424,1.9424,1.9424,1.9424,1.9424,1.9424,1.9424,1.9424,1.9424,1.9424,1.9232,1.9025,1.9025,1.8891,1.8698,1.8698,1.8651,1.8591,1.8591,1.839,1.8095,1.8095,1.7983,1.7776,1.7709,1.6305,1.4762,1.4705,1.4545,1.4384,1.408,1.3972,1.3831,1.3588,1.3497,1.3409,1.3409,1.3409,1.3409,1.3409,1.3339,1.3191,1.2899,0.0,0.0,0.0,1.2259,1.2292,1.2292,1.1707,1.1326,1.1326,1.0608,1.018,1.018,0.9772,0.955,0.9588,0.9319,0.9238,0.9461,0.9088,0.8989,0.9127,0.8892,0.8807,0.8878,0.8825,0.8825,0.8825,0.8825,0.8825,0.8825,0.8825,0.8825,0.8825,0.8825,0.8825,0.8775,0.8581,0.8482,0.8482,0.8283,0.8187,0.8035,2.305,2.3043,2.305,2.305,2.305,2.305,2.305,2.305,2.305,2.305,2.305,2.305,2.305,2.2731,2.2484,2.2169,2.1902,2.1577,2.118,2.1138,2.0694,1.9836,1.9533,1.9424,1.9424,1.9424,1.9424,1.9424,1.9424,1.9424,1.9424,1.9424,1.9424,1.9424,1.9424,1.9424,1.9424,1.9424,1.9424,1.9424,1.9424,1.941,1.9332,1.9332,1.9377,1.9299,1.9299,1.9125,1.8891,1.8891,1.8698,1.8457,1.8457,1.8444,1.837,1.8035,1.7689,1.7279,1.7015,1.6922,1.6836,1.6539,1.6269,1.6064,1.6044,1.5779,1.5588,1.5588,1.5588,1.5588,1.5588,1.5568,1.518,1.4064,0.0,0.0,1.238,1.2349,1.2485,1.2485,1.2512,1.256,1.256,1.2512,1.2463,1.2463,1.1393,1.0838,1.1021,0.9996,0.9421,0.9604,0.9546,0.9546,0.9558,0.9316,0.9171,0.9183,0.8928,0.8825,0.8825,0.8825,0.8825,0.8825,0.8825,0.8825,0.8825,0.8825,0.8825,0.8775,0.8775,0.8775,0.8775,0.8726,0.8726,0.8676,2.5493,2.4887,2.4332,2.4332,2.3658,2.3106,2.3106,2.3106,2.3106,2.3106,2.3106,2.3106,2.3106,2.2988,2.2875,2.2759,2.262,2.2421,2.2097,2.1901,2.1329,2.0182,1.9979,1.9787,1.943,1.9424,1.9424,1.9424,1.9424,1.9424,1.9424,1.9424,1.9424,1.9424,1.9424,1.9424,1.9424,1.9424,1.9424,1.9424,1.9424,1.9424,1.9424,1.9424,1.9424,1.9424,1.9424,1.9292,1.9199,1.9199,1.9005,1.8758,1.8758,1.8637,1.843,1.8082,1.7909,1.7802,1.7502,1.7467,1.74,1.7054,1.6945,1.677,1.6409,1.6186,1.6052,1.5818,1.5784,1.5784,1.5784,1.5784,1.565,1.5201,0.0,1.4954,1.4518,1.4493,1.4555,1.4555,1.4028,1.3709,1.3709,1.3071,1.2678,1.2678,1.2261,1.1768,1.1214,1.0138,0.9555,0.9575,0.9579,0.9579,0.9579,0.948,0.943,0.943,0.9327,0.9278,0.9278,0.9278,0.9278,0.9278,0.9278,0.9278,0.9278,0.9278,0.9278,0.9278,0.913,0.9031,0.9031,0.8874,0.8825,0.8775,2.7013,2.6286,2.5684,2.5684,2.4941,2.4324,2.4332,2.4332,2.4209,2.3783,2.372,2.3604,2.3168,2.3106,2.3106,2.3106,2.3106,2.3018,2.2791,2.2592,2.189,2.061,2.0492,2.023,1.9856,1.9638,1.954,1.954,1.9424,1.9424,1.9424,1.9424,1.9424,1.9424,1.9424,1.9424,1.9424,1.9424,1.9424,1.9424,1.9424,1.9424,1.9424,1.9424,1.9424,1.9424,1.9424,1.9424,1.9424,1.9424,1.9232,1.9065,1.9065,1.8858,1.8584,1.8328,1.8202,1.8062,1.7809,1.7729,1.7655,1.7414,1.7266,1.7092,1.669,1.648,1.6326,1.6025,1.5972,1.5939,1.5798,1.5784,1.5784,1.5784,1.5784,1.5784,1.5784,1.5784,1.5784,1.5784,1.5207,1.4777,1.4777,1.4088,1.365,1.365,1.336,1.2732,1.1707,1.0984,1.0551,1.0551,1.0551,1.0551,1.0551,0.992,0.9579,0.9579,0.9579,0.9579,0.9579,0.9579,0.9579,0.9579,0.9579,0.9579,0.9579,0.9579,0.9579,0.9579,0.9381,0.9335,0.9282,0.9126,0.9076,0.9027,2.7021,2.7013,2.7013,2.7013,2.6996,2.6987,2.7013,2.7013,2.6529,2.5256,2.5133,2.4579,2.3293,2.3113,2.3113,2.3113,2.3113,2.3113,2.3113,2.3113,2.2574,2.1282,2.0959,2.0798,2.0798,2.0141,1.9815,1.9815,1.9533,1.9424,1.9424,1.9424,1.9424,1.9424,1.9424,1.9424,1.9424,1.9424,1.9424,1.9424,1.9424,1.9424,1.9424,1.9424,1.9424,1.9424,1.9424,1.9424,1.9424,1.9424,1.9424,1.9424,1.9424,1.9165,1.8925,1.8925,1.8718,1.843,1.8075,1.7995,1.7916,1.7662,1.742,1.7206,1.7199,1.6921,1.6627,1.6339,1.6279,1.6186,1.5885,1.5784,1.5784,1.5784,1.5784,1.5784,1.5784,1.5784,1.5784,1.5784,1.5784,1.5784,1.5784,1.5784,1.5784,1.5784,1.4873,1.3854,1.2775,1.2678,1.2678,1.2678,1.2678,1.2678,1.2678,1.0645,0.9628,0.9628,0.9628,0.9628,0.9628,0.9628,0.9579,0.9579,0.9579,0.9579,0.9579,0.9579,0.9579,0.9579,0.9579,0.9579,0.9579,0.9579,0.9579,0.9579,2.9745,2.8998,2.8325,2.8325,2.7607,2.7004,2.7013,2.7013,2.6831,2.6468,2.6407,2.6286,2.5859,2.5859,2.5859,2.5859,2.5859,2.5859,2.5859,2.5859,2.57,2.5298,2.2819,2.1654,2.2116,2.0823,2.0155,2.0155,2.0046,1.9931,1.9707,1.9707,1.9591,1.9424,1.9424,1.9424,1.9424,1.9424,1.9424,1.9424,1.9424,1.9424,1.9424,1.9424,1.9424,1.9424,1.9424,1.9424,1.9424,1.9424,1.9424,1.9424,1.9424,1.9305,1.9192,1.8985,1.8865,1.8731,1.8437,1.8203,1.7916,1.7662,1.7515,1.7454,1.7246,1.7132,1.6985,1.664,1.6573,1.6486,1.6192,1.6139,1.6072,1.5865,1.5784,1.5784,1.5784,1.5784,1.5784,1.5784,1.5784,1.5784,1.5784,1.5784,1.5784,1.5784,1.4873,1.4148,1.3854,1.3119,1.2678,1.2678,1.2678,1.2678,1.2678,1.2101,1.176,1.176,1.1082,1.0739,1.069,0.9965,0.9579,0.9579,0.9579,0.9579,0.9579,0.9579,0.9579,0.9579,0.9579,0.9579,0.9579,0.9579,0.9579,0.9579,3.0889,3.0274,2.9717,2.9717,2.9066,2.8531,2.8531,2.8531,2.8343,2.7787,2.7727,2.7555,2.7073,2.7013,2.7013,2.7013,2.7013,2.7013,2.7013,2.7013,2.7194,2.7735,2.5055,2.37,2.3979,2.2766,2.2021,2.1892,2.1779,2.1331,2.0716,2.0658,2.0321,1.9764,1.9591,1.9533,1.9533,1.9424,1.9424,1.9424,1.9424,1.9424,1.9424,1.9424,1.9424,1.9424,1.9424,1.9424,1.9424,1.9424,1.9424,1.9424,1.9424,1.9424,1.939,1.9152,1.9098,1.9038,1.8738,1.8531,1.8268,1.8016,1.7762,1.7535,1.7414,1.7373,1.7293,1.6941,1.6881,1.6794,1.65,1.644,1.6346,1.6052,1.6005,1.5965,1.5798,1.5784,1.5784,1.5784,1.5784,1.5784,1.5784,1.5784,1.5784,1.5784,1.5255,1.4873,1.4873,1.4286,1.3938,1.3938,1.3938,1.3938,1.3938,1.3938,1.3499,1.2678,1.2096,1.1804,1.1755,1.069,1.0207,1.0207,0.9772,0.9579,0.9579,0.9579,0.9579,0.9579,0.9579,0.9579,0.9579,0.9579,0.9579,0.9579,3.0889,3.0889,3.0889,3.0889,3.0889,3.0889,3.0889,3.0889,3.046,2.9226,2.9107,2.8623,2.7495,2.7383,2.7383,2.7383,2.7383,2.7383,2.7383,2.7383,2.7855,2.9048,2.7689,2.6713,2.6221,2.5366,2.4758,2.4339,2.4053,2.3335,2.2297,2.2232,2.1559,2.0443,2.0263,2.009,1.9989,1.9873,1.9758,1.9764,1.9764,1.9764,1.9707,1.9707,1.9649,1.9597,1.9707,1.9591,1.9424,1.9482,1.9482,1.9482,1.9424,1.9424,1.9424,1.9424,1.9424,1.9305,1.9038,1.8945,1.8858,1.8702,1.8252,1.7814,1.7682,1.7602,1.7508,1.7293,1.7239,1.7146,1.68,1.6747,1.6647,1.6359,1.6362,1.6219,1.5898,1.5838,1.5824,1.5824,1.5798,1.5784,1.5784,1.5784,1.5784,1.5784,1.5784,1.5784,1.5784,1.5784,1.5784,1.5784,1.5784,1.5784,1.5784,1.5784,1.486,1.2969,1.2877,1.2823,1.2829,1.1804,1.1317,1.1268,1.0306,0.9871,0.9871,0.9772,0.9723,0.9723,0.9628,0.9579,0.9579,0.9579,0.9579,0.9579,3.0889,3.0889,3.0889,3.0889,3.0889,3.0889,3.0889,3.0889,3.0772,3.0518,3.046,3.0343,3.0098,3.0039,3.0039,3.0039,3.0039,3.0039,3.0039,3.0039,3.0167,3.046,3.013,2.9603,2.8831,2.6471,2.5064,2.4608,2.4552,2.4283,2.3838,2.3782,2.3063,2.1737,2.2556,2.2443,2.168,2.25,2.2717,2.2548,2.2548,2.2394,2.2248,2.2248,2.1623,2.0945,2.2112,2.1323,1.9758,2.0046,2.0104,2.0046,1.9815,1.97,1.9642,1.9482,1.9424,1.9352,1.9292,1.9098,1.9131,1.9997,1.9967,1.9405,1.8212,1.7756,1.7562,1.7554,1.7488,1.7454,1.7159,1.7105,1.7012,1.666,1.6613,1.6587,1.6526,1.6319,1.6179,1.6179,1.5972,1.5784,1.5784,1.5784,1.5784,1.5784,1.5784,1.5784,1.5784,1.5784,1.5784,1.5784,1.5784,1.5784,1.5784,1.5784,1.5588,1.5105,1.4334,1.3956,1.3908,1.2877,1.2387,1.2339,1.2145,1.2052,1.1955,1.1175,1.0837,1.0788,0.9916,0.9579,0.9579,0.9579,0.9579,0.9579,3.0889,3.0889,3.0889,3.0889,3.0889,3.0889,3.0889,3.0889,3.0889,3.0889,3.0889,3.0889,3.0889,3.0889,3.0889,3.0889,3.0889,3.0889,3.0889,3.0889,3.0889,3.0889,3.0889,3.0566,2.9883,2.8249,2.7058,2.6391,2.6391,2.6063,2.5342,2.5342,2.4625,2.3343,2.3838,2.3727,2.3183,2.3607,2.371,2.3599,2.3599,2.3503,2.3399,2.3399,2.2902,2.233,2.3111,2.2605,2.1544,2.1885,2.1998,2.1941,2.1764,2.1707,2.1658,2.1544,2.1487,2.1487,2.1323,2.1198,2.1185,2.1699,2.1559,2.1068,1.9935,1.9586,1.9418,1.9212,1.9183,1.9132,1.8964,1.8986,1.868,1.7858,1.7708,1.7458,1.677,1.6573,1.648,1.648,1.6339,1.6192,1.6052,1.5912,1.5784,1.5784,1.5784,1.5784,1.5784,1.5965,1.6039,1.6039,1.6172,1.6179,1.6046,1.6039,1.6039,1.6039,1.5319,1.5016,1.4968,1.395,1.3463,1.3414,1.2926,1.2678,1.2678,1.2145,1.1901,1.1853,1.1326,1.0792,1.035,1.035,1.0064,0.9579,3.0889,3.0889,3.0889,3.0889,3.0889,3.0889,3.0889,3.0889,3.0889,3.0889,3.0889,3.0889,3.0889,3.0889,3.0889,3.0889,3.0889,3.0889,3.0889,3.0889,3.0889,3.0889,3.0889,3.0674,3.0205,2.9853,2.9258,2.8398,2.833,2.7799,2.6808,2.6808,2.6182,2.5003,2.5003,2.4893,2.4671,2.4608,2.4544,2.4497,2.4497,2.4497,2.4441,2.4441,2.4164,2.383,2.4053,2.4053,2.3941,2.3941,2.3933,2.3941,2.3877,2.3886,2.3877,2.3822,2.3822,2.3766,2.3551,2.3495,2.3439,2.3472,2.3252,2.2909,2.2514,2.2002,2.149,2.1095,2.1024,2.1008,2.0893,2.0885,2.0535,1.9334,1.9145,1.8745,1.7587,1.7353,1.7275,1.7075,1.6834,1.6613,1.6373,1.6126,1.5931,1.5931,1.5931,1.5931,1.5931,1.6213,1.6346,1.6346,1.658,1.6587,1.6346,1.6346,1.6346,1.6346,1.6099,1.5931,1.5931,1.5107,1.4697,1.4605,1.3719,1.3298,1.3216,1.3022,1.2974,1.2974,1.2775,1.2193,1.1463,1.1463,1.0886,1.0113,3.0889,3.0889,3.0889,3.0889,3.0889,3.0889,3.0889,3.0889,3.0889,3.0889,3.0889,3.0889,3.0889,3.0889,3.0889,3.0889,3.0889,3.0889,3.0889,3.0889,3.0889,3.0889,3.0889,3.0674,3.0205,3.0137,2.9687,2.8838,2.8467,2.8237,2.8067,2.8067,2.7403,2.63,2.7295,2.7187,2.6245,2.7295,2.7565,2.7349,2.7349,2.7187,2.6926,2.6926,2.6245,2.5452,2.6789,2.6789,2.5908,2.4948,2.4552,2.4552,2.4339,2.4228,2.4172,2.3886,2.3822,2.3766,2.3766,2.3766,2.3997,2.5012,2.5197,2.533,2.5938,2.3953,2.1919,2.1506,2.1426,2.1286,2.0941,2.0885,2.0818,2.0668,2.0609,2.0542,2.0342,2.0078,1.9541,1.8636,1.7458,1.6693,1.6653,1.6613,1.6587,1.6587,1.6587,1.6587,1.6587,1.6627,1.6647,1.6647,1.6687,1.6687,1.6647,1.6647,1.6647,1.6647,1.6607,1.6587,1.6587,1.6437,1.6249,1.6018,1.5865,1.5673,1.5296,1.4436,1.41,1.4004,1.3071,1.263,1.2484,1.2484,1.2387,1.2296,3.0889,3.0889,3.0889,3.0889,3.0889,3.0889,3.0889,3.0889,3.0889,3.0889,3.0889,3.0889,3.0889,3.0889,3.0889,3.0889,3.0889,3.0889,3.0889,3.0889,3.0889,3.0889,3.0889,3.0791,3.0596,3.0332,3.001,2.9639,2.8965,2.8525,2.8291,2.8291,2.8014,2.752,2.8067,2.8014,2.752,2.8067,2.8237,2.813,2.813,2.8014,2.7916,2.7916,2.7466,2.6952,2.7682,2.7628,2.7241,2.6844,2.6726,2.6672,2.6563,2.6509,2.6509,2.6336,2.6336,2.6273,2.6109,2.6109,2.6173,2.6518,2.6581,2.6707,2.7034,2.6088,2.4854,2.4044,2.3765,2.3548,2.3176,2.3183,2.3003,2.2173,2.2038,2.1785,2.1183,2.0852,2.0503,2.0038,1.8738,1.7844,1.7844,1.7146,1.6707,1.6707,1.6707,1.6707,1.6707,1.6867,1.7005,1.7005,1.7114,1.7114,1.7005,1.7005,1.7005,1.7005,1.7005,1.6867,1.6707,1.6707,1.664,1.6513,1.6513,1.644,1.627,1.5823,1.5626,1.5577,1.5122,1.4483,1.3771,1.3177,1.2845,1.2678]}]]